[[{"header":{"parameterUnit":"m.s-1","parameterCategory":1,"la1":30.6,"la2":28.766,"lo1":-90.7593,"lo2":-88.6598,"dy":0.0162,"dx":0.0183,"nx":116,"ny":114,"refTime":"2023-05-19T00:00:00:Z","depth":0,"parameterNumber":2,"parameterNumberName":"U-component_of_WINDS"},"data":[0.0,0.0,0.0,0.0,0.0,0.0,0.0,0.0,0.0,0.0,0.0,0.0,0.0,0.0,0.0,0.0,0.0,0.0,0.0,0.0,0.0,0.0,0.0,0.0,0.0,0.0,0.0,0.0,0.0,0.0,0.0,0.0,0.0,0.0,0.0,0.0,0.0,0.0,0.0,0.0,0.0,0.0,0.0,0.0,0.0,0.0,0.0,0.0,0.0,0.0,0.0,0.0,0.0,0.0,0.0,0.0,0.0,0.0,0.0,0.0,0.0,0.0,0.0,0.0,0.0,0.0,0.0,0.0,0.0,0.0,0.0,0.0,0.0,0.0,0.0,0.0,0.0,0.0,0.0,0.0,0.0,0.0,0.0,0.0,0.0,0.0,0.0,0.0,0.0,0.0,0.0,0.0,0.0,0.0,0.0,0.0,0.0,0.0,0.0,0.0,0.0,0.0,0.0,0.0,0.0,0.0,0.0,0.0,0.0,0.0,0.0,0.0,0.0,0.0,0.0,0.0,0.0,0.0,0.0,0.0,0.0,0.0,0.0,0.0,0.0,0.0,0.0,0.0,0.0,0.0,0.0,0.0,0.0,0.0,0.0,0.0,0.0,0.0,0.0,0.0,0.0,0.0,0.0,0.0,0.0,0.0,0.0,0.0,0.0,0.0,0.0,0.0,0.0,0.0,0.0,0.0,0.0,0.0,0.0,0.0,0.0,0.0,0.0,0.0,0.0,0.0,0.0,0.0,0.0,0.0,0.0,0.0,0.0,0.0,0.0,0.0,0.0,0.0,0.0,0.0,0.0,0.0,0.0,0.0,0.0,0.0,0.0,0.0,0.0,0.0,0.0,0.0,0.0,0.0,0.0,0.0,0.0,0.0,0.0,0.0,0.0,0.0,0.0,0.0,0.0,0.0,0.0,0.0,0.0,0.0,0.0,0.0,0.0,0.0,0.0,0.0,0.0,0.0,0.0,0.0,0.0,0.0,0.0,0.0,0.0,0.0,0.0,0.0,0.0,0.0,0.0,0.0,0.0,0.0,0.0,0.0,0.0,0.0,0.0,0.0,0.0,0.0,0.0,0.0,0.0,0.0,0.0,0.0,0.0,0.0,0.0,0.0,0.0,0.0,0.0,0.0,0.0,0.0,0.0,0.0,0.0,0.0,0.0,0.0,0.0,0.0,0.0,0.0,0.0,0.0,0.0,0.0,0.0,0.0,0.0,0.0,0.0,0.0,0.0,0.0,0.0,0.0,0.0,0.0,0.0,0.0,0.0,0.0,0.0,0.0,0.0,0.0,0.0,0.0,0.0,0.0,0.0,0.0,0.0,0.0,0.0,0.0,0.0,0.0,0.0,0.0,0.0,0.0,0.0,0.0,0.0,0.0,0.0,0.0,0.0,0.0,0.0,0.0,0.0,0.0,0.0,0.0,0.0,0.0,0.0,0.0,0.0,0.0,0.0,0.0,0.0,0.0,0.0,0.0,0.0,0.0,0.0,0.0,0.0,0.0,0.0,0.0,0.0,0.0,0.0,0.0,0.0,0.0,0.0,0.0,0.0,0.0,0.0,0.0,0.0,0.0,0.0,0.0,0.0,0.0,0.0,0.0,0.0,0.0,0.0,0.0,0.0,0.0,0.0,0.0,0.0,0.0,0.0,0.0,0.0,0.0,0.0,0.0,0.0,0.0,0.0,0.0,0.0,0.0,0.0,0.0,0.0,0.0,0.0,0.0,0.0,0.0,0.0,0.0,0.0,0.0,0.0,0.0,0.0,0.0,0.0,0.0,0.0,0.0,0.0,0.0,0.0,0.0,0.0,0.0,0.0,0.0,0.0,0.0,0.0,0.0,0.0,0.0,0.0,0.0,0.0,0.0,0.0,0.0,0.0,0.0,0.0,0.0,0.0,0.0,0.0,0.0,0.0,0.0,0.0,0.0,0.0,0.0,0.0,0.0,0.0,0.0,0.0,0.0,0.0,0.0,0.0,0.0,0.0,0.0,0.0,0.0,0.0,0.0,0.0,0.0,0.0,0.0,0.0,0.0,0.0,0.0,0.0,0.0,0.0,0.0,0.0,0.0,0.0,0.0,0.0,0.0,0.0,0.0,0.0,0.0,0.0,0.0,0.0,0.0,0.0,0.0,0.0,0.0,0.0,0.0,0.0,0.0,0.0,0.0,0.0,0.0,0.0,0.0,0.0,0.0,0.0,0.0,0.0,0.0,0.0,0.0,0.0,0.0,0.0,0.0,0.0,0.0,0.0,0.0,0.0,0.0,0.0,0.0,0.0,0.0,0.0,0.0,0.0,0.0,0.0,0.0,0.0,0.0,0.0,0.0,0.0,0.0,0.0,0.0,0.0,0.0,0.0,0.0,0.0,0.0,0.0,0.0,0.0,0.0,0.0,0.0,0.0,0.0,0.0,0.0,0.0,0.0,0.0,0.0,0.0,0.0,0.0,0.0,0.0,0.0,0.0,0.0,0.0,0.0,0.0,0.0,0.0,0.0,0.0,0.0,0.0,0.0,0.0,0.0,0.0,0.0,0.0,0.0,0.0,0.0,0.0,0.0,0.0,0.0,0.0,0.0,0.0,0.0,0.0,0.0,0.0,0.0,0.0,0.0,0.0,0.0,0.0,0.0,0.0,0.0,0.0,0.0,0.0,0.0,0.0,0.0,0.0,0.0,0.0,0.0,0.0,0.0,0.0,0.0,0.0,0.0,0.0,0.0,0.0,0.0,0.0,0.0,0.0,0.0,0.0,0.0,0.0,0.0,0.0,0.0,0.0,0.0,0.0,0.0,0.0,0.0,0.0,0.0,0.0,0.0,0.0,0.0,0.0,0.0,0.0,0.0,0.0,0.0,0.0,0.0,0.0,0.0,0.0,0.0,0.0,0.0,0.0,0.0,0.0,0.0,0.0,0.0,0.0,0.0,0.0,0.0,0.0,0.0,0.0,0.0,0.0,0.0,0.0,0.0,0.0,0.0,0.0,0.0,0.0,0.0,0.0,0.0,0.0,0.0,0.0,0.0,0.0,0.0,0.0,0.0,0.0,0.0,0.0,0.0,0.0,0.0,0.0,0.0,0.0,0.0,0.0,0.0,0.0,0.0,0.0,0.0,0.0,0.0,0.0,0.0,0.0,0.0,0.0,0.0,0.0,0.0,0.0,0.0,0.0,0.0,0.0,0.0,0.0,0.0,0.0,0.0,0.0,0.0,0.0,0.0,0.0,0.0,0.0,0.0,0.0,0.0,0.0,0.0,0.0,0.0,0.0,0.0,0.0,0.0,0.0,0.0,0.0,0.0,0.0,0.0,0.0,0.0,0.0,0.0,0.0,0.0,0.0,0.0,0.0,0.0,0.0,0.0,0.0,0.0,0.0,0.0,0.0,0.0,0.0,0.0,0.0,0.0,0.0,0.0,0.0,0.0,0.0,0.0,0.0,0.0,0.0,0.0,0.0,0.0,0.0,0.0,0.0,0.0,0.0,0.0,0.0,0.0,0.0,0.0,0.0,0.0,0.0,0.0,0.0,0.0,0.0,0.0,0.0,0.0,0.0,0.0,0.0,0.0,0.0,0.0,0.0,0.0,0.0,0.0,0.0,0.0,0.0,0.0,0.0,0.0,0.0,0.0,0.0,0.0,0.0,0.0,0.0,0.0,0.0,0.0,0.0,0.0,0.0,0.0,0.0,0.0,0.0,0.0,0.0,0.0,0.0,0.0,0.0,0.0,0.0,0.0,0.0,0.0,0.0,0.0,0.0,0.0,0.0,0.0,0.0,0.0,0.0,0.0,0.0,0.0,0.0,0.0,0.0,0.0,0.0,0.0,0.0,0.0,0.0,0.0,0.0,0.0,0.0,0.0,0.0,0.0,0.0,0.0,0.0,0.0,0.0,0.0,0.0,0.0,0.0,0.0,0.0,0.0,0.0,0.0,0.0,0.0,0.0,0.0,0.0,0.0,0.0,0.0,0.0,0.0,0.0,0.0,0.0,0.0,0.0,0.0,0.0,0.0,0.0,0.0,0.0,0.0,0.0,0.0,0.0,0.0,0.0,0.0,0.0,0.0,0.0,0.0,0.0,0.0,0.0,0.0,0.0,0.0,0.0,0.0,0.0,0.0,0.0,0.0,0.0,0.0,0.0,0.0,0.0,0.0,0.0,0.0,0.0,0.0,0.0,0.0,0.0,0.0,0.0,0.0,0.0,0.0,0.0,0.0,0.0,0.0,0.0,0.0,0.0,0.0,0.0,0.0,0.0,0.0,0.0,0.0,0.0,0.0,0.0,0.0,0.0,0.0,0.0,0.0,0.0,0.0,0.0,0.0,0.0,0.0,0.0,0.0,0.0,0.0,0.0,0.0,0.0,0.0,0.0,0.0,0.0,0.0,0.0,0.0,0.0,0.0,0.0,0.0,0.0,0.0,0.0,0.0,0.0,0.0,0.0,0.0,0.0,0.0,0.0,0.0,0.0,0.0,0.0,0.0,0.0,0.0,0.0,0.0,0.0,0.0,0.0,0.0,0.0,0.0,0.0,0.0,0.0,0.0,0.0,0.0,0.0,0.0,0.0,0.0,0.0,0.0,0.0,0.0,0.0,0.0,0.0,0.0,0.0,0.0,0.0,0.0,0.0,0.0,0.0,0.0,0.0,0.0,0.0,0.0,0.0,0.0,0.0,0.0,0.0,0.0,0.0,0.0,0.0,0.0,0.0,0.0,0.0,0.0,0.0,0.0,0.0,0.0,0.0,0.0,0.0,0.0,0.0,0.0,0.0,0.0,0.0,0.0,0.0,0.0,0.0,0.0,0.0,0.0,0.0,0.0,0.0,0.0,0.0,0.0,0.0,0.0,0.0,0.0,0.0,0.0,0.0,0.0,0.0,0.0,0.0,0.0,0.0,0.0,0.0,0.0,0.0,0.0,0.0,0.0,0.0,0.0,0.0,0.0,0.0,0.0,0.0,0.0,0.0,0.0,0.0,0.0,0.0,0.0,0.0,0.0,0.0,0.0,0.0,0.0,0.0,0.0,0.0,0.0,0.0,0.0,0.0,0.0,0.0,0.0,0.0,0.0,0.0,0.0,0.0,0.0,0.0,0.0,0.0,0.0,0.0,0.0,0.0,0.0,0.0,0.0,0.0,0.0,0.0,0.0,0.0,0.0,0.0,0.0,0.0,0.0,0.0,0.0,0.0,0.0,0.0,0.0,0.0,0.0,0.0,0.0,0.0,0.0,0.0,0.0,0.0,0.0,0.0,0.0,0.0,0.0,0.0,0.0,0.0,0.0,0.0,0.0,0.0,0.0,0.0,0.0,0.0,0.0,0.0,0.0,0.0,0.0,0.0,0.0,0.0,0.0,0.0,0.0,0.0,0.0,0.0,0.0,0.0,0.0,0.0,0.0,0.0,0.0,0.0,0.0,0.0,0.0,0.0,0.0,0.0,0.0,0.0,0.0,0.0,0.0,0.0,0.0,0.0,0.0,0.0,0.0,0.0,0.0,0.0,0.0,0.0,0.0,0.0,0.0,0.0,0.0,0.0,0.0,0.0,0.0,0.0,0.0,0.0,0.0,0.0,0.0,0.0,0.0,0.0,0.0,0.0,0.0,0.0,0.0,0.0,0.0,0.0,0.0,0.0,0.0,0.0,0.0,0.0,0.0,0.0,0.0,0.0,0.0,0.0,0.0,0.0,0.0,0.0,0.0,0.0,0.0,0.0,0.0,0.0,0.0,0.0,0.0,0.0,0.0,0.0,0.0,0.0,0.0,0.0,0.0,0.0,0.0,0.0,0.0,0.0,0.0,0.0,0.0,0.0,0.0,0.0,0.0,0.0,0.0,0.0,0.0,0.0,0.0,0.0,0.0,0.0,0.0,0.0,0.0,0.0,0.0,0.0,0.0,0.0,0.0,0.0,0.0,0.0,0.0,0.0,0.0,0.0,0.0,0.0,0.0,0.0,0.0,0.0,0.0,0.0,0.0,0.0,0.0,0.0,0.0,0.0,0.0,0.0,0.0,0.0,0.0,0.0,0.0,0.0,0.0,0.0,0.0,0.0,0.0,0.0,0.0,0.0,0.0,0.0,0.0,0.0,0.0,0.0,0.0,0.0,0.0,0.0,0.0,0.0,0.0,2.8795,0.0,0.0,0.0,0.0,0.0,0.0,0.0,0.0,0.0,0.0,0.0,0.0,0.0,0.0,0.0,0.0,0.0,0.0,0.0,0.0,0.0,0.0,0.0,0.0,0.0,0.0,0.0,0.0,0.0,0.0,0.0,0.0,0.0,0.0,0.0,0.0,0.0,0.0,0.0,2.431,2.5304,2.6273,2.58,2.5407,2.5112,0.0,0.0,0.0,0.0,0.0,0.0,0.0,0.0,0.0,0.0,0.0,0.0,0.0,0.0,0.0,0.0,0.0,0.0,0.0,0.0,0.0,0.0,0.0,0.0,0.0,0.0,0.0,0.0,0.0,0.0,0.0,0.0,0.0,0.0,0.0,0.0,0.0,0.0,0.0,0.0,0.0,0.0,0.0,0.0,0.0,0.0,0.0,0.0,0.0,0.0,0.0,0.0,0.0,0.0,0.0,0.0,0.0,0.0,0.0,0.0,0.0,0.0,0.0,0.0,0.0,0.0,0.0,0.0,0.0,0.0,0.0,2.8411,0.0,0.0,0.0,0.0,0.0,0.0,0.0,0.0,0.0,0.0,0.0,0.0,0.0,0.0,0.0,0.0,0.0,0.0,0.0,0.0,0.0,0.0,0.0,0.0,0.0,0.0,0.0,0.0,0.0,0.0,0.0,0.0,0.0,0.0,0.0,0.0,0.0,2.4398,2.5715,2.7155,2.8633,2.8459,2.7823,2.6891,2.6701,0.0,0.0,0.0,0.0,0.0,0.0,0.0,0.0,0.0,0.0,0.0,0.0,0.0,0.0,0.0,0.0,0.0,0.0,0.0,0.0,0.0,0.0,0.0,0.0,0.0,0.0,0.0,0.0,0.0,0.0,0.0,0.0,0.0,0.0,0.0,0.0,0.0,0.0,0.0,0.0,0.0,0.0,0.0,0.0,0.0,0.0,0.0,0.0,0.0,0.0,0.0,0.0,0.0,0.0,0.0,0.0,0.0,0.0,0.0,0.0,0.0,0.0,0.0,3.1581,3.1914,3.1902,3.3234,3.3933,3.3955,3.109,3.0603,3.1619,0.0,0.0,0.0,0.0,0.0,0.0,0.0,0.0,0.0,0.0,0.0,0.0,0.0,0.0,0.0,0.0,0.0,0.0,0.0,0.0,0.0,0.0,0.0,0.0,0.0,0.0,0.0,0.0,0.0,0.0,0.0,0.0,0.0,0.0,2.4393,2.5227,2.6319,2.7687,2.8757,2.9612,2.8963,2.8833,2.9158,2.8785,2.6918,2.4023,0.0,0.0,0.0,0.0,0.0,0.0,0.0,0.0,0.0,0.0,0.0,0.0,0.0,0.0,0.0,0.0,0.0,0.0,0.0,0.0,0.0,0.0,0.0,0.0,0.0,0.0,0.0,0.0,0.0,0.0,0.0,0.0,0.0,0.0,0.0,0.0,0.0,0.0,0.0,0.0,0.0,2.8306,2.8338,0.0,0.0,0.0,0.0,0.0,0.0,0.0,0.0,0.0,0.0,0.0,0.0,0.0,0.0,3.1323,3.2263,3.307,3.3753,3.4833,3.5321,3.5252,3.5469,3.5538,3.5424,3.4958,0.0,3.2008,3.1337,0.0,0.0,0.0,0.0,0.0,0.0,0.0,0.0,0.0,0.0,0.0,0.0,0.0,0.0,0.0,0.0,0.0,0.0,0.0,0.0,0.0,0.0,0.0,0.0,0.0,0.0,0.0,0.0,0.0,0.0,0.0,2.4298,2.5211,2.511,2.6185,2.8501,2.9734,3.0858,3.1826,3.1469,3.1487,3.1729,3.1551,2.9449,2.6094,2.6388,0.0,0.0,0.0,0.0,0.0,0.0,0.0,0.0,0.0,0.0,0.0,0.0,0.0,0.0,0.0,0.0,0.0,0.0,0.0,0.0,0.0,0.0,0.0,0.0,0.0,0.0,0.0,0.0,0.0,0.0,0.0,0.0,0.0,0.0,0.0,0.0,0.0,0.0,0.0,2.6286,2.7385,2.8717,2.7987,2.7194,0.0,0.0,0.0,0.0,0.0,0.0,0.0,0.0,0.0,3.2802,3.2582,3.2957,3.4027,3.4497,3.4914,3.5263,3.5763,3.5984,3.5942,3.5929,3.5866,3.5815,3.5724,3.5076,3.3991,3.3004,3.1637,3.0046,0.0,0.0,0.0,0.0,0.0,2.7604,0.0,0.0,0.0,0.0,0.0,0.0,0.0,0.0,0.0,0.0,0.0,0.0,0.0,0.0,0.0,2.5842,0.0,0.0,0.0,0.0,0.0,0.0,0.0,2.4608,2.5697,2.5997,2.752,3.0342,3.1502,3.2541,3.3393,3.3393,3.3393,3.3393,3.3393,3.1466,2.8202,2.8595,2.747,2.5427,0.0,0.0,0.0,0.0,0.0,0.0,0.0,0.0,0.0,0.0,0.0,0.0,0.0,0.0,0.0,0.0,0.0,0.0,0.0,0.0,0.0,0.0,0.0,0.0,0.0,0.0,0.0,0.0,0.0,0.0,0.0,0.0,0.0,0.0,0.0,0.0,0.0,2.6508,2.7723,2.971,2.9458,2.89,0.0,0.0,0.0,0.0,0.0,0.0,3.2252,3.2813,3.3597,3.4542,3.4621,3.5086,3.5991,3.5991,3.5999,3.6007,3.6007,3.6003,3.5991,3.5953,3.5922,3.5885,3.5787,3.5704,3.5532,3.4308,3.3365,3.2524,3.1157,3.0028,2.9242,2.9773,2.9783,2.9869,0.0,0.0,0.0,0.0,0.0,0.0,0.0,0.0,0.0,0.0,0.0,0.0,0.0,0.0,2.629,2.6978,2.7232,2.6675,0.0,0.0,0.0,2.3487,2.3963,2.4243,2.4127,2.7064,2.9557,3.152,3.2727,3.3327,3.3393,3.3393,3.3393,3.3393,3.3393,3.202,2.9685,2.9924,2.9082,2.7521,2.7112,0.0,0.0,0.0,0.0,0.0,0.0,0.0,0.0,0.0,0.0,0.0,0.0,0.0,0.0,0.0,0.0,0.0,0.0,0.0,0.0,0.0,0.0,0.0,0.0,0.0,0.0,0.0,0.0,0.0,0.0,0.0,0.0,0.0,0.0,0.0,0.0,0.0,0.0,3.2242,3.2727,0.0,0.0,0.0,0.0,3.037,3.2183,3.3449,3.3769,3.5014,3.5768,3.5891,3.591,3.5939,3.5991,3.5991,3.5994,3.5994,3.5994,3.5994,3.5991,3.601,3.5951,3.5908,3.5883,3.5827,3.5685,3.5532,3.529,3.4969,3.4434,3.3827,3.3297,3.3957,3.3847,3.3593,0.0,0.0,0.0,0.0,0.0,0.0,0.0,0.0,0.0,0.0,0.0,0.0,0.0,2.5688,2.7461,2.8136,2.8916,2.8869,2.7664,0.0,0.0,2.5406,2.4521,2.4415,2.5204,2.8455,3.0524,3.1258,3.2491,3.3073,3.3073,3.3073,3.3073,3.3073,3.3073,3.2652,3.192,3.2145,3.1351,2.9996,2.9819,2.9278,0.0,0.0,0.0,0.0,0.0,0.0,0.0,0.0,0.0,0.0,0.0,0.0,0.0,0.0,0.0,0.0,0.0,0.0,0.0,0.0,0.0,0.0,0.0,0.0,0.0,0.0,0.0,0.0,0.0,0.0,0.0,0.0,0.0,0.0,0.0,0.0,0.0,3.161,3.2561,0.0,3.1684,3.2222,3.2581,3.2411,3.3987,3.5021,3.5182,3.5685,3.5985,3.6005,3.5999,3.5991,3.5991,3.5991,3.5991,3.5994,3.6005,3.601,3.5991,3.5995,3.5993,3.596,3.596,3.5888,3.5755,3.5687,3.5588,3.5432,3.5239,3.5009,3.4821,3.507,3.5009,3.4849,0.0,0.0,0.0,0.0,0.0,0.0,0.0,0.0,0.0,0.0,0.0,2.3929,2.4831,2.7179,2.8911,2.9319,3.0062,2.9889,2.8466,0.0,0.0,2.5338,2.4524,2.5153,2.7494,2.9521,3.0924,3.1714,3.2521,3.2916,3.2979,3.2979,3.3011,3.3073,3.3073,3.3073,3.3117,3.3226,3.2811,3.1979,3.1618,3.0693,2.9508,0.0,0.0,0.0,0.0,0.0,0.0,0.0,0.0,0.0,0.0,0.0,0.0,0.0,0.0,0.0,0.0,0.0,0.0,0.0,0.0,0.0,0.0,0.0,0.0,0.0,0.0,0.0,0.0,0.0,0.0,0.0,0.0,0.0,0.0,0.0,3.1619,3.1573,3.2931,3.3544,3.2751,3.3582,3.4198,3.4235,3.5213,3.5818,3.5864,3.5953,3.6009,3.5994,3.5991,3.5991,3.5991,3.5991,3.5996,3.6003,3.5992,3.5996,3.5996,3.5995,3.5995,3.5996,3.5994,3.596,3.5866,3.5767,3.5715,3.565,3.5483,3.5432,3.5432,3.5432,3.5383,3.532,0.0,0.0,0.0,0.0,0.0,0.0,0.0,0.0,0.0,0.0,2.4335,2.597,2.7446,2.9354,3.0526,3.0526,3.0526,2.9566,2.7301,2.6513,0.0,2.3046,2.3948,2.6442,3.0647,3.0165,3.0851,3.2852,3.2866,3.2948,3.3055,3.3086,3.3196,3.3364,3.3364,3.3256,3.3086,3.3086,3.3226,3.3309,3.2242,3.1596,3.1136,0.0,0.0,0.0,0.0,0.0,0.0,0.0,0.0,0.0,0.0,0.0,0.0,0.0,0.0,0.0,0.0,0.0,0.0,0.0,0.0,0.0,0.0,0.0,0.0,0.0,0.0,0.0,0.0,0.0,0.0,0.0,0.0,0.0,2.9112,3.0355,3.1713,3.2484,3.4074,3.5178,3.5378,3.5577,3.5704,3.5704,3.5762,3.5805,3.5805,3.5935,3.5994,3.5991,3.5991,3.5991,3.5991,3.5994,3.6003,3.5995,3.5995,3.5996,3.5991,3.5994,3.5995,3.5995,3.5993,3.6005,3.5982,3.585,3.5801,3.576,3.5438,3.532,3.5312,3.5293,3.5261,3.5209,0.0,0.0,0.0,0.0,0.0,0.0,0.0,0.0,0.0,0.0,2.369,2.5637,2.5986,2.8722,3.0526,3.0526,3.0526,2.9847,2.8313,0.0,0.0,2.4764,2.6075,2.7695,2.9654,3.0573,3.1322,3.1894,3.2073,3.2197,3.2249,3.2489,3.2608,3.2674,3.2787,3.2866,3.293,3.293,3.3024,3.3147,3.2585,3.2169,3.1799,0.0,0.0,0.0,0.0,0.0,0.0,0.0,0.0,0.0,0.0,0.0,0.0,0.0,0.0,0.0,0.0,0.0,0.0,0.0,0.0,0.0,0.0,0.0,0.0,0.0,0.0,0.0,0.0,0.0,0.0,0.0,0.0,3.0631,3.0545,3.2478,3.3973,3.4221,3.4874,3.5331,3.5391,3.5577,3.5673,3.5631,3.5689,3.5747,3.5802,3.5874,3.5945,3.5994,3.5991,3.5991,3.5991,3.6007,3.5992,3.5993,3.5994,3.6005,3.6005,3.5994,3.5996,3.6009,3.5993,3.5995,3.5994,3.5866,3.5768,3.5702,3.5523,3.5451,3.5438,3.5345,3.5289,3.5261,0.0,0.0,0.0,0.0,0.0,0.0,0.0,0.0,0.0,0.0,2.3855,2.574,2.6299,2.8837,3.0526,3.0526,3.0526,2.9625,2.755,0.0,2.6114,2.6936,2.7653,2.8755,3.0197,3.092,3.1351,3.1504,3.1654,3.1821,3.2038,3.2214,3.2439,3.2608,3.269,3.2737,3.277,3.2866,3.2898,3.2848,3.2672,3.2353,3.1989,3.1793,3.1037,2.999,2.9575,2.9132,2.8615,2.7779,0.0,0.0,0.0,0.0,0.0,0.0,0.0,0.0,0.0,0.0,0.0,0.0,0.0,0.0,0.0,0.0,0.0,0.0,0.0,0.0,0.0,0.0,0.0,0.0,3.0309,3.1946,3.2428,3.3802,3.4811,3.4889,3.5069,3.5247,3.5402,3.5502,3.5572,3.5608,3.5635,3.5697,3.5788,3.5856,3.5926,3.5991,3.5991,3.5991,3.5991,3.5991,3.5995,3.5995,3.6007,3.5991,3.5991,3.5997,3.6001,0.0,3.6007,3.5996,3.5979,3.5892,3.5825,0.0,0.0,0.0,0.0,0.0,3.5258,3.5245,0.0,0.0,0.0,0.0,0.0,0.0,0.0,0.0,0.0,0.0,0.0,2.6102,2.7551,2.9387,3.0526,3.0526,3.036,2.9032,0.0,2.474,2.554,2.8952,2.8818,2.9535,3.1334,3.1095,3.1095,3.1389,3.1445,3.1654,3.2073,3.2109,3.2352,3.2802,3.2802,3.2737,3.2639,3.2802,3.277,3.2606,3.2606,3.236,3.2002,3.1972,3.1153,3.0044,2.9998,2.9691,2.9234,2.8863,0.0,0.0,0.0,0.0,0.0,0.0,0.0,0.0,0.0,0.0,0.0,0.0,0.0,0.0,0.0,0.0,0.0,0.0,0.0,0.0,0.0,0.0,0.0,0.0,3.2226,3.3815,3.4173,3.4427,3.4626,3.4831,3.4889,3.5019,3.5285,3.5364,3.5441,3.5502,3.5554,3.5628,3.5737,0.0,0.0,0.0,0.0,3.5991,3.5991,3.5992,3.5996,3.5995,3.6001,3.6004,3.6009,3.5997,3.6001,3.6004,3.6007,3.5996,3.5991,3.5935,3.588,3.5833,3.5535,3.5405,3.535,3.5239,3.5209,0.0,0.0,0.0,0.0,0.0,0.0,0.0,0.0,0.0,0.0,2.2904,2.4583,2.6233,2.776,2.9486,3.0526,3.0526,2.9573,2.8382,2.7029,2.5478,2.5974,2.8952,2.905,2.9535,3.0658,3.0651,3.0651,3.0675,3.0958,3.1117,3.1235,3.1504,3.1894,3.2318,3.2318,3.2521,3.2834,3.2705,3.2639,3.2606,3.2606,3.2648,3.2702,3.2429,3.2282,3.2299,3.2268,3.2265,3.2121,3.1159,3.0805,3.065,2.9836,2.8956,0.0,0.0,0.0,0.0,0.0,0.0,0.0,0.0,0.0,0.0,0.0,0.0,0.0,0.0,0.0,0.0,0.0,0.0,0.0,3.0039,3.2159,3.3726,3.3807,3.4074,3.4363,3.4626,3.4752,3.4832,3.4908,3.5171,3.5251,3.5066,3.534,3.5477,3.54,3.5602,0.0,3.5924,3.5978,3.5991,3.5991,3.5996,3.5995,3.5996,0.0,0.0,3.6007,3.6007,3.601,3.5991,3.5996,3.5993,3.5991,3.5989,3.5846,3.565,3.5577,3.5418,3.5239,3.5226,3.5209,3.5157,0.0,0.0,0.0,0.0,0.0,0.0,0.0,0.0,0.0,0.0,2.3307,2.4975,2.6474,2.7291,2.807,2.8894,2.7632,2.6928,2.7281,2.6776,2.7436,2.9725,2.9807,3.003,3.0468,3.0526,3.0526,3.0526,3.0692,3.0855,3.1015,3.1173,3.1542,3.2038,3.1894,3.2161,3.2641,3.2521,3.2588,3.2737,3.2737,3.2802,3.2884,3.2707,3.2787,3.2993,3.2993,3.3104,3.3172,3.2588,3.2147,3.1767,3.1311,3.033,2.9213,0.0,0.0,0.0,0.0,0.0,0.0,0.0,0.0,0.0,0.0,0.0,0.0,0.0,0.0,2.6147,2.7755,0.0,3.0162,3.1535,3.2679,3.3426,3.3541,3.377,3.4074,3.4363,3.452,3.463,3.4694,3.4944,3.5032,3.4908,3.5266,3.5438,3.5295,3.5553,3.576,3.5908,3.5974,3.5991,3.6007,3.5996,3.5995,3.5996,3.5996,3.6001,3.5991,3.5991,3.5991,3.5994,3.6003,3.5995,3.5989,3.5896,3.5748,3.5588,3.5519,3.5383,3.5209,3.5209,3.5124,3.5037,0.0,0.0,0.0,0.0,0.0,0.0,0.0,0.0,0.0,0.0,2.2169,2.3658,2.5179,2.5208,2.5497,0.0,2.5655,2.5686,2.7065,2.7814,2.8942,3.0584,3.0593,3.0568,3.0526,3.0526,3.0526,3.0526,3.0526,3.0651,3.0895,3.0895,3.1274,3.1858,3.1617,3.1856,3.2457,3.2386,3.2573,3.2805,3.282,3.2852,3.2852,3.2916,3.2961,3.3024,3.3086,3.3196,3.3334,3.3286,3.2894,3.2368,3.2248,3.1282,3.0057,2.9132,2.8366,0.0,0.0,0.0,0.0,0.0,0.0,0.0,0.0,2.6243,2.6064,2.6809,2.6916,2.7553,2.9869,3.0374,3.1053,3.3021,3.3196,3.3129,3.3273,3.3465,3.3707,3.4049,3.4269,3.4431,3.4526,3.4755,3.4851,3.4772,3.5207,3.5422,3.523,3.551,3.5729,3.5872,3.5923,3.5962,3.6007,3.5995,3.5996,3.5996,3.6001,3.6004,3.5991,3.5991,3.5994,3.5999,3.5995,3.5975,3.5964,3.5762,3.565,3.5577,3.5245,3.5051,3.4912,3.4912,3.4807,3.4624,0.0,0.0,0.0,0.0,0.0,0.0,0.0,0.0,0.0,0.0,0.0,0.0,0.0,0.0,0.0,0.0,2.4696,2.575,2.6198,2.775,2.9379,3.1044,3.1015,3.0797,3.0526,3.0526,3.0526,3.0526,3.0526,3.0526,3.0568,3.0568,3.0965,3.1731,3.1579,3.1894,3.2573,3.2439,3.2422,3.2457,3.259,3.2639,3.2672,3.2961,3.2898,3.2687,3.2993,3.3117,3.3117,3.2925,3.2795,3.2634,3.1986,3.1662,3.1229,2.9812,2.8716,2.7394,2.4719,2.3182,2.2848,2.4894,2.5098,2.5844,0.0,2.968,2.9068,3.115,3.1771,3.2069,3.241,3.275,3.3039,3.3129,3.3117,3.3055,3.2961,3.3068,3.3291,3.3615,3.4049,3.4316,3.434,3.4672,3.4713,3.4298,3.5034,3.5339,3.4963,3.5366,3.566,3.5729,3.5795,3.588,3.6009,3.5995,3.5996,3.5993,3.5994,3.6004,3.5991,3.5991,3.6003,3.5995,3.5947,3.591,3.59,3.5685,3.5618,3.5508,3.452,3.4037,3.3863,3.3863,3.3826,3.3696,0.0,0.0,0.0,0.0,0.0,0.0,0.0,0.0,0.0,0.0,0.0,0.0,0.0,0.0,0.0,2.0908,2.2454,2.4065,2.5259,2.7185,2.9098,3.0828,3.0871,3.0773,3.0609,3.0526,3.0526,3.0526,3.0526,3.0526,3.051,3.0692,3.114,3.1677,3.1562,3.1894,3.2606,3.237,3.2387,3.2523,3.2573,3.2672,3.277,3.293,3.293,3.2872,3.2866,3.2881,0.0,3.2783,3.2621,3.2405,3.2122,3.1845,3.1405,3.029,2.9743,2.9278,2.8201,2.6548,2.5737,2.8192,2.8646,2.8998,3.0968,3.0802,3.0551,3.1721,3.2021,3.2231,3.2603,3.2766,3.2848,3.2961,3.3259,3.3303,3.2808,3.3241,3.3571,3.3452,3.377,3.4074,3.4221,3.463,3.4711,3.4245,3.4908,3.5209,3.4927,3.5234,3.5508,3.5693,3.5781,3.586,3.601,3.5992,3.5996,3.5996,3.6003,3.5996,3.6009,3.5999,3.6009,3.5995,3.5938,3.5856,3.5775,3.565,3.5543,3.5361,3.4254,3.3462,3.2936,3.2936,3.3072,3.3243,0.0,0.0,0.0,0.0,0.0,0.0,0.0,0.0,0.0,0.0,0.0,0.0,0.0,0.0,2.0662,1.9257,2.0993,2.2932,2.465,2.6828,2.8847,3.0707,3.0733,3.0733,3.0814,3.0651,3.0651,3.0797,3.0651,3.0634,3.0797,3.0975,3.1312,3.1768,3.1711,3.2038,3.2606,3.2454,3.2506,3.2672,3.2672,3.277,3.2916,3.2948,3.2957,3.2931,3.2782,3.2773,3.2754,3.2586,3.2381,3.2156,3.2107,3.1849,3.1397,3.0595,3.0152,2.9926,2.9964,2.8891,2.8233,3.0139,3.0903,3.119,3.119,3.119,3.1213,3.1449,3.1545,3.1677,3.2197,3.2351,3.2523,3.2938,3.3454,3.358,3.2945,3.3436,3.3723,3.3352,3.3494,3.3797,3.4173,3.4567,3.4649,3.4221,3.4773,3.5054,3.487,3.5111,3.5368,3.5631,3.571,3.582,3.5938,3.596,3.5971,3.5992,3.5995,3.5992,3.5996,3.5974,3.5976,3.5964,3.5873,3.5788,3.5685,3.5579,3.5316,3.4841,3.3758,3.2901,3.2204,3.1958,3.2194,3.2697,0.0,0.0,0.0,0.0,0.0,0.0,0.0,0.0,0.0,0.0,0.0,0.0,0.0,0.0,1.9538,1.895,2.1054,2.3054,2.4619,2.6837,2.8953,3.0908,3.0814,3.0855,3.119,3.0855,3.0958,3.1466,3.0958,3.0958,3.1483,3.1291,3.1445,3.1894,3.2109,3.2318,3.2606,3.2802,3.2884,3.2884,3.2884,3.2884,3.2916,3.3024,3.2845,3.2532,3.2721,3.2792,3.272,3.2279,3.2095,3.2061,3.1721,3.157,3.1372,3.068,2.9375,2.817,2.8117,2.8397,2.8837,2.9108,3.0206,3.119,3.119,3.1112,3.1015,3.1015,3.124,3.1397,3.1435,3.195,3.2597,3.3176,3.3583,3.3723,3.3494,3.3494,3.3455,3.3322,3.3321,3.3532,0.0,3.445,3.4495,3.4221,3.463,3.487,3.4812,3.5,3.5232,3.5495,3.5579,3.5657,3.5791,3.5869,3.5935,3.5991,3.5992,3.5992,3.5991,3.5935,3.5903,3.59,3.5762,3.5702,3.5685,3.5488,3.4798,3.375,3.2813,3.2184,3.1715,3.0875,3.1054,3.1807,0.0,0.0,0.0,0.0,0.0,0.0,0.0,0.0,0.0,0.0,0.0,0.0,0.0,0.0,0.0,0.0,1.9495,2.066,2.2399,2.4776,2.7058,2.9256,3.0811,3.1528,3.1274,3.1201,3.1218,3.1308,3.1112,3.1235,3.162,3.1785,3.2073,3.2437,3.2588,3.2705,3.2802,3.2737,3.2657,3.2592,3.2592,3.2707,3.2952,3.3269,3.3427,3.343,0.0,3.2433,3.1901,3.1758,3.1698,3.1677,3.1564,3.1482,3.1312,3.0675,2.9673,2.8894,2.9602,2.9753,2.9856,3.0375,3.087,3.119,3.1112,3.1015,3.0975,3.0935,3.0242,2.9779,3.0001,3.0332,3.0717,3.1175,3.258,3.3424,3.2845,3.3178,3.3455,3.3322,3.3291,0.0,0.0,0.0,0.0,3.4221,3.4498,3.4668,3.4607,3.4793,3.4994,3.5235,3.5419,3.563,3.5801,3.5819,3.586,3.5935,3.5935,3.5913,3.5868,3.5805,3.5788,3.583,3.5696,3.5579,3.55,3.5283,3.4617,3.3614,3.2446,3.192,3.1749,3.1265,3.1294,3.1655,0.0,0.0,0.0,0.0,0.0,0.0,0.0,0.0,0.0,0.0,0.0,0.0,0.0,0.0,0.0,0.0,0.0,1.8988,2.087,2.2483,2.4359,2.6467,2.8343,2.9143,2.8746,2.9736,3.0285,3.0302,3.0948,3.1428,3.1858,3.2109,3.2386,3.2687,3.2834,3.2948,3.2961,3.2834,3.277,3.2758,3.2897,3.3112,3.3337,3.3768,3.396,0.0,3.3444,3.2609,3.1678,3.1387,3.1382,3.1492,3.1507,3.1501,3.135,3.0546,3.0106,2.9976,3.0421,3.0546,3.0658,3.1111,3.119,3.1151,3.1015,3.0975,3.0952,3.0871,2.9749,2.8876,2.9149,2.9357,2.9761,3.0516,3.2383,3.3558,3.3104,3.3545,3.3774,3.3358,3.3291,3.3532,0.0,0.0,0.0,3.4221,3.4363,3.4473,3.4473,3.4651,3.4851,3.5021,3.5297,3.5538,3.567,3.5693,3.5741,3.5788,3.5788,3.5762,3.573,3.5674,3.5696,3.5729,3.5516,3.5366,3.5254,3.4687,3.3885,3.2938,3.2123,3.1741,3.1644,3.1488,3.1639,3.2031,0.0,0.0,0.0,0.0,0.0,0.0,0.0,0.0,0.0,0.0,0.0,0.0,0.0,0.0,0.0,0.0,0.0,0.0,1.9936,2.03,2.1178,2.2927,2.3906,2.4383,2.4232,2.6765,2.8269,2.86,3.032,3.1442,3.1969,3.2126,3.2313,3.2563,3.2773,3.2929,3.3033,3.3069,3.3196,3.3404,3.3844,3.4011,3.4058,3.4539,3.4491,3.4164,3.4141,3.3284,3.2053,3.1259,3.1225,3.1519,3.1525,3.1607,3.1459,3.0394,3.0648,3.1124,3.0518,3.0747,3.119,3.119,3.119,3.1151,3.1015,3.0952,3.0871,3.0733,2.9633,2.8709,2.8832,2.9026,2.9683,3.1222,3.2934,3.4098,3.4112,3.4379,3.427,3.3412,3.3291,3.3532,3.4148,3.4197,0.0,3.4197,0.0,3.4245,3.4363,3.4567,3.4733,3.4851,3.5216,3.5378,3.5391,3.5531,3.5607,3.5596,3.5607,3.5577,3.5566,3.5566,3.5566,3.5543,3.5205,3.5043,3.4914,3.3751,3.2692,3.1786,3.1764,3.1621,3.143,3.1458,3.1947,3.2719,0.0,0.0,0.0,0.0,0.0,0.0,0.0,0.0,0.0,0.0,0.0,0.0,0.0,0.0,0.0,0.0,0.0,0.0,1.8372,1.9963,2.1154,2.19,2.3785,2.4871,2.4921,2.5841,2.6693,2.7426,2.8369,2.9282,3.0179,3.0659,3.1307,3.2088,3.2029,3.204,3.2172,3.2776,3.3037,3.3109,3.3839,3.4213,3.4341,3.4818,3.5024,3.5027,3.467,3.3913,3.2982,3.2485,3.2145,3.1936,3.1957,3.1667,3.1316,3.1227,3.1069,3.0924,3.0963,3.1077,3.119,3.1072,3.1055,3.1015,3.0814,3.0773,3.0692,3.0568,2.8773,2.7672,2.9046,2.8452,2.8396,3.0369,3.1708,3.2557,3.2826,3.295,3.3066,3.3286,3.3291,3.3504,3.4074,3.4124,0.0,0.0,3.4099,3.4124,3.4099,3.4298,3.439,3.4367,3.4793,3.5086,3.5178,3.5463,3.5543,3.5457,3.5543,3.5476,3.5239,3.5239,3.5105,3.4916,3.4737,3.4298,3.3732,3.3272,3.2405,3.1427,3.1203,3.132,3.15,3.119,3.122,3.1485,0.0,0.0,0.0,0.0,0.0,0.0,0.0,0.0,0.0,0.0,0.0,0.0,0.0,0.0,0.0,0.0,0.0,0.0,0.0,1.8524,1.932,1.9418,2.1624,2.2551,2.1886,2.386,2.4942,2.505,2.6687,2.8079,2.9174,2.9973,3.0803,3.1641,3.1641,3.1734,3.19,3.232,3.2501,0.0,0.0,3.3635,3.3792,3.46,3.5001,3.512,3.5221,3.4705,3.3824,3.282,3.2449,3.2409,3.2408,3.2307,3.2119,3.191,3.1671,3.1446,3.1422,3.1329,3.1151,3.1015,3.1015,3.0811,3.0137,2.9988,2.9807,2.9146,2.7487,2.6545,2.7952,2.7592,2.7694,2.9717,3.128,3.2248,3.2414,3.2703,3.2945,3.3068,3.3214,3.339,3.3671,3.3805,3.3858,0.0,3.3954,3.4023,3.3947,3.4173,3.4269,3.4197,3.4526,3.4774,3.4851,3.5127,3.5209,3.5011,3.5073,3.5024,3.4851,3.4851,3.4737,3.4581,0.0,3.3504,3.2887,3.233,3.1649,3.0976,3.1142,3.1381,3.1578,3.1287,3.1124,3.1004,0.0,0.0,0.0,0.0,0.0,0.0,0.0,0.0,0.0,0.0,0.0,0.0,0.0,0.0,0.0,0.0,0.0,0.0,0.0,0.0,1.698,1.6925,1.8737,1.9189,1.8044,2.1398,2.3033,2.2849,2.5346,2.7214,2.8579,2.9644,3.0527,3.121,3.1383,3.1582,3.1832,3.1825,3.1916,3.2127,3.2667,3.2868,3.2998,0.0,0.0,3.4785,3.5439,3.5215,3.4361,3.267,3.2451,3.2877,3.2878,3.3109,3.3223,3.2447,3.226,3.2214,3.1768,3.1428,3.1151,3.1015,3.0975,3.0654,2.9403,2.91,2.8681,2.7301,2.6096,2.5577,2.6634,2.6795,2.7419,2.9508,3.1283,3.2422,3.2427,3.2956,3.3195,3.282,3.3032,3.3184,3.3166,3.3354,3.3468,3.3429,3.3725,3.3921,3.3895,3.4124,3.4221,3.4197,3.4371,3.4464,3.4508,3.4733,3.4733,3.4508,3.4508,3.4486,3.4464,3.4464,3.4442,3.436,0.0,0.0,3.236,3.1402,3.0812,3.0635,3.1293,3.1551,3.1614,3.1566,3.1274,3.0824,0.0,0.0,0.0,0.0,0.0,0.0,0.0,0.0,0.0,0.0,2.0153,1.9119,0.0,0.0,0.0,0.0,0.0,0.0,0.0,0.0,0.0,1.7544,1.7813,1.8631,2.0147,1.9838,2.1164,2.425,2.4425,2.5658,2.7896,2.8909,2.9878,3.0714,3.064,3.0722,3.0967,3.1617,3.1929,3.2092,3.2882,3.3245,3.3327,3.3549,0.0,0.0,3.4062,3.4004,3.3989,3.2572,3.2611,3.3304,3.3294,3.3335,3.325,3.2517,3.2294,3.2144,3.1466,3.1252,3.1151,3.0952,3.0912,3.059,2.9313,2.9025,2.8572,2.695,2.5509,2.5289,2.7643,2.6842,2.6977,3.0445,3.1183,3.1443,3.1938,3.2264,3.2493,3.2669,3.2766,3.2844,3.2934,3.2978,0.0,0.0,0.0,3.3578,3.3868,3.3895,3.3972,3.4197,3.4227,3.4325,3.4508,3.4551,3.4551,3.4508,3.4508,3.4398,3.425,3.425,3.413,3.3902,0.0,0.0,3.2127,3.1673,3.1284,3.0999,3.1122,3.141,3.1738,3.1325,3.0931,3.0584,0.0,0.0,0.0,0.0,0.0,0.0,0.0,2.3418,2.2862,2.1945,2.1266,2.0273,1.8821,1.8226,0.0,0.0,0.0,0.0,0.0,0.0,0.0,0.0,0.0,0.0,2.0356,2.0169,2.109,2.3247,0.0,2.5062,2.7054,2.8553,2.9679,3.0445,3.0445,3.0525,3.0681,3.1093,3.1282,3.1368,3.1823,3.2027,0.0,0.0,0.0,0.0,3.3555,3.3406,3.3271,3.2144,3.2379,3.3128,3.3339,3.3393,3.3334,3.2975,3.2586,3.2214,3.1877,3.1466,3.1055,3.0952,3.0871,3.0351,2.8558,2.8065,2.7408,2.5162,2.391,2.3718,2.5538,2.5167,2.5496,2.8231,2.9375,3.0066,3.0514,3.1325,3.1966,3.2214,3.2504,3.2636,3.2401,3.2535,3.2601,3.2553,0.0,3.3032,3.355,3.3734,3.3842,3.3998,3.4124,3.4179,3.4136,3.4279,3.4279,3.4117,3.3949,3.3821,3.3725,3.357,3.3382,3.3255,3.2661,0.0,3.1622,3.1434,3.1159,3.0924,3.1307,3.16,3.1746,3.1278,3.1004,3.0788,0.0,0.0,0.0,0.0,0.0,0.0,0.0,2.4226,2.3695,2.2738,2.2278,2.1404,1.9726,1.8858,1.833,0.0,0.0,0.0,0.0,0.0,0.0,0.0,0.0,0.0,0.0,0.0,0.0,2.3107,2.3929,0.0,0.0,0.0,0.0,0.0,3.0417,3.0466,3.0339,3.0579,3.0662,0.0,0.0,3.0774,0.0,0.0,0.0,0.0,0.0,3.2949,3.2561,3.1768,3.1959,3.2576,3.2965,3.314,3.3169,3.3121,3.2612,3.2106,3.2161,3.162,3.0975,3.0912,3.079,3.0129,2.7897,2.7201,2.6236,2.3541,2.2337,2.2088,2.323,2.3465,2.4041,2.5802,2.747,2.8665,2.9123,3.0347,3.1319,3.1728,3.2214,3.2335,3.1912,3.2127,0.0,3.2179,0.0,0.0,3.3243,3.3625,3.3807,3.3807,3.3998,3.4023,3.3788,3.3998,3.3998,3.3807,3.3522,3.3379,3.3291,3.2852,3.2608,3.2509,3.1649,0.0,0.0,3.1077,3.0977,3.0989,3.1448,3.1634,3.1596,3.1257,3.1044,3.0965,0.0,0.0,0.0,0.0,0.0,0.0,0.0,2.4503,2.3764,2.3593,2.2612,2.1757,2.1309,2.0295,1.9413,0.0,0.0,0.0,0.0,0.0,0.0,0.0,0.0,0.0,0.0,0.0,0.0,2.6618,2.5594,0.0,0.0,0.0,0.0,0.0,0.0,3.0209,2.9479,3.0269,0.0,0.0,0.0,0.0,0.0,0.0,0.0,0.0,0.0,3.2285,3.2187,3.1672,3.1515,3.1607,3.1986,3.2312,3.2429,3.2216,3.1768,3.1454,3.1705,3.1411,3.0975,3.0912,3.079,3.0088,2.7821,2.7015,2.5942,2.3152,2.1727,2.1457,2.296,2.2944,2.336,2.5348,2.6582,2.7624,2.8632,2.9334,3.0251,3.1493,3.1765,3.1856,3.1819,3.1875,3.1912,3.1856,0.0,0.0,3.3243,3.3625,3.3807,3.3807,3.3815,3.3815,3.3807,3.3815,3.3815,3.3807,3.3762,3.3578,3.3273,3.2578,3.2079,3.1755,0.0,0.0,0.0,3.0872,3.1112,3.166,3.13,3.1162,3.1162,3.1123,3.0885,3.0601,0.0,0.0,0.0,0.0,0.0,0.0,2.6735,2.5987,2.5232,2.4678,2.3879,2.2915,2.1795,2.1424,2.0703,0.0,0.0,0.0,0.0,0.0,0.0,0.0,0.0,0.0,0.0,0.0,2.2245,2.5185,2.6083,0.0,0.0,0.0,0.0,0.0,0.0,2.9652,2.9326,2.9664,0.0,0.0,0.0,0.0,0.0,0.0,0.0,0.0,0.0,0.0,3.1378,3.1106,3.119,3.1345,3.1073,3.1071,3.1348,3.2125,3.1899,3.1462,3.1917,3.1507,3.0935,3.0912,3.0733,3.0005,2.783,2.6914,2.5674,2.2673,2.1487,2.1125,2.1437,2.1685,2.2181,2.3285,2.443,2.5635,2.702,2.8025,2.9288,3.1038,3.1372,3.1579,3.1839,0.0,3.1819,0.0,0.0,0.0,3.2684,3.3032,3.3196,3.3196,3.3196,3.3196,3.3196,3.3408,3.3494,3.3494,3.3494,3.3096,3.2331,3.1813,3.1154,3.0342,0.0,0.0,0.0,3.0167,3.0323,3.0381,3.062,3.0764,3.0707,3.0418,3.0377,3.0477,0.0,0.0,0.0,0.0,0.0,2.7899,2.7809,2.7211,2.6543,2.5921,2.5197,2.4272,2.3013,2.258,2.1766,2.0231,0.0,0.0,0.0,0.0,0.0,0.0,0.0,0.0,0.0,0.0,2.3079,2.4921,2.6741,2.7684,0.0,0.0,3.001,2.8925,0.0,0.0,0.0,0.0,0.0,0.0,0.0,0.0,0.0,0.0,0.0,0.0,0.0,0.0,0.0,0.0,0.0,3.1027,3.0464,3.0248,3.0493,3.1844,3.1681,3.1211,3.1968,3.1545,3.0912,3.0871,3.0484,2.9601,2.7624,2.6526,2.506,2.2236,2.1147,2.0602,2.0278,2.0661,2.1086,2.1246,2.2733,2.4214,2.5033,2.6394,2.791,2.9576,3.0166,3.0673,3.1239,3.1664,3.1856,0.0,0.0,0.0,0.0,3.2369,3.2619,3.2795,3.2795,3.2795,3.2795,3.3014,3.3154,3.3154,3.2919,3.2373,3.1529,3.0832,3.0031,2.9161,0.0,0.0,0.0,2.9197,2.9332,2.9315,2.9591,2.9799,2.9955,2.9615,2.9831,3.0267,0.0,0.0,0.0,0.0,0.0,0.0,2.8491,2.7859,2.739,2.7381,2.6456,2.5679,2.5397,2.3886,2.2553,2.1752,0.0,0.0,0.0,0.0,0.0,0.0,0.0,0.0,0.0,0.0,2.4704,2.7245,2.7903,2.883,3.0075,3.0429,2.9666,2.8055,0.0,0.0,0.0,0.0,0.0,0.0,0.0,0.0,0.0,0.0,0.0,0.0,0.0,0.0,0.0,0.0,0.0,0.0,0.0,3.0028,3.0018,3.1117,3.0803,3.0381,3.1585,3.1428,3.0871,3.0749,2.9906,2.8697,2.7056,2.5643,2.4,2.1766,2.0515,1.9806,1.97,2.0069,2.0229,1.9628,2.1995,2.3644,2.2857,2.4414,2.5955,2.6867,2.7812,2.882,2.9804,3.1246,0.0,0.0,0.0,0.0,0.0,3.18,3.2109,3.2763,3.2795,3.2795,3.2795,3.2795,3.2795,3.2795,3.2076,3.1546,3.1142,2.9624,2.8753,0.0,0.0,0.0,0.0,2.7981,2.8283,2.8904,2.8073,2.8167,2.8842,2.8799,2.9237,2.981,0.0,0.0,0.0,0.0,0.0,0.0,0.0,2.8537,2.8107,2.8154,2.7499,2.6724,2.5904,2.5213,2.4145,2.2458,0.0,0.0,0.0,0.0,0.0,0.0,0.0,0.0,0.0,0.0,0.0,2.5439,2.683,2.7748,2.8202,2.9194,2.9064,2.8003,2.8274,2.8231,0.0,0.0,0.0,0.0,0.0,0.0,0.0,0.0,0.0,0.0,0.0,0.0,0.0,0.0,0.0,0.0,0.0,0.0,0.0,2.9609,2.96,2.955,2.9627,2.9196,2.8515,2.7699,2.7404,2.6897,2.529,2.4331,2.3171,2.1096,2.0224,1.9656,1.9173,1.9549,2.0185,2.0992,2.1866,2.2819,2.4032,2.5535,2.6949,2.795,2.9436,3.0578,0.0,0.0,0.0,0.0,0.0,0.0,0.0,3.1875,3.193,3.2109,3.2109,3.2109,3.2109,3.2335,3.2206,3.1694,3.1716,3.096,2.9624,2.9114,0.0,0.0,0.0,0.0,0.0,2.7341,2.7363,2.7361,2.7322,2.7408,2.7657,2.7657,2.8045,2.8634,0.0,0.0,0.0,0.0,0.0,0.0,0.0,2.9025,2.882,2.8928,2.8354,2.773,2.7191,2.6333,2.5243,2.3828,0.0,0.0,0.0,0.0,0.0,0.0,0.0,0.0,0.0,2.4454,2.4833,2.528,2.6718,2.7484,2.7626,2.8727,2.8817,2.8042,2.8036,2.8205,0.0,0.0,0.0,0.0,0.0,0.0,3.069,0.0,0.0,0.0,0.0,0.0,0.0,0.0,0.0,0.0,0.0,0.0,0.0,0.0,2.8381,2.8375,2.8115,2.7622,2.7071,2.6455,2.6031,2.5448,2.4245,2.3325,2.2178,2.0288,1.9666,1.9273,1.8575,1.8956,1.9584,2.0206,2.1467,2.262,2.3331,2.5411,2.7226,2.8216,2.9633,0.0,0.0,0.0,0.0,0.0,0.0,0.0,0.0,3.1948,3.1875,3.1856,3.1819,3.18,3.18,3.1741,3.1463,3.101,3.0645,2.9836,2.8687,2.8439,0.0,0.0,0.0,0.0,0.0,2.6991,2.6763,2.6401,2.6479,2.656,2.6688,2.6688,2.713,2.7762,0.0,0.0,0.0,0.0,0.0,0.0,0.0,0.0,2.9493,2.9681,2.9089,2.8717,2.8994,2.7351,2.6044,2.5578,0.0,0.0,0.0,0.0,0.0,0.0,0.0,0.0,0.0,2.519,2.5951,2.6332,2.7277,2.7879,2.8139,2.8941,2.8914,2.8196,2.8133,2.848,0.0,0.0,0.0,0.0,0.0,0.0,0.0,0.0,0.0,0.0,0.0,0.0,0.0,0.0,0.0,0.0,0.0,0.0,0.0,0.0,0.0,0.0,0.0,2.6504,2.6262,2.6433,2.5456,2.4337,2.3701,2.254,0.0,1.939,1.8975,1.8658,1.8018,1.8412,1.8589,1.7963,2.0938,2.2838,2.1373,2.4326,2.6976,2.7942,2.8809,0.0,3.0517,0.0,0.0,0.0,0.0,0.0,0.0,3.1984,3.1894,3.1858,3.1768,3.1714,3.1714,3.1041,3.0627,3.0506,2.9075,2.8368,2.8299,2.7609,0.0,0.0,0.0,0.0,0.0,2.6842,2.647,2.6104,2.5689,2.5709,2.5955,2.593,2.6388,2.7115,0.0,0.0,0.0,0.0,0.0,0.0,0.0,0.0,0.0,0.0,2.9832,2.964,2.9187,2.8773,2.7806,0.0,0.0,0.0,0.0,0.0,0.0,0.0,0.0,0.0,0.0,2.513,2.5514,2.5705,2.6646,2.7493,2.8261,2.9074,2.9355,2.9138,2.8423,0.0,0.0,0.0,0.0,0.0,0.0,0.0,0.0,0.0,0.0,0.0,3.0798,3.0795,0.0,0.0,0.0,0.0,0.0,0.0,0.0,0.0,2.5775,2.4733,2.3836,0.0,2.4397,2.3326,2.3299,2.3325,0.0,2.1656,2.0798,1.9803,1.8934,1.8314,1.8228,1.8098,1.8343,1.936,2.1178,2.2546,2.2729,2.515,2.7504,2.9147,2.9534,2.9858,3.0318,0.0,0.0,0.0,0.0,0.0,0.0,3.2037,3.1984,3.1691,3.125,3.0992,3.0955,3.0782,3.011,2.8937,2.8575,2.8092,2.754,2.7368,0.0,0.0,0.0,0.0,2.6842,2.6725,2.6657,2.6505,2.5799,2.554,2.5587,2.5322,2.5661,2.6277,0.0,0.0,0.0,0.0,0.0,0.0,0.0,0.0,0.0,0.0,0.0,0.0,0.0,0.0,0.0,0.0,0.0,0.0,0.0,0.0,0.0,0.0,0.0,0.0,2.4885,2.5196,2.5413,2.5546,2.6486,2.7208,2.7733,2.8965,2.955,2.9528,2.8973,0.0,0.0,0.0,0.0,0.0,2.9277,0.0,0.0,0.0,0.0,0.0,3.0827,3.0793,0.0,2.9465,2.8978,2.8752,0.0,0.0,0.0,0.0,2.5291,2.3979,2.2674,2.2811,2.3178,2.2489,2.2638,2.2712,2.1737,2.1151,2.0498,1.935,1.8685,1.8347,1.8319,1.8698,1.9045,1.9072,2.1617,2.4061,2.5383,2.6146,2.7288,2.9265,2.9661,2.9881,0.0,0.0,0.0,0.0,0.0,0.0,0.0,3.1893,3.1737,3.1119,3.0815,3.0537,3.0299,2.9867,2.9145,2.8117,2.7975,2.7597,2.7023,2.7023,0.0,0.0,0.0,0.0,2.6419,2.6419,2.6419,2.635,2.5726,2.5503,2.5465,2.5107,2.5243,2.5582,0.0,0.0,0.0,0.0,0.0,0.0,0.0,0.0,0.0,0.0,0.0,0.0,0.0,0.0,0.0,0.0,0.0,0.0,0.0,0.0,0.0,0.0,0.0,2.5178,2.509,2.5313,2.549,2.5616,2.6676,2.7199,2.7245,2.8984,2.9726,2.9588,2.9406,2.8427,0.0,0.0,0.0,0.0,2.9012,0.0,0.0,0.0,0.0,0.0,0.0,0.0,0.0,2.9004,2.8433,2.8188,2.7885,0.0,0.0,0.0,0.0,0.0,2.2377,2.2347,2.2683,2.2774,2.2894,2.272,2.1701,2.1133,2.0396,1.8913,1.859,1.8559,1.8675,1.9526,1.9852,1.8673,2.2181,2.5808,2.8008,2.7178,2.6995,2.8794,2.9348,0.0,0.0,0.0,0.0,0.0,0.0,0.0,0.0,3.1531,3.1207,3.0426,3.0225,2.987,2.9337,2.868,2.8117,2.7674,2.7413,2.7105,2.6808,2.6725,2.647,0.0,0.0,0.0,2.6016,2.6052,2.6104,2.6052,2.5652,2.5503,2.5465,2.5107,2.5005,2.5116,0.0,0.0,0.0,0.0,0.0,0.0,0.0,0.0,0.0,0.0,0.0,0.0,0.0,0.0,0.0,0.0,0.0,0.0,0.0,0.0,0.0,0.0,2.5379,2.5414,2.5511,2.554,2.561,2.5683,2.7315,2.8108,2.8149,2.9881,3.031,2.9569,2.8811,2.793,2.6942,0.0,0.0,0.0,0.0,0.0,0.0,0.0,0.0,0.0,0.0,0.0,0.0,2.7436,2.6702,2.6493,2.606,0.0,0.0,0.0,0.0,0.0,2.1936,2.2802,2.3727,2.2923,2.3499,2.4009,2.3225,2.2236,2.1204,2.0189,1.9301,1.9024,2.0251,1.9428,1.9156,2.0909,2.2895,2.5127,0.0,0.0,2.7618,2.8321,0.0,0.0,0.0,0.0,0.0,0.0,0.0,0.0,0.0,0.0,3.0401,3.0019,2.8949,2.7986,2.7157,2.782,2.7793,2.7112,2.7238,2.7267,2.7186,2.6842,2.647,0.0,0.0,2.5908,2.5615,2.5944,2.6104,2.6052,2.5652,2.5503,2.5465,2.5107,2.5005,2.5116,0.0,0.0,0.0,0.0,0.0,0.0,0.0,0.0,0.0,0.0,0.0,0.0,0.0,0.0,0.0,0.0,0.0,0.0,0.0,0.0,0.0,2.5605,2.5531,2.5556,2.5643,2.5615,2.5636,2.5696,2.744,2.8293,2.834,3.0075,3.0437,2.9581,2.9171,2.8254,2.7003,2.7084,2.7279,2.7649,0.0,0.0,0.0,0.0,0.0,0.0,0.0,0.0,0.0,0.0,2.6189,2.5966,2.556,0.0,0.0,0.0,0.0,0.0,2.1803,2.2329,2.3131,2.3401,2.476,2.577,2.4914,2.4317,2.3402,2.1451,2.068,2.046,2.0845,2.0909,2.1772,2.4481,2.3995,2.4394,2.7493,2.703,2.6752,0.0,0.0,0.0,0.0,0.0,0.0,0.0,0.0,0.0,0.0,0.0,2.9648,2.8652,2.8127,2.7429,2.6541,2.685,2.6736,2.6191,2.6725,2.6842,2.6657,2.647,2.6175,2.5762,0.0,2.5384,2.523,2.5422,2.5594,2.5726,2.5384,2.5329,2.5465,2.5107,2.5005,2.5053,0.0,0.0,0.0,0.0,0.0,0.0,0.0,0.0,0.0,0.0,0.0,0.0,0.0,0.0,0.0,0.0,0.0,0.0,0.0,0.0,2.5595,2.5604,2.5605,2.561,2.5687,2.5648,2.5648,2.5691,2.7229,2.8201,2.8644,3.0179,3.0545,2.9877,2.9687,2.8867,2.7649,2.8108,2.8032,2.7735,0.0,0.0,0.0,0.0,0.0,0.0,0.0,0.0,0.0,0.0,0.0,0.0,0.0,0.0,0.0,2.41,2.3319,2.2286,2.1702,2.1956,2.2721,2.4079,2.5623,2.6691,2.6255,2.6097,2.5406,2.3081,2.2464,2.2159,2.1618,2.2571,2.4139,2.6169,2.4916,2.4567,2.724,2.6594,0.0,0.0,0.0,0.0,0.0,0.0,0.0,0.0,0.0,0.0,0.0,0.0,2.8749,2.7501,2.7408,2.6987,2.6225,2.6049,2.5852,2.5652,2.6385,2.6539,2.6245,2.6158,2.5944,2.5615,2.5185,2.5005,2.5005,2.5005,2.513,2.5368,2.5107,2.5185,2.5368,2.5169,2.5084,2.5005,0.0,0.0,0.0,0.0,0.0,0.0,0.0,0.0,0.0,0.0,0.0,0.0,0.0,0.0,0.0,0.0,0.0,0.0,0.0,0.0,2.5593,2.5604,2.5604,2.5604,2.5609,2.5656,2.5707,2.5701,2.6637,2.7924,2.9531,3.0458,3.0841,3.0682,2.9923,2.9533,2.9357,2.8626,2.8722,2.9416,2.9552,0.0,0.0,0.0,0.0,0.0,0.0,0.0,0.0,0.0,0.0,0.0,0.0,0.0,2.3955,2.3307,2.2755,2.2258,2.1598,2.2345,2.3651,2.5035,2.5426,2.571,2.6844,2.6677,2.6118,2.5462,2.4502,2.3697,2.3443,2.3868,2.4003,2.3431,2.5058,2.6674,2.7494,0.0,0.0,0.0,0.0,0.0,0.0,0.0,0.0,0.0,0.0,0.0,0.0,0.0,0.0,2.7317,2.667,2.6109,2.5637,2.5637,2.5791,2.6052,2.6573,2.6758,2.6657,2.6333,2.6158,2.6033,2.5323,2.5005,2.5005,2.5005,2.5005,2.5045,2.5005,2.5005,2.5068,2.5368,2.5269,2.5005,0.0,0.0,0.0,0.0,0.0,0.0,0.0,0.0,0.0,0.0,0.0,0.0,0.0,0.0,0.0,0.0,0.0,0.0,0.0,0.0,2.5662,2.5668,2.5668,2.5632,2.5604,2.5617,2.5668,2.5697,2.6562,2.7618,2.8807,2.9686,3.005,2.9999,3.0274,3.0084,2.9542,2.982,2.9782,2.9607,2.9604,3.0128,0.0,0.0,0.0,0.0,0.0,0.0,0.0,0.0,2.5047,2.4629,2.4284,2.3999,2.3671,2.3021,2.2485,2.2022,2.1524,2.2411,2.3821,2.5322,2.6346,2.7387,2.876,2.889,2.8253,2.6549,2.596,2.5226,2.354,2.4923,2.5938,2.4629,2.6022,2.7357,0.0,0.0,0.0,0.0,0.0,0.0,0.0,0.0,0.0,0.0,0.0,0.0,0.0,0.0,0.0,2.6617,2.6352,2.6148,2.5987,2.584,2.5844,2.5974,2.5997,2.6052,2.6139,2.5872,2.5746,2.5689,2.5208,2.5005,2.5005,2.5005,2.5005,2.5005,2.5005,2.5005,2.5005,2.513,2.5107,2.5005,0.0,0.0,0.0,0.0,0.0,0.0,0.0,0.0,0.0,0.0,0.0,0.0,0.0,0.0,0.0,0.0,0.0,0.0,0.0,2.5682,2.5705,2.5709,2.5707,2.5683,2.5628,2.564,2.5644,2.5664,2.6541,2.7287,2.7902,2.8789,2.9314,2.9556,3.0208,3.0292,2.9976,3.0603,3.037,2.9629,2.9901,3.0195,0.0,0.0,0.0,0.0,0.0,0.0,0.0,0.0,2.4979,2.4613,2.4211,2.3842,2.3437,2.2873,2.2709,2.2672,2.2322,2.2818,2.3953,2.5966,2.683,2.7767,2.9763,3.0231,2.9835,2.8142,2.7241,2.614,2.4103,2.5435,2.65,0.0,2.6594,2.7625,0.0,0.0,0.0,0.0,0.0,0.0,0.0,0.0,0.0,0.0,0.0,0.0,0.0,0.0,0.0,0.0,2.622,2.6168,2.6096,2.597,2.5897,2.5897,2.5589,2.5556,2.5779,2.5689,2.5615,2.5465,2.5146,2.5005,2.5005,2.5005,2.5005,2.5005,2.5107,2.5107,2.5005,2.5107,2.5068,2.5005,0.0,0.0,0.0,0.0,0.0,0.0,0.0,0.0,0.0,0.0,0.0,0.0,0.0,0.0,0.0,0.0,0.0,0.0,2.5601,2.5663,2.5698,2.5694,2.5701,2.5701,2.5699,2.5707,2.5679,2.561,2.6474,2.6926,2.701,2.7889,2.8749,2.9567,2.9581,3.0076,3.0875,3.082,3.0332,2.9687,3.0527,3.0367,2.9511,0.0,0.0,0.0,0.0,0.0,0.0,0.0,2.5418,2.453,2.4136,2.378,2.3392,2.2873,2.3471,2.4223,2.4032,2.3701,2.4142,2.7134,2.6597,2.6212,2.945,3.0359,3.0485,3.0485,2.8415,2.6331,2.5476,2.5236,2.525,2.5301,2.6594,0.0,0.0,0.0,0.0,0.0,0.0,0.0,0.0,0.0,0.0,0.0,0.0,0.0,0.0,0.0,0.0,0.0,2.622,2.6096,2.5881,2.5897,2.5897,2.5897,2.5524,2.5492,2.5815,2.5924,2.5815,2.5465,2.513,2.5005,2.5005,2.5005,2.5005,2.5045,2.5368,2.5307,2.5045,2.5368,2.5269,2.5045,0.0,0.0,0.0,0.0,0.0,0.0,0.0,0.0,0.0,0.0,0.0,0.0,0.0,0.0,0.0,0.0,0.0,0.0,2.5662,2.5699,2.5703,2.5702,2.5707,2.5704,2.571,2.566,2.5632,2.5671,2.5933,2.6077,2.6094,2.6984,2.75,2.7751,2.9021,2.9725,2.9959,3.0541,3.0657,3.0362,2.9433,2.9625,3.0155,0.0,0.0,0.0,0.0,0.0,0.0,0.0,0.0,0.0,2.402,2.3631,2.3253,2.2712,2.2575,2.2578,2.2368,2.3769,2.5491,2.629,2.7738,2.919,3.0203,3.007,2.9689,2.9528,2.8264,2.6871,2.6015,2.6444,0.0,2.5449,0.0,0.0,0.0,0.0,0.0,0.0,0.0,0.0,0.0,0.0,0.0,0.0,0.0,0.0,0.0,0.0,0.0,0.0,2.622,2.6168,2.6096,2.6096,2.6096,2.6096,2.5987,2.5897,2.5864,2.5476,2.5339,2.5339,2.5123,2.5005,2.5005,2.5005,2.5005,2.5005,2.5107,2.5068,2.5005,2.5107,2.5146,2.5217,0.0,0.0,0.0,0.0,0.0,0.0,0.0,0.0,0.0,0.0,0.0,0.0,0.0,0.0,0.0,0.0,0.0,0.0,0.0,0.0,2.5703,2.5703,2.5693,2.5707,2.5694,2.5664,2.5664,2.5691,2.5703,2.5703,2.5707,2.6239,2.6835,2.75,2.86,2.9442,3.0099,3.0586,3.0628,3.0267,2.9597,2.9519,2.9589,0.0,0.0,0.0,0.0,0.0,0.0,0.0,0.0,0.0,2.3883,2.3455,2.3119,2.3292,2.3472,2.3749,2.4216,2.5601,2.7031,2.7591,2.8652,2.9675,3.0126,3.0011,2.9733,2.9438,2.8842,2.8121,2.7426,2.778,0.0,0.0,0.0,0.0,0.0,0.0,0.0,0.0,0.0,0.0,0.0,0.0,0.0,0.0,0.0,0.0,0.0,0.0,0.0,0.0,2.622,2.622,2.622,2.622,2.622,2.622,2.6132,2.6059,2.6007,2.5546,2.5394,2.5394,2.5201,2.5084,2.5005,2.5005,2.5005,2.5005,2.5005,2.5068,2.5208,2.5162,2.5278,2.5492,0.0,0.0,0.0,0.0,0.0,0.0,0.0,0.0,0.0,0.0,0.0,0.0,0.0,0.0,0.0,0.0,0.0,0.0,0.0,0.0,2.5699,2.57,2.5697,2.569,2.5694,2.5691,2.5697,2.5707,2.5691,2.5703,2.5707,2.5694,2.6542,2.8065,2.8231,2.9179,3.0675,3.076,3.037,2.9767,3.0411,2.9754,2.8374,2.8072,0.0,0.0,0.0,0.0,0.0,0.0,0.0,0.0,2.3759,2.3253,2.3024,2.4086,2.5226,2.6393,2.7724,2.8119,2.8458,2.9939,2.9312,2.8608,2.9648,3.0199,3.0384,2.9897,2.9766,2.9617,2.9212,2.912,2.9074,0.0,0.0,0.0,0.0,0.0,0.0,0.0,0.0,0.0,0.0,0.0,0.0,0.0,0.0,0.0,0.0,0.0,0.0,0.0,2.622,2.622,2.622,2.622,2.622,0.0,2.6007,2.6007,2.6168,2.597,2.577,2.5584,2.541,2.5217,2.5021,2.5005,2.5005,2.5005,2.5045,2.5246,2.5519,2.5416,2.5589,2.5905,0.0,0.0,0.0,0.0,0.0,0.0,0.0,0.0,0.0,0.0,0.0,0.0,0.0,0.0,0.0,0.0,0.0,0.0,0.0,0.0,2.5696,2.5702,2.5693,2.5707,2.5694,2.5707,2.5707,2.5697,2.5691,2.5701,2.5701,2.5698,2.5898,2.6328,2.7684,2.8518,2.8932,3.025,3.0703,3.0443,2.9311,2.9019,2.9028,2.6957,2.6466,0.0,0.0,0.0,0.0,0.0,0.0,0.0,2.3759,2.3259,2.2867,2.2856,2.3755,2.4729,2.4862,2.6617,2.8461,2.8642,2.9336,3.0046,3.0318,3.0426,3.0384,2.9897,2.9483,2.9348,2.9617,2.9348,2.8982,0.0,0.0,0.0,0.0,0.0,0.0,0.0,0.0,0.0,0.0,0.0,0.0,0.0,0.0,0.0,0.0,0.0,0.0,2.6168,2.622,2.622,2.622,2.622,2.622,0.0,2.6168,2.6168,2.6184,2.5807,2.5659,2.56,2.5371,2.5294,2.5201,2.5045,2.5005,2.5045,2.5416,2.5589,2.5684,2.6033,2.6315,2.6505,0.0,0.0,0.0,0.0,0.0,0.0,0.0,0.0,0.0,0.0,0.0,0.0,0.0,0.0,0.0,0.0,0.0,0.0,0.0,0.0,0.0,2.5698,2.5705,2.5707,2.5694,2.5697,2.5707,2.5696,2.5696,2.5696,2.5693,2.5699,2.5918,2.6367,2.7274,2.8145,2.8947,2.9406,2.9841,3.0117,2.8824,2.8303,2.8148,2.6743,2.6247,2.6207,2.5577,0.0,0.0,0.0,0.0,0.0,0.0,0.0,2.3014,2.3335,2.3823,2.4511,2.5793,2.7251,2.8578,2.9161,2.9922,3.0526,3.0526,3.0526,3.0426,3.0215,2.9941,2.9853,3.007,2.9941,0.0,0.0,0.0,0.0,0.0,0.0,0.0,0.0,0.0,0.0,0.0,0.0,0.0,0.0,0.0,0.0,0.0,2.4799,2.5192,2.5848,2.6079,2.622,2.622,2.622,2.622,2.622,2.622,2.622,2.6168,2.597,2.5824,2.5749,2.5637,2.5546,2.5432,2.5355,2.5378,2.5513,2.5758,2.6033,2.6298,2.6488,2.6708,2.6923,0.0,0.0,0.0,0.0,0.0,0.0,0.0,0.0,0.0,0.0,0.0,0.0,0.0,0.0,0.0,0.0,0.0,0.0,0.0,0.0,0.0,0.0,2.569,2.5687,2.5687,2.5687,2.5701,2.5691,2.5693,2.5705,2.5704,2.57,2.6074,2.6777,2.6921,2.7889,2.9338,2.8611,2.8791,2.9505,2.8494,2.7636,2.6954,2.6751,2.6233,2.5585,2.5398,2.5265,2.5171,2.4842,0.0,0.0,0.0,0.0,2.3212,2.399,2.4225,2.4828,2.7394,2.8395,2.9036,3.0228,3.0526,3.0526,3.0526,3.0526,3.0526,3.0526,3.0526,3.0526,3.0526,0.0,0.0,0.0,0.0,0.0,0.0,0.0,0.0,0.0,0.0,0.0,0.0,0.0,0.0,0.0,0.0,0.0,2.4261,2.4679,2.5082,2.5503,2.5954,2.622,2.622,2.622,2.622,2.622,2.622,2.622,2.622,2.622,2.6096,2.597,2.5934,2.5807,2.5642,2.568,2.5811,2.6013,2.6139,2.6471,2.6888,2.6873,2.7053,2.7276,0.0,0.0,0.0,0.0,0.0,0.0,0.0,0.0,0.0,0.0,2.5459,0.0,0.0,0.0,0.0,0.0,0.0,0.0,0.0,0.0,0.0,2.5613,2.566,2.566,2.5609,2.5668,2.5707,2.5701,2.5705,2.5709,2.5693,2.5703,2.5758,2.5907,2.6665,2.7542,2.8479,2.8359,2.8803,2.9464,2.7835,2.707,2.6837,2.6069,2.5707,2.5576,2.5434,2.5339,2.5245,2.4974,2.47,0.0,0.0,0.0,2.3194,2.2859,2.3573,2.4753,2.6057,2.8285,3.0278,3.0477,3.0526,3.0526,3.0526,3.0526,3.0526,3.0526,3.0526,3.0526,3.0526,0.0,0.0,0.0,0.0,0.0,0.0,0.0,0.0,0.0,0.0,0.0,0.0,0.0,0.0,0.0,0.0,0.0,2.4261,2.4679,2.5082,2.5503,2.5954,2.622,2.622,2.622,2.622,2.622,2.622,2.622,2.622,2.622,2.6184,2.6132,2.597,2.5881,2.5844,2.5921,2.5977,2.6068,2.6623,2.692,2.7017,2.7426,2.7595,2.7642,0.0,0.0,0.0,0.0,0.0,0.0,0.0,0.0,0.0,0.0,0.0,2.5586,0.0,0.0,0.0,0.0,0.0,0.0,0.0,0.0,0.0,2.5576,2.5204,2.4959,2.4934,2.4957,2.4978,2.4967,2.5465,2.5703,2.5702,2.5698,2.5699,2.5722,2.6099,2.6761,2.7531,2.7059,2.735,2.8034,2.6788,2.6815,2.7491,2.6119,2.6173,2.687,2.5836,2.5395,2.5264,2.5082,2.4804,2.4489,2.4118,0.0,0.0,0.0,2.3052,2.3795,2.5712,2.8307,3.0526,3.0526,3.0526,3.0526,3.0526,3.0526,3.0526,3.0526,3.0526,3.0526,0.0,0.0,0.0,0.0,0.0,0.0,0.0,0.0,0.0,0.0,0.0,0.0,0.0,0.0,0.0,0.0,0.0,2.4078,2.4302,2.4679,2.4981,2.516,2.5844,2.622,2.622,2.622,2.622,2.622,2.622,2.622,2.622,2.622,2.622,2.622,2.6096,2.6059,2.6079,2.6277,2.6418,2.6607,2.7036,2.7289,2.7426,2.7624,2.7701,2.7701,0.0,0.0,0.0,0.0,0.0,0.0,0.0,0.0,0.0,0.0,0.0,0.0,0.0,0.0,0.0,0.0,0.0,0.0,0.0,0.0,0.0,2.5232,2.4709,2.4491,2.4719,2.4517,2.45,2.4723,2.5371,2.5698,2.5661,2.5685,2.5697,2.5703,2.5694,2.6179,2.6948,2.6067,2.6203,2.6967,2.6504,2.7073,2.8108,2.7234,2.7667,2.8504,2.6781,2.6088,2.59,2.531,2.4947,2.462,2.4192,2.3846,0.0,0.0,0.0,2.3354,2.523,2.7516,2.9476,2.988,2.9922,3.0022,3.0427,3.051,3.0526,0.0,3.0568,0.0,0.0,0.0,0.0,0.0,0.0,0.0,0.0,0.0,0.0,0.0,0.0,0.0,0.0,0.0,0.0,0.0,0.0,2.4451,2.4451,2.4823,2.5044,2.5044,2.5791,2.622,2.622,2.622,2.622,2.622,2.6274,2.6274,2.622,2.6274,2.6239,2.622,2.622,2.6239,2.631,2.6606,2.6859,2.7135,2.7386,2.7569,2.7701,2.7701,2.7701,2.7701,0.0,0.0,0.0,0.0,0.0,0.0,0.0,0.0,0.0,0.0,0.0,0.0,0.0,2.5656,2.571,2.5705,0.0,0.0,0.0,0.0,0.0,2.4363,2.4394,0.0,2.5613,2.4826,2.4793,2.5625,2.5684,2.5679,2.5603,2.5661,2.5707,2.5691,2.5702,2.6189,2.6939,2.608,2.6197,2.7061,2.7774,2.812,2.8363,2.9854,3.044,3.0244,2.8567,2.7926,2.7595,2.5791,2.5099,2.4893,2.4351,2.408,2.3837,0.0,0.0,0.0,2.426,2.5295,2.6677,2.8141,2.8417,2.8725,3.0335,3.0609,3.0526,3.0651,3.0692,0.0,0.0,0.0,0.0,0.0,0.0,0.0,0.0,0.0,0.0,0.0,0.0,0.0,0.0,0.0,0.0,0.0,0.0,2.4863,2.4863,2.5237,2.5465,2.5465,2.5954,2.622,2.622,2.622,2.622,2.6203,2.645,2.645,2.6203,2.645,2.645,2.622,2.622,2.6345,2.6606,2.6892,2.7135,2.7404,2.7612,2.7701,2.7701,2.7701,2.7701,2.7701,0.0,0.0,0.0,0.0,0.0,0.0,0.0,0.0,0.0,0.0,0.0,0.0,0.0,2.5655,2.5473,2.4919,2.3592,0.0,0.0,0.0,0.0,2.3505,2.3026,2.3131,2.4011,2.3725,2.3996,2.4862,2.5439,2.5698,2.5659,2.5691,2.5675,2.5642,2.5681,2.5879,2.615,2.5829,2.5875,2.6287,2.7694,2.8915,2.9933,3.0549,3.139,3.2038,3.0327,2.8964,2.7881,2.7161,2.6063,2.4943,2.4622,2.4352,2.4077,2.3414,2.399,2.4761,2.4472,2.5395,2.6499,2.6886,2.7715,2.8528,2.9115,2.9945,3.0651,3.0692,3.0692,0.0,0.0,0.0,0.0,0.0,0.0,0.0,0.0,0.0,0.0,0.0,0.0,0.0,0.0,0.0,0.0,0.0,0.0,0.0,2.5275,2.5427,2.5503,2.5503,2.5954,2.622,2.622,2.622,2.6274,2.645,2.6537,2.6554,2.645,2.6554,2.645,2.6203,2.638,2.652,2.6606,2.6875,2.7166,2.7434,2.7612,2.7701,2.7701,2.7701,2.7701,2.773,0.0,0.0,0.0,0.0,0.0,0.0,0.0,0.0,0.0,0.0,0.0,0.0,0.0,0.0,2.4762,2.3631,2.2519,2.1967,2.2218,2.1959,2.2051,2.2647,2.2389,2.2648,2.3526,2.3532,2.3964,2.4843,2.5425,2.5697,2.5662,2.5673,2.5643,2.5593,2.5651,2.5668,2.5673,2.5679,2.5673,2.5878,2.8182,2.9601,3.0481,3.1615,3.2716,3.3418,3.1697,3.0511,2.964,2.9022,2.7933,2.6665,2.5853,2.4965,2.4154,2.3674,2.3992,2.4435,2.4126,2.456,2.5192,2.5547,2.6312,2.7294,2.8427,2.9398,3.0297,3.096,3.1061,0.0,0.0,0.0,0.0,0.0,0.0,0.0,0.0,0.0,0.0,0.0,0.0,0.0,0.0,0.0,0.0,0.0,0.0,0.0,2.5721,2.5721,2.5721,2.5721,2.6043,2.622,2.622,2.622,2.6274,2.6485,2.6691,2.6691,2.6503,2.6742,2.6674,2.6435,2.6607,2.6708,2.6775,2.7006,2.7324,2.7617,2.7771,2.7858,2.7876,2.7933,2.7904,2.7904,0.0,0.0,0.0,0.0,0.0,0.0,0.0,0.0,0.0,2.5484,0.0,0.0,0.0,0.0,0.0,2.1943,2.1775,2.1406,2.0561,2.1284,2.1771,2.1806,0.0,0.0,0.0,2.4407,2.4834,2.5701,2.5698,2.5655,2.5604,2.5605,2.5599,2.5587,2.5608,2.5595,2.5595,2.5595,2.5601,2.5893,2.9336,3.0226,2.9896,3.3254,3.454,3.432,3.2692,3.2587,3.2948,3.1243,3.0521,2.9979,2.7975,2.5839,2.4079,2.3881,2.3482,2.3141,0.0,0.0,0.0,2.4062,2.4255,2.4929,2.8304,2.8985,2.9464,3.1441,3.1714,0.0,0.0,0.0,0.0,0.0,0.0,0.0,0.0,0.0,0.0,0.0,0.0,0.0,0.0,0.0,0.0,0.0,0.0,2.6203,2.622,2.622,2.622,2.6203,2.622,2.622,2.622,2.6203,2.6203,2.6239,2.6891,2.6891,2.6365,2.7019,2.7161,2.692,2.6888,2.6954,2.7038,2.7293,2.7647,2.8025,2.8093,2.8147,2.8228,2.8344,2.8335,2.821,0.0,0.0,0.0,0.0,0.0,0.0,0.0,0.0,2.5225,0.0,0.0,0.0,2.4723,2.3367,2.2298,2.1834,2.1214,2.0756,2.0524,2.0722,2.1133,2.1777,2.2029,2.2866,2.4368,2.4408,2.4838,2.5696,2.5657,2.5616,2.5598,2.56,2.5538,2.5461,2.555,2.5557,2.5452,2.5556,2.5591,2.5905,2.9379,3.0615,3.0736,3.4197,3.5474,3.5389,3.4912,3.4119,3.3193,3.2713,3.0814,2.8315,2.6359,2.5196,2.4503,2.442,2.4155,2.383,2.3599,0.0,0.0,0.0,0.0,0.0,0.0,0.0,2.9313,3.0041,0.0,0.0,0.0,0.0,0.0,0.0,0.0,0.0,0.0,0.0,0.0,0.0,0.0,0.0,0.0,0.0,0.0,0.0,2.6258,2.6258,2.6203,2.622,2.6239,2.6277,2.6239,2.6274,2.6415,2.6329,2.6521,2.6987,2.7178,2.7303,2.7365,2.7334,2.7303,2.7255,2.7224,2.7334,2.7565,2.7672,2.7915,2.8281,2.8316,2.842,2.8547,2.8438,2.8471,2.8572,0.0,0.0,0.0,0.0,0.0,0.0,2.4198,2.4467,2.4725,0.0,0.0,0.0,2.4307,2.339,2.2697,2.2325,2.1851,2.1577,2.1579,2.1585,2.1801,2.2328,2.2699,2.3361,2.4374,2.4734,2.5141,2.5651,2.5561,2.5526,0.0,0.0,2.5434,2.5357,2.5437,2.5421,2.5369,2.5445,2.5506,2.5868,2.9324,3.0489,3.0544,3.4009,3.5291,3.5251,3.5252,3.4857,3.4335,3.4317,3.1952,2.8832,2.7682,2.6197,2.4839,2.4752,2.4538,2.4281,2.4062,2.3808,2.353,2.3153,0.0,0.0,2.5704,2.74,2.9147,0.0,0.0,0.0,0.0,0.0,0.0,0.0,0.0,0.0,0.0,0.0,0.0,0.0,0.0,0.0,0.0,0.0,0.0,2.638,2.6364,2.6364,2.6327,2.6327,2.6345,2.6382,2.6345,2.638,2.6485,2.6434,2.6624,2.7129,2.7299,2.75,2.7666,2.7648,2.7678,2.7707,2.7648,2.788,2.8246,2.8246,2.836,2.8558,2.8646,2.8772,2.8865,2.8795,2.8819,2.8883,0.0,0.0,0.0,2.0513,2.1299,2.2229,2.3366,2.3651,2.4036,0.0,2.5023,2.483,2.4174,2.4122,2.384,2.3077,2.3069,2.3108,2.3095,2.3088,2.3123,2.3228,2.3961,2.4421,2.4518,2.5226,2.5593,0.0,0.0,0.0,0.0,0.0,0.0,0.0,2.5303,2.5293,2.5282,2.5283,2.5474,2.604,2.9268,3.0265,3.0153,3.339,3.4632,3.4638,3.4645,3.5146,3.5757,3.5513,3.3356,0.0,3.0277,2.8106,2.5609,2.5101,2.4917,2.4807,2.454,2.4192,2.3886,2.3785,2.3424,0.0,2.697,2.7691,2.8582,0.0,0.0,0.0,0.0,0.0,0.0,0.0,0.0,0.0,0.0,0.0,0.0,0.0,0.0,0.0,0.0,2.6674,2.664,2.6708,2.664,2.6572,2.6554,2.6537,2.6537,2.6554,2.652,2.652,2.6589,2.652,2.6674,2.7049,2.7391,2.7572,2.7613,2.7946,2.8129,2.8156,2.8129,2.8412,2.8905,2.8929,2.8863,2.8797,2.9038,2.9148,2.9169,2.9272,2.9251,2.9191,0.0,0.0,1.9995,2.1711,2.1728,2.1863,2.2953,2.3279,2.3545,2.3916,2.4175,2.4282,2.4192,2.3573,2.3126,2.3012,2.3056,2.3084,2.3014,2.3018,2.3305,2.3952,2.4141,2.4574,2.5272,2.5434,2.5518,0.0,0.0,0.0,0.0,0.0,2.5322,2.5214,2.5284,2.5244,2.5138,2.5209,2.6041,2.7537,2.966,3.1226,3.2531,3.467,3.5477,3.5475,3.5534,3.5668,3.5578,3.4164,3.3232,3.2196,0.0,0.0,2.8973,2.6125,2.6187,2.6811,2.5304,2.4708,2.4437,2.4099,2.3923,0.0,2.4265,2.5237,2.6286,0.0,2.8091,0.0,0.0,0.0,0.0,0.0,0.0,0.0,0.0,0.0,0.0,0.0,0.0,0.0,0.0,2.7426,2.7413,2.7241,2.7241,2.7115,2.6824,2.6824,2.6873,2.6973,2.6674,2.6674,2.707,2.6725,2.7004,2.7844,2.7725,2.7915,2.837,2.8201,2.8255,2.8492,2.8228,2.8412,2.8929,2.9012,2.9144,2.927,2.9312,2.9453,2.9569,2.9433,2.9472,2.9569,1.9169,1.9435,2.0009,2.1273,2.1334,2.1596,2.2758,2.3049,2.3328,2.3971,2.4347,2.4579,2.463,2.4315,2.4126,2.418,2.4232,2.4244,2.4244,2.4244,2.4432,2.4833,2.4852,2.5046,2.5499,2.5464,2.5461,0.0,0.0,0.0,0.0,0.0,2.5585,2.617,2.5497,2.5581,2.6146,2.5374,2.632,2.8459,2.9852,3.1376,3.3045,3.4793,3.5398,3.5364,3.5427,3.5528,3.5535,3.4719,3.3886,0.0,3.1177,3.0605,3.0034,0.0,2.7252,2.7454,2.5629,2.4998,0.0,2.4572,0.0,0.0,0.0,2.5588,2.6309,2.7096,2.7727,2.7924,2.7243,0.0,0.0,0.0,0.0,0.0,0.0,0.0,0.0,0.0,0.0,0.0,0.0,2.7589,2.7607,2.7547,2.7547,2.7487,2.7303,2.7303,2.7241,2.7149,2.694,2.6973,2.7213,2.6842,2.7147,2.8102,2.7829,2.8017,2.8587,2.8422,2.8448,2.8637,2.8456,2.8658,2.9052,2.9123,2.9312,2.955,2.955,2.9607,2.9701,2.9588,2.9626,2.9701,1.9422,1.9668,2.0144,2.0804,2.1038,2.1469,2.2566,2.2793,2.3235,2.4295,2.4859,2.5209,2.5321,2.5518,2.5707,2.582,2.582,2.5749,2.5677,2.5669,2.5689,2.5716,2.5546,2.5526,2.5681,2.5453,2.5322,2.5322,0.0,0.0,0.0,0.0,2.5641,2.6742,2.5825,2.5953,2.6798,2.6054,2.7028,2.9165,3.0233,3.1379,3.2647,3.4292,3.4761,3.4577,3.4954,3.5235,3.5399,3.5179,3.4467,3.3522,3.2892,3.2155,0.0,0.0,0.0,0.0,0.0,0.0,0.0,0.0,0.0,2.4891,0.0,0.0,0.0,2.7583,2.7646,2.7252,2.6471,2.5493,0.0,0.0,0.0,0.0,0.0,0.0,0.0,0.0,0.0,0.0,0.0,2.7765,2.7736,2.7771,2.7847,2.7847,2.7771,2.7771,2.7624,2.7307,2.7307,2.7307,2.7338,2.7036,2.7348,2.8174,2.7926,2.8083,2.8562,2.8612,2.8662,2.8694,2.8743,2.892,2.923,2.9272,2.9474,2.9738,2.9701,2.9701,2.9701,2.9701,2.972,2.9737,1.9983,2.0179,2.0688,2.182,2.1756,2.1662,2.2038,2.2401,2.3087,2.4414,2.5292,2.5884,2.6149,2.665,2.7101,2.7412,2.7268,2.6924,2.6335,2.6299,2.635,2.6468,2.5676,2.5597,2.6367,2.5523,2.5044,2.5044,0.0,0.0,0.0,0.0,2.4932,2.5294,2.6212,2.6078,2.5329,2.7772,2.9139,2.9822,3.1371,3.1846,0.0,3.3369,3.3522,3.3073,3.4499,3.5066,3.4932,0.0,3.4007,3.4728,0.0,3.2824,3.4185,2.9478,0.0,0.0,0.0,0.0,0.0,0.0,2.501,0.0,0.0,0.0,2.4653,2.4707,0.0,2.3945,2.2972,0.0,0.0,0.0,0.0,0.0,0.0,0.0,0.0,0.0,0.0,0.0,0.0,0.0,2.837,2.8075,2.8344,2.837,2.8075,2.8047,2.7926,2.7654,2.7624,2.7683,2.7725,2.7678,2.7897,2.837,2.8264,2.8308,2.844,2.8619,2.8694,2.8718,2.8897,2.9082,2.9314,2.9551,2.9735,2.9874,2.9756,2.9701,2.9701,2.9701,2.9773,2.9891,2.0155,2.059,2.107,2.174,2.1827,2.196,2.2352,2.2797,2.3373,2.4043,2.4598,2.4996,2.5231,2.6046,2.6616,2.6763,2.72,2.7314,2.6999,2.6549,2.6295,2.6371,2.5538,2.5258,2.5621,2.5222,2.498,2.494,2.4912,0.0,0.0,0.0,0.0,2.6054,2.6563,2.6991,2.7419,2.866,2.9576,0.0,0.0,3.1243,0.0,3.3469,3.3997,3.3732,3.4408,3.4774,3.4812,0.0,3.4572,0.0,0.0,0.0,0.0,3.0412,0.0,0.0,0.0,0.0,0.0,0.0,0.0,0.0,2.5144,0.0,2.4644,0.0,0.0,0.0,0.0,0.0,0.0,0.0,2.1998,0.0,0.0,0.0,0.0,0.0,0.0,0.0,0.0,0.0,0.0,0.0,0.0,2.8543,2.8396,2.8396,2.8246,2.7954,2.7982,2.7992,2.802,2.7926,2.812,2.8619,2.8412,2.8412,2.8619,2.8737,2.8785,2.8815,2.9034,2.923,2.9434,2.9663,2.9805,2.9888,2.9841,2.979,2.9755,2.9808,2.9857,2.994,1.9894,2.0514,2.1039,2.1368,2.1688,2.2068,2.2565,2.3032,2.3453,2.3938,2.4408,2.4798,2.5039,2.6263,2.6988,2.6866,2.7753,2.8241,0.0,2.7368,2.6984,2.7031,2.5897,2.5343,2.5479,2.5049,2.4794,2.4749,2.4734,0.0,0.0,0.0,0.0,2.6208,2.654,2.737,2.8574,2.9377,3.0142,3.0824,3.1421,3.1715,3.1927,3.3358,3.408,3.434,3.434,3.448,3.4617,3.4165,3.4527,0.0,3.4527,0.0,3.3268,0.0,0.0,0.0,2.7335,0.0,0.0,0.0,0.0,0.0,0.0,0.0,0.0,0.0,0.0,0.0,0.0,0.0,2.1898,2.2154,0.0,2.3125,0.0,0.0,0.0,0.0,0.0,0.0,0.0,0.0,0.0,0.0,0.0,0.0,2.8712,2.8662,2.8474,2.8166,2.8308,2.8334,2.8264,2.8201,2.8378,2.8743,2.8583,2.8583,2.8761,2.881,2.8858,2.891,2.9166,2.9375,2.9532,2.9806,2.994,2.9988,2.9984,2.9953,2.9905,2.9937,3.0,3.0071,1.9207,1.9773,2.0413,2.0926,2.1401,2.1899,2.2422,2.2695,2.321,2.4319,2.538,2.6186,2.6497,2.824,2.9246,2.8838,2.9799,3.0224,2.9746,2.9214,2.8966,2.9094,2.7097,2.6214,2.673,2.5226,2.4393,2.4336,2.4321,2.4393,0.0,0.0,0.0,2.4731,2.5884,2.6661,2.7252,3.0111,3.1379,3.1636,3.3382,3.4043,3.387,0.0,3.2956,3.4197,3.4197,0.0,0.0,3.2601,3.3294,0.0,0.0,0.0,0.0,0.0,0.0,0.0,0.0,0.0,0.0,2.7988,0.0,0.0,0.0,0.0,2.5495,0.0,0.0,0.0,2.4576,2.3892,2.355,2.4271,2.3651,0.0,0.0,0.0,0.0,0.0,0.0,0.0,0.0,0.0,0.0,0.0,0.0,0.0,2.898,2.8791,2.8558,2.8298,2.8626,2.8651,2.8394,2.8725,2.8791,2.8601,2.8858,2.8858,2.8601,2.8815,2.8905,2.891,2.9318,2.9495,2.9533,3.0,3.0204,3.0185,3.0188,3.0182,3.0188,3.0123,3.0215,3.0389,1.8907,1.9192,1.9507,2.0124,2.0581,2.1119,2.1761,2.2265,0.0,0.0,2.5048,0.0,0.0,2.8443,2.944,0.0,0.0,3.0576,3.0369,2.9904,2.9545,2.9337,2.8672,2.7735,2.6502,2.611,2.5336,2.4174,2.4173,2.4192,2.4228,2.4209,2.4247,2.4395,2.5673,2.6986,2.8323,3.0442,3.1835,3.2702,0.0,3.3545,3.3253,0.0,0.0,3.4124,3.4124,3.4197,0.0,3.3641,3.3989,3.4559,3.393,3.3507,3.3139,3.2519,3.1599,0.0,0.0,0.0,3.0535,2.8437,0.0,0.0,0.0,0.0,0.0,0.0,0.0,0.0,0.0,2.4917,2.3756,2.4511,2.3886,2.358,0.0,0.0,0.0,0.0,0.0,0.0,0.0,0.0,0.0,0.0,0.0,0.0,0.0,2.8993,2.8874,2.8651,2.8791,2.8815,2.8725,2.8905,2.8929,2.8881,2.8998,2.9017,2.8881,2.8975,2.9071,2.9166,2.9456,2.9644,2.9786,3.0079,3.0204,3.0199,3.0241,3.0297,3.0325,3.0302,3.0337,3.0414,1.843,1.8456,1.8633,1.9636,2.012,2.0675,0.0,0.0,0.0,0.0,2.5501,0.0,2.7108,0.0,2.9545,0.0,3.0309,3.0973,3.0949,3.0628,3.0312,3.0042,2.9671,2.8735,2.7212,2.6944,2.6089,2.4675,2.4444,2.4231,2.3996,2.4016,2.4016,2.4071,2.5274,2.6861,2.8699,3.0101,3.16,0.0,0.0,3.312,0.0,0.0,3.3576,3.3497,0.0,3.3733,3.3768,3.3768,3.3906,3.4037,3.4068,3.3496,3.2856,3.2931,3.2221,3.1449,3.1538,3.2034,0.0,3.0064,3.0459,0.0,2.9101,0.0,0.0,0.0,0.0,0.0,0.0,2.6454,2.486,2.5704,2.4752,2.4054,0.0,2.4528,0.0,0.0,0.0,0.0,0.0,0.0,0.0,2.7993,2.8533,0.0,0.0,0.0,2.9101,2.898,2.8952,2.8929,2.8929,2.8994,2.8994,2.8994,2.9085,2.9085,2.904,2.9089,2.9225,2.9357,2.9551,2.975,2.9953,3.0123,3.0199,3.0213,3.0297,3.0359,3.0413,3.0452,3.049,3.0554,1.7799,1.7614,1.7833,1.9453,2.0025,0.0,0.0,0.0,2.3822,0.0,2.675,2.7437,2.7559,2.8979,2.9681,2.9028,3.0408,3.1372,3.1545,3.1324,0.0,3.1215,3.013,2.9336,2.8851,2.7731,2.6702,2.5743,2.5141,2.4491,2.3828,2.3873,2.3852,2.3783,2.4686,2.6284,2.8406,2.9233,3.0801,3.2702,3.2702,3.2934,3.3277,3.2978,0.0,3.232,3.2811,3.3009,3.2991,3.2991,3.2991,3.3069,3.3382,3.3524,3.3634,3.3979,3.4124,3.4227,3.4486,3.3404,3.2298,3.2672,0.0,0.0,0.0,0.0,3.0937,0.0,0.0,0.0,0.0,0.0,2.6787,2.7688,2.6144,2.4746,2.4543,2.4524,2.4489,0.0,0.0,0.0,0.0,2.5287,2.6088,2.8269,2.807,2.8422,0.0,0.0,0.0,2.9293,2.9115,2.9017,2.8994,2.8994,2.8994,2.8994,2.9085,2.9089,2.9089,2.9156,2.9291,2.9418,2.9625,2.9815,3.0022,3.0161,3.0188,3.0215,3.0348,3.0413,3.0433,3.0567,3.0684,3.0801,1.7325,1.7693,1.819,0.0,2.0112,2.1321,0.0,0.0,0.0,0.0,2.6707,2.7632,2.8646,2.9708,3.0275,3.0099,3.061,0.0,0.0,0.0,0.0,3.1271,3.1544,3.1062,2.9659,2.9513,2.8507,2.6526,2.577,2.5062,2.4395,2.384,2.3921,2.4523,2.4622,2.6315,2.9142,2.9311,3.0683,3.2749,3.2504,3.2249,0.0,0.0,3.2009,3.1537,3.2554,3.2947,3.2991,3.2991,3.2991,3.3039,3.31,3.316,3.3189,3.3447,3.3625,3.3813,3.4012,3.4023,3.3688,3.2559,3.267,3.2817,0.0,0.0,0.0,0.0,0.0,0.0,0.0,0.0,0.0,2.6997,2.586,2.4987,2.4888,2.4907,0.0,2.4731,0.0,0.0,0.0,2.5783,2.6821,2.7428,2.8098,2.8881,0.0,0.0,0.0,2.9295,2.9249,2.916,2.9017,2.8994,2.8994,2.8994,2.9112,2.9152,2.9089,2.9218,2.9394,2.9643,2.9678,2.9899,3.0221,3.0266,3.0234,3.0215,3.0398,3.0527,3.0626,3.0664,3.0735,3.0804,1.7008,1.7729,1.8399,1.8869,0.0,0.0,2.2456,2.3383,0.0,2.626,2.7268,0.0,2.8887,2.9528,2.9924,3.0054,3.0309,0.0,3.0601,0.0,0.0,3.1083,3.1681,3.1533,3.0525,3.052,2.9386,2.7069,2.6307,2.5191,2.3859,2.3795,2.3996,2.4438,2.512,2.6559,2.8493,2.9501,3.0808,3.2172,3.2109,0.0,0.0,3.2057,3.1777,3.1481,3.2159,3.2435,3.2502,3.2502,3.2502,3.2484,3.2648,3.2713,3.2809,3.3045,3.3237,3.3393,3.3643,3.391,3.3942,3.324,3.3601,3.3955,3.3288,3.3186,3.3585,0.0,0.0,0.0,0.0,0.0,0.0,2.7434,2.6053,2.5149,2.5099,0.0,0.0,0.0,2.5671,0.0,0.0,2.6083,2.714,2.7127,2.8001,0.0,0.0,0.0,0.0,2.8793,2.9107,2.9228,2.9062,2.904,2.9089,2.9178,2.9267,2.9351,2.9375,2.9474,2.9644,2.9861,2.9861,3.0052,3.033,3.0318,3.0311,3.034,3.0492,3.0598,3.0706,3.0728,3.0774,3.0796,1.686,1.7673,1.8425,0.0,0.0,0.0,0.0,2.3465,0.0,2.6771,0.0,2.8431,2.8479,2.8732,2.8967,2.9227,0.0,2.9881,3.0038,3.0377,3.0584,3.0625,3.0908,3.1083,3.1123,3.0908,2.9696,2.7451,2.6732,2.5281,2.3163,2.3772,2.411,2.4261,2.5841,2.6887,2.7629,2.9782,3.0994,3.1436,3.1688,3.1948,3.2179,3.1893,3.1763,3.1763,3.1763,3.18,3.18,3.18,3.18,3.1856,3.2161,3.2266,3.2385,3.2681,3.2872,3.2978,3.3296,3.3458,3.3607,3.408,3.4265,3.4411,3.4876,3.504,3.5187,3.5558,3.5033,0.0,0.0,0.0,0.0,2.8514,2.6815,0.0,0.0,0.0,0.0,0.0,0.0,0.0,0.0,0.0,2.7104,2.7231,2.7823,0.0,0.0,0.0,0.0,0.0,2.9004,0.0,2.9134,0.0,2.9246,2.9412,2.9493,2.9589,2.9713,2.9784,2.9931,3.0109,3.0103,3.0235,3.0414,3.0364,3.0411,3.052,3.0579,3.0652,3.0724,3.0774,3.0796,3.08,1.7242,1.7699,1.8266,0.0,0.0,2.1213,2.2484,2.4105,2.5586,2.6518,2.6791,2.7019,2.7327,2.7615,2.7815,2.7864,2.84,0.0,0.0,0.0,0.0,2.9805,2.9876,3.0048,3.0285,3.0613,2.9762,0.0,0.0,2.6073,2.4551,2.4067,2.4516,2.5712,2.6108,2.7293,2.9076,3.0213,0.0,3.1576,3.1731,3.1783,3.1728,3.1654,3.1596,3.1538,3.1538,3.1651,3.18,3.18,3.18,3.18,3.1856,3.1893,3.1965,3.2161,3.2369,3.2535,3.2781,3.3166,3.3514,3.3607,3.3981,3.4315,3.4411,3.4698,3.499,3.5172,3.5219,3.5137,3.4802,0.0,0.0,0.0,0.0,0.0,0.0,0.0,0.0,0.0,0.0,2.8342,0.0,0.0,0.0,0.0,0.0,0.0,0.0,0.0,0.0,0.0,0.0,0.0,0.0,0.0,0.0,2.9412,2.9644,2.9767,2.9765,2.9851,2.9962,3.0089,3.0164,3.029,3.0501,3.0535,3.0591,3.0652,3.0614,3.0672,3.0771,3.0793,3.0801,3.0806,1.6892,1.7484,1.8153,0.0,0.0,0.0,0.0,2.4096,0.0,2.6176,2.6496,2.6759,2.7071,2.7225,2.7414,2.7765,2.8125,2.8415,2.8779,2.8982,2.9152,2.9303,2.9512,2.9673,2.9832,3.0485,2.9738,2.758,0.0,2.6418,2.4624,2.4506,2.477,2.5478,2.6436,2.7656,0.0,0.0,0.0,3.1104,3.1497,3.1614,3.1538,3.1538,3.1538,3.1517,3.1517,3.1555,3.1651,3.1651,3.1651,3.1651,3.1651,3.1651,3.1651,3.1763,3.1856,3.2038,3.2521,3.283,3.3124,3.3465,3.3778,3.4043,3.4288,3.4532,3.4794,3.5127,3.5306,3.5326,3.5103,3.3701,0.0,0.0,0.0,0.0,0.0,0.0,2.8488,0.0,0.0,0.0,0.0,0.0,0.0,0.0,0.0,0.0,0.0,0.0,0.0,0.0,0.0,0.0,0.0,0.0,0.0,2.9751,2.9886,2.9996,3.0066,3.008,3.0155,3.0267,3.034,3.0414,3.051,3.0607,3.0664,3.0709,3.07,3.0732,3.0792,3.0762,3.0774,3.0801,1.7403,1.8029,0.0,0.0,2.0893,0.0,2.3044,2.3899,2.4738,2.5742,2.6215,2.6549,2.6721,2.6811,2.7122,2.773,2.783,2.8174,2.8795,2.8889,2.8951,2.8951,2.9212,2.9316,2.9316,3.0064,2.945,0.0,0.0,0.0,2.4677,2.4879,2.5124,0.0,0.0,0.0,0.0,0.0,3.0512,3.0793,3.1316,3.1479,3.1462,3.1462,3.1423,3.144,3.144,3.144,3.144,3.144,3.1479,3.1517,3.1517,3.1517,3.1517,3.1517,3.1517,3.1614,3.2197,3.2472,3.2719,3.3268,3.353,3.3788,3.4141,3.4334,3.4593,3.4999,3.5243,3.5419,3.553,3.4378,0.0,0.0,0.0,0.0,0.0,0.0,0.0,0.0,0.0,0.0,2.754,0.0,0.0,0.0,0.0,0.0,0.0,0.0,0.0,0.0,0.0,2.9992,2.9832,0.0,2.9981,0.0,3.0138,3.0221,3.0316,3.0316,3.0348,3.039,3.0501,3.0535,3.0576,3.0672,3.0711,3.074,3.0782,3.0792,3.079,3.0739,3.0745,3.0838,0.0,0.0,0.0,0.0,0.0,0.0,2.3495,2.391,2.439,2.5005,2.5411,2.5592,2.5647,2.5853,2.6204,2.6616,2.6967,2.7393,2.7875,2.8235,2.846,2.846,2.8493,2.8525,2.8525,2.8997,2.8526,0.0,0.0,2.6314,0.0,0.0,0.0,0.0,0.0,0.0,0.0,3.0302,3.0745,3.1249,3.1428,3.1423,3.1295,3.1295,3.1274,3.123,3.123,3.123,3.123,3.123,3.1363,3.1517,3.1517,3.1517,3.1517,3.1517,3.1517,3.1517,3.1576,3.2091,3.2606,3.2687,3.316,3.3615,3.3671,3.4018,3.4334,3.4379,3.4887,3.5307,3.5325,3.4718,3.3933,0.0,0.0,0.0,0.0,0.0,3.0536,3.0453,0.0,0.0,0.0,2.9593,0.0,0.0,0.0,0.0,0.0,0.0,0.0,3.0314,0.0,3.0177,2.9984,3.0228,0.0,2.9999,3.0254,3.0386,3.0398,3.0398,3.0379,3.0421,3.0535,3.0656,3.0768,3.0794,3.0796,3.0796,3.0801,3.0808,3.0797,3.08,3.079,3.0916,0.0,0.0,0.0,0.0,0.0,0.0,0.0,2.4013,2.4171,2.4447,2.4721,2.5061,2.5439,2.5605,2.5907,2.6457,2.6864,2.7291,2.779,2.8201,2.8411,2.8411,2.8411,2.8411,2.8411,2.8873,2.8645,0.0,0.0,0.0,0.0,0.0,0.0,0.0,0.0,2.9465,3.0241,3.0679,3.1036,3.1252,3.1308,3.1308,3.1252,3.1252,3.1213,3.119,3.119,3.119,3.119,3.119,3.123,3.1308,3.1308,3.1308,3.1308,3.1308,3.1308,3.1423,3.1858,3.2197,3.2537,3.2961,3.3316,3.3559,3.3698,3.3935,3.4208,3.4486,3.4889,3.5193,3.5171,3.4611,3.3832,0.0,0.0,0.0,0.0,0.0,0.0,3.0639,0.0,3.0433,0.0,0.0,0.0,0.0,0.0,0.0,0.0,0.0,0.0,3.0386,0.0,3.0362,3.0241,3.0355,3.0348,3.0241,3.0348,3.039,3.0394,3.039,3.0449,3.0537,3.0614,3.0715,3.0801,3.0801,3.0801,3.0801,3.0795,3.0795,3.0793,3.0747,3.0771,3.0992,2.0964,0.0,2.1983,0.0,2.2926,2.3313,2.3981,2.4112,2.4112,2.4112,2.4261,2.4593,2.5131,2.5313,2.5688,2.6404,2.6811,2.7225,2.789,2.8201,2.8411,2.8411,2.8411,0.0,2.8411,2.8748,2.8669,2.8198,2.7842,0.0,0.0,0.0,0.0,0.0,2.952,3.0044,3.0544,3.1009,3.119,3.119,3.119,3.119,3.119,3.119,3.119,3.119,3.119,3.119,3.119,3.1151,3.1151,3.1151,3.119,3.119,3.119,3.119,3.1269,3.1466,3.1967,3.2265,3.2586,3.3099,3.3345,3.352,3.3643,3.3823,3.408,3.4567,3.4889,3.5075,3.5038,3.4247,3.3391,3.2775,0.0,0.0,0.0,0.0,0.0,3.0576,3.0618,3.0379,2.9741,2.9695,0.0,0.0,0.0,0.0,0.0,0.0,0.0,0.0,0.0,0.0,0.0,3.046,3.0452,3.0455,3.0444,3.0425,3.0398,3.0417,3.0482,3.06,3.0667,3.0732,3.0801,3.0801,3.0801,3.0801,3.0796,3.0796,3.0796,3.0757,3.0911,3.1367,2.3956,2.4073,2.4073,2.4099,2.4099,2.4099,2.4112,2.4112,2.4112,2.4112,2.4112,2.4216,2.4465,2.4821,2.5439,2.6404,2.664,2.7108,2.8137,2.8299,2.8411,0.0,0.0,2.8411,2.8411,2.8411,2.8396,2.8396,0.0,0.0,2.8188,0.0,2.8941,2.9605,2.9985,3.0556,3.119,3.119,3.119,3.119,3.119,3.119,3.119,3.119,3.119,3.119,3.119,3.119,3.119,3.1072,3.1015,3.1015,3.1151,3.119,3.119,3.119,3.1411,3.1694,3.1714,3.2231,3.2795,3.2795,3.3099,3.3393,3.3393,3.3605,3.3947,3.4495,3.4811,3.4983,3.4927,3.3652,3.2613,3.26,0.0,0.0,0.0,0.0,0.0,3.0491,3.0622,3.0672,3.0599,0.0,0.0,0.0,0.0,0.0,0.0,0.0,0.0,3.0697,3.0634,0.0,3.0602,3.0609,3.0612,3.0593,3.0537,3.0469,3.0398,3.0462,3.0535,3.06,3.0667,3.0732,3.0801,3.0801,3.0801,3.0801,3.0801,3.0793,3.0801,3.081,3.1305,3.2104,2.3641,2.3878,2.4112,2.4112,2.4112,2.4112,2.4112,2.4112,2.4112,2.4112,2.4112,2.4112,2.4216,2.4478,2.4865,0.0,2.5797,2.6308,0.0,2.7464,2.7845,2.8396,2.8411,2.8411,2.8411,2.8411,2.8411,2.8411,0.0,0.0,0.0,2.9095,2.9805,3.0701,3.0818,3.1009,3.119,3.119,3.119,3.119,3.119,3.119,3.119,3.119,3.119,3.119,3.1112,3.1055,3.1072,3.0935,3.0952,3.0952,3.0992,3.0992,3.0992,3.0992,3.1312,3.1677,3.1897,3.2384,3.2876,3.3147,3.3304,3.3393,3.3393,3.3605,3.3895,3.4245,3.4539,3.46,3.4169,3.3201,3.2288,3.1716,3.0788,0.0,0.0,0.0,0.0,3.0419,3.054,3.0613,0.0,3.062,0.0,0.0,0.0,0.0,0.0,0.0,0.0,0.0,3.0657,0.0,3.0595,3.0603,3.0593,3.0606,3.0567,3.0557,3.0543,3.0617,3.0653,3.0664,3.0747,3.0774,3.0801,3.0801,3.0801,3.0801,3.0801,3.0793,3.0801,3.081,3.1305,3.2118,2.37,2.3878,2.4112,2.4112,2.4112,2.4112,2.4112,2.4112,2.4112,2.4112,2.4112,2.4112,2.4112,2.4261,0.0,2.4948,2.5258,2.5823,2.6745,2.7093,2.763,2.8299,2.8348,2.8411,2.8411,0.0,0.0,2.8411,2.8357,2.8738,2.9493,2.9959,3.0561,3.119,3.119,3.119,3.119,3.119,3.119,3.119,3.119,3.119,3.119,3.119,3.119,3.119,3.1072,3.1015,3.0975,3.0855,3.0814,3.0831,3.079,3.0733,3.079,3.0871,3.1179,3.1585,3.1968,3.2401,3.283,3.3244,3.3352,3.3411,3.352,3.3753,3.3998,3.4173,3.4476,3.4466,3.3676,3.292,3.2141,3.1326,3.0538,3.0015,3.0015,0.0,0.0,0.0,0.0,0.0,0.0,3.0602,0.0,0.0,0.0,0.0,0.0,0.0,0.0,3.072,3.0754,0.0,3.0716,3.0365,3.0197,3.0182,2.9825,2.9651,2.9641,3.0056,3.0231,3.0224,3.0629,3.0801,3.0801,3.0801,3.0801,3.0801,3.0801,3.0797,3.0797,3.0806,3.1512,3.2551,2.4112,2.4112,0.0,0.0,2.4112,0.0,2.4112,2.4112,2.4112,2.4112,2.4112,2.4112,2.4112,2.4112,2.4345,2.4948,0.0,0.0,0.0,2.7093,2.7565,2.8186,2.8299,0.0,2.8411,2.8411,2.8411,2.8411,2.9319,3.0011,3.0477,3.0975,3.119,3.119,3.119,3.119,3.119,3.119,3.119,3.119,3.119,3.119,3.119,3.119,3.119,3.1151,3.1015,3.0975,3.0935,3.0733,3.0692,3.0651,3.0526,3.0526,3.0568,3.079,3.114,3.1473,3.1878,3.23,3.2705,3.3152,3.3292,3.3364,3.3698,3.3972,3.4173,3.4197,3.4529,3.4471,3.3423,3.2732,3.2046,3.125,3.0435,2.9888,2.9888,0.0,0.0,0.0,0.0,0.0,0.0,3.0598,3.0598,0.0,0.0,0.0,0.0,0.0,3.0758,3.0898,3.0898,3.0879,3.0801,2.9941,2.9481,2.9407,2.8511,2.8076,2.8042,2.9044,2.9464,2.9464,3.0398,3.0801,3.0801,3.0801,3.0801,3.0801,3.0804,3.08,3.078,3.0799,3.1861,3.3266,0.0,0.0,2.4112,2.4112,2.4112,2.4112,2.4112,2.4112,2.4112,2.4112,2.4112,2.4112,2.4112,2.4112,2.4345,2.4948,2.5061,2.5356,2.6187,2.6715,2.7378,2.8186,2.8235,2.8299,2.8411,2.8411,2.8411,2.8411,2.9319,2.9837,2.9968,3.0797,3.119,3.119,3.119,3.119,3.119,3.119,3.119,3.119,3.119,3.119,3.119,3.119,3.1151,3.1032,3.0952,3.0871,3.0733,3.0609,3.0568,3.0526,3.051,3.0526,3.051,3.0568,3.0942,3.1393,3.1752,3.2214,3.2705,3.3073,3.3214,3.3322,3.3452,3.3698,3.3947,3.4148,3.3908,3.3465,3.2751,3.1992,3.1212,3.0343,3.0021,2.9888,2.9888,3.0019,0.0,0.0,3.0292,3.0409,3.0449,3.054,3.0598,0.0,0.0,0.0,0.0,0.0,3.0765,3.0898,3.0898,3.0586,2.9902,2.9687,2.9217,2.8515,2.8286,2.8174,2.8201,2.9138,2.9562,2.9598,3.0445,3.0801,3.0801,3.0801,3.0801,3.0804,3.0799,3.0778,3.0713,3.0724,3.1773,3.3203,2.4112,2.4112,2.4112,2.4112,2.4112,2.4112,2.4112,2.4112,2.4112,2.4112,2.4112,2.4112,2.4112,2.4112,2.4345,2.4948,2.5005,2.537,2.6254,2.6678,2.7225,2.7974,2.8137,2.8235,2.8299,2.8348,2.8411,2.8411,2.9152,2.9572,2.981,3.0535,3.0998,3.119,3.119,3.119,3.119,3.119,3.119,3.119,3.119,3.119,3.119,3.119,3.1112,3.0975,3.0912,3.0814,3.0692,3.0568,3.0526,3.0526,3.0526,3.0526,3.0526,3.0526,3.0716,3.1004,3.1359,3.1806,3.2335,3.2898,3.3183,3.3352,3.3509,3.3671,3.3868,3.4148,3.3713,3.3083,3.2392,3.1673,3.0909,3.004,2.9888,2.9888,2.9888,2.9953,0.0,3.0094,3.026,3.0371,3.0386,3.051,3.0598,3.0598,0.0,0.0,3.0646,3.0646,3.0721,3.0859,3.0508,3.0078,2.9609,2.8809,2.7949,2.7012,2.7043,2.7251,2.7639,2.858,2.923,2.965,3.0489,3.086,3.0841,3.0801,3.0808,3.0796,3.0801,3.0767,3.0743,3.1115,3.2031,3.3142,2.4054,2.4112,2.4112,2.4112,2.4112,2.4112,2.4112,2.4112,2.4112,2.4112,2.4112,2.4112,2.4112,2.4171,2.4447,2.5061,2.5216,2.5646,2.663,2.6864,2.724,2.779,2.8039,2.8186,2.8186,2.8348,2.8411,2.8411,2.8873,2.9348,2.9793,3.0267,3.074,3.119,3.119,3.119,3.119,3.119,3.119,3.119,3.119,3.119,3.119,3.119,3.1095,3.0975,3.0912,3.0773,3.0651,3.0526,3.0526,3.0526,3.0526,3.0526,3.0526,3.0526,3.0551,3.0658,3.1083,3.1528,3.2039,3.2802,3.3122,3.3322,3.3559,3.3698,3.3823,3.3907,3.3504,3.2872,3.2066,3.1411,3.0758,3.0021,2.9888,2.9888,2.9888,0.0,2.9937,3.0064,3.0199,3.0305,3.0383,3.049,3.0588,3.0598,3.0598,0.0,0.0,3.0598,3.06,3.0598,2.9941,2.9453,2.9219,2.7617,2.6406,2.5625,2.5801,2.6242,2.695,2.8002,2.8904,2.9656,3.0511,3.0899,3.0899,3.0825,3.0796,3.0801,3.0776,3.0749,3.0773,3.1599,3.2363,3.3114,2.4054,2.4112,2.4112,2.4112,2.4112,2.4112,2.4112,2.4112,2.4112,2.4112,2.4112,2.4112,2.4112,2.4563,2.5104,2.5632,2.6122,2.651,2.6683,2.7203,2.7575,2.779,2.7955,2.8103,2.8186,2.8348,2.8411,2.8411,2.8873,2.9348,2.9793,3.0267,3.074,3.119,3.119,3.119,3.119,3.119,3.119,3.119,3.119,3.119,3.119,3.1055,3.0975,3.0912,3.0773,3.0651,3.0526,3.0526,3.0526,3.0526,3.0526,3.0526,3.0526,3.0526,3.074,3.1083,3.149,3.2162,3.277,3.2948,3.3011,3.3073,3.3178,3.3455,3.3524,3.29,3.2507,3.2028,3.1222,3.0561,3.0059,2.9907,2.9888,2.9888,2.9888,0.0,2.9905,2.9921,3.0064,3.018,3.0305,3.0383,3.049,3.0588,3.0598,3.0598,3.0598,3.0598,3.0296,2.9637,2.9545,2.8848,2.7422,2.6406,2.582,2.5684,2.6445,2.6855,2.7048,2.8652,2.9473,2.9648,3.0521,3.0905,3.0882,3.0839,3.08,3.0798,3.0681,3.0619,3.0711,3.1576,3.2377,3.3111,2.4054,2.4112,2.4112,2.4112,2.4112,2.4112,2.4112,2.4112,2.4229,2.4563,2.4563,2.4664,2.4978,2.5258,2.5632,2.6229,2.6563,2.6841,2.7152,2.7458,2.7625,2.7675,2.7905,2.8103,2.8299,2.8348,2.8411,2.8411,2.8621,2.909,2.9793,3.0011,3.0493,3.119,3.119,3.119,3.119,3.119,3.119,3.119,3.119,3.1151,3.1112,3.1015,3.0895,3.0773,3.0733,3.0609,3.0526,3.0526,3.0526,3.0526,3.0526,3.0526,3.0526,3.0526,3.0781,3.124,3.1877,3.23,3.2639,3.2884,3.2979,3.3028,3.3042,3.3208,3.3208,3.2575,3.206,3.1529,3.0937,3.0301,2.9841,2.9841,2.9841,0.0,0.0,2.979,2.979,2.979,2.9872,2.9965,3.0026,3.0196,3.0321,3.0386,3.0471,3.0559,3.0559,3.0144,2.9534,2.8732,2.8304,2.7519,2.6309,2.5898,2.5937,2.6406,2.6816,2.748,2.8437,2.9238,2.9863,3.0312,3.0722,3.0879,3.084,3.0819,3.0771,3.0742,3.0681,3.0626,3.075,3.198,3.2636,3.3051,2.4229,2.4229,2.4112,2.4112,2.4112,2.4171,2.4287,2.4287,2.4505,2.5104,2.516,2.5314,2.5742,2.596,2.6176,2.6669,2.6841,2.71,2.7575,2.7625,2.7625,2.7625,2.7855,2.8103,2.8348,2.8396,2.8411,2.8411,2.8411,2.8842,2.9617,2.975,3.0225,3.1055,3.1151,3.119,3.119,3.119,3.119,3.119,3.1151,3.1095,3.0975,3.0935,3.0814,3.0692,3.0651,3.0609,3.0526,3.0526,3.0526,3.0526,3.0526,3.0526,3.0526,3.0526,3.0861,3.1376,3.1985,3.2318,3.2521,3.2802,3.2948,3.2997,3.2997,3.288,3.2643,3.2109,3.1506,3.0912,3.0474,3.0001,2.9718,2.9773,0.0,0.0,0.0,2.9701,2.9701,2.9701,2.9754,2.9786,2.9801,3.0037,3.019,3.0203,3.0386,3.051,3.051,2.9719,2.882,2.7834,2.702,2.6307,2.5703,2.5898,2.6328,2.6992,2.7402,2.8301,2.9609,2.9796,3.0238,3.0882,3.0852,3.0827,3.0788,3.076,3.0719,3.0675,3.0678,3.0649,3.0789,3.232,3.2859,3.3015,2.4778,2.4505,2.4112,2.4112,2.4112,2.4287,2.4835,2.4948,2.5104,2.5687,2.5742,2.5742,2.5783,2.6283,2.6669,2.6683,2.7203,2.756,2.7625,2.7625,2.7625,2.7625,2.7855,2.8054,2.8186,2.8348,2.8411,2.8411,2.8411,2.8668,2.9166,2.9617,3.0054,3.0559,3.1015,3.119,3.119,3.119,3.119,3.119,3.1055,3.1015,3.0975,3.0773,3.0692,3.0692,3.0568,3.0526,3.0526,3.0526,3.0526,3.0526,3.0526,3.0526,3.0526,3.0526,3.1044,3.1677,3.1714,3.23,3.2866,3.2884,3.2916,3.2916,3.2916,3.2389,3.1697,3.098,3.0378,2.9832,2.9237,2.9307,2.9492,2.9683,0.0,0.0,2.9701,2.9701,2.9701,2.9701,2.9701,2.9737,2.9784,2.9981,3.0128,3.0203,3.0394,3.0509,3.0509,2.9679,2.8502,2.6934,2.612,2.5698,2.5703,2.6445,2.6875,2.7012,2.8633,2.9473,2.9629,3.036,3.0759,3.0806,3.073,3.0711,3.0706,3.0645,3.0607,3.0614,3.0613,3.0607,3.0782,3.2328,3.2865,3.3025,2.5425,2.5314,2.5133,2.5133,2.5133,2.5258,2.5481,2.5481,2.5687,2.6283,2.6336,2.6496,2.6878,2.7137,2.7255,2.7255,2.7473,2.7625,2.7625,2.7675,2.774,2.784,2.7955,2.8103,2.8299,2.8348,2.8411,2.8411,2.8411,2.8653,2.912,2.9257,2.9777,3.0518,3.0699,3.0918,3.119,3.119,3.119,3.119,3.1055,3.0992,3.0912,3.0773,3.0651,3.0568,3.0526,3.0526,3.0526,3.0526,3.0526,3.0526,3.0526,3.0526,3.0526,3.0526,3.1083,3.1677,3.1677,3.23,3.2916,3.2916,3.2916,3.2916,3.2916,3.2291,3.1535,3.0737,3.0142,2.9569,2.8864,2.9038,2.9312,2.9373,0.0,2.955,2.951,2.951,2.951,2.951,2.951,2.953,2.9551,2.9699,2.9851,3.0007,3.0196,3.0359,3.0428,2.9699,2.8483,2.6782,2.6977,2.6877,2.6451,2.6743,2.7429,2.8505,2.9152,2.9757,3.0284,3.0608,3.0746,3.0742,3.0699,3.07,3.0695,3.068,3.0634,3.0599,3.0511,3.0472,3.0664,3.2146,3.2694,3.2898,2.6014,2.596,2.5783,2.5783,2.5783,2.5837,2.6068,2.6068,2.6283,2.6878,2.6997,2.7152,2.756,2.7625,2.7625,2.7625,2.7625,2.7625,2.7675,2.779,2.7905,2.802,2.8054,2.8152,2.8348,2.8396,2.8411,2.8411,2.8525,2.87,2.8873,2.9348,2.9821,3.0309,3.0601,3.0878,3.1151,3.1151,3.1112,3.1112,3.0935,3.0855,3.0831,3.0692,3.0568,3.0526,3.0526,3.0526,3.0526,3.0526,3.0526,3.0526,3.0526,3.0526,3.0526,3.0526,3.1083,3.1677,3.1677,3.23,3.2916,3.2916,3.2916,3.2844,3.2563,3.1885,3.11,3.0332,2.9661,2.9089,2.8648,2.885,2.9097,2.9163,2.933,2.9451,2.9407,2.9407,2.9407,2.9407,2.9407,2.9407,2.9407,2.9531,2.9662,2.9803,3.0022,3.012,2.999,2.9524,2.8599,2.7113,2.767,2.7892,2.7651,2.7672,2.8268,2.9401,2.9674,3.0127,3.0691,3.0671,3.0676,3.0675,3.0675,3.0674,3.0673,3.0673,3.0616,3.053,3.0432,3.0543,3.0902,3.2148,3.2759,3.316,2.6563,2.6229,2.5783,2.5783,2.5783,2.6014,2.6616,2.6736,2.693,2.7524,2.7625,2.7625,2.7625,2.7625,2.7625,2.7625,2.7625,2.7675,2.779,2.7905,2.802,2.802,2.8152,2.8186,2.8186,2.8348,2.8411,2.8411,2.8873,2.8873,2.8444,2.9837,3.0267,2.9853,3.0797,3.1112,3.1015,3.1015,3.0935,3.0871,3.0733,3.0692,3.0692,3.0568,3.0526,3.0526,3.0526,3.0526,3.0526,3.0526,3.0526,3.0526,3.0526,3.0526,3.0526,3.051,3.1083,3.1677,3.1714,3.23,3.2916,3.2916,3.2916,3.2702,3.1867,3.1082,3.0297,2.9547,2.8762,2.8264,2.844,2.8669,2.8863,2.9067,2.9262,2.9407,2.9407,2.9407,2.9407,2.9407,2.9407,2.9407,2.9407,2.9531,2.9608,2.9608,2.9912,2.9813,2.914,2.9162,2.8818,2.7941,2.7981,2.8434,2.9303,2.937,2.9389,2.9409,3.0279,3.0694,3.0694,3.0636,3.0598,3.0598,3.0598,3.0598,3.0598,3.0598,3.051,3.0398,3.0398,3.0847,3.1588,3.2333,3.3105,3.3891,2.7255,2.7188,2.7086,2.7086,2.7086,2.7137,2.7306,2.7306,2.7423,2.7575,2.7625,2.7625,2.7625,2.7625,2.7625,2.7625,2.7625,2.7675,2.7905,2.8054,2.8201,2.8266,2.8235,2.8235,2.8348,2.8396,2.8411,2.8411,2.8873,2.9044,2.892,2.9661,3.0097,3.0309,3.0559,3.0838,3.1015,3.1015,3.0935,3.0871,3.0733,3.0692,3.0692,3.0568,3.0526,3.0526,3.0526,3.0526,3.0526,3.0526,3.0526,3.0526,3.0526,3.0526,3.0551,3.0861,3.13,3.175,3.2056,3.2488,3.2916,3.2916,3.2916,3.2702,3.1867,3.1082,3.0297,2.9547,2.8762,2.8209,2.8291,2.844,2.8669,2.8863,2.9067,2.924,2.9386,2.9407,2.9407,2.9407,2.9407,2.9407,2.9407,2.9429,2.9492,2.9589,2.9817,2.9601,2.8789,2.948,2.95,2.8624,2.9357,2.9882,3.0143,2.9602,2.9631,3.024,3.052,3.0636,3.0636,3.0617,3.0598,3.0598,3.0598,3.055,3.0449,3.0417,3.0359,3.0318,3.0066,3.0525,3.1381,3.212,3.2901,3.3734,2.7575,2.7625,2.7625,2.7625,2.7625,2.7625,2.7625,2.7625,2.7625,2.7625,2.7625,2.7625,2.7625,2.7625,2.7625,2.7625,2.7675,2.784,2.8005,2.8201,2.8299,2.8299,2.8299,2.8299,2.8411,2.8411,2.8493,2.8653,2.9136,2.9393,2.9393,3.0054,3.0368,3.0435,3.0601,3.0757,3.0895,3.0895,3.0814,3.0733,3.0651,3.0609,3.0609,3.051,3.0526,3.0526,3.0526,3.0526,3.0526,3.0526,3.0526,3.0526,3.0526,3.0593,3.0781,3.1044,3.149,3.1985,3.2249,3.2588,3.2916,3.2916,3.2652,3.2206,3.1403,3.0618,2.9851,2.9084,2.8548,2.8182,2.8182,2.8353,2.8569,2.8767,2.8975,2.9175,2.9386,2.9407,2.9407,2.9407,2.9407,2.9407,2.9407,2.9407,2.947,2.9589,2.9697,2.9593,2.9147,2.9726,2.9837,2.9308,3.0011,3.0383,3.0375,2.9969,3.0057,3.0598,3.0598,3.0598,3.0598,3.0598,3.0598,3.0598,3.0598,3.055,3.046,3.0375,3.0292,3.0202,2.9996,3.0623,3.1689,3.2147,3.3034,3.413,2.7625,2.7625,2.7625,2.7625,2.7625,2.7625,2.7625,2.7625,2.7625,2.7625,2.7625,2.7625,2.7625,2.7625,2.7625,2.7625,2.784,2.802,2.8005,2.8266,2.8348,2.8235,2.8348,2.8411,2.8411,2.8444,2.8653,2.9074,2.9617,2.9837,2.9881,3.0797,3.0918,3.0393,3.0797,3.0895,3.0733,3.0692,3.0609,3.0526,3.0526,3.0526,3.0526,3.0526,3.0526,3.0526,3.0526,3.0526,3.0526,3.0526,3.0526,3.0526,3.0526,3.0781,3.1123,3.1162,3.1677,3.2318,3.2352,3.2639,3.2916,3.2916,3.2295,3.1492,3.0689,2.994,2.9173,2.836,2.8182,2.8182,2.8182,2.8353,2.8543,2.8749,2.8957,2.9152,2.9365,2.9407,2.9407,2.9407,2.9407,2.9407,2.9407,2.9407,2.9451,2.957,2.957,2.9662,2.9836,2.9869,2.9869,2.9869,3.0071,3.0169,3.0169,3.034,3.0509,3.0598,3.0598,3.0598,3.0598,3.0598,3.0598,3.0598,3.0588,3.0588,3.055,3.0428,3.026,3.008,3.0075,3.098,3.2317,3.2298,3.3393,3.4889,2.7625,2.7625,2.7625,2.7625,2.7625,2.7625,2.7625,2.7625,2.7625,2.7625,2.7625,2.7625,2.7625,2.7625,2.7625,2.7625,2.784,2.8054,2.8137,2.8299,2.8411,2.8348,2.8396,2.8411,2.8411,2.8732,2.8997,2.9074,2.9951,3.0351,3.0351,3.0918,3.1151,3.1015,3.1015,3.0952,3.0871,3.0733,3.0609,3.0526,3.0526,3.0526,3.0526,3.0526,3.0526,3.0526,3.0526,3.0526,3.0526,3.0526,3.0526,3.0526,3.0526,3.0781,3.1162,3.149,3.1913,3.2352,3.2672,3.2834,3.2916,3.2916,3.2295,3.1492,3.0689,2.994,2.9173,2.836,2.8182,2.8182,2.8182,2.8237,2.838,2.8743,2.8839,2.898,2.9347,2.9407,2.9407,2.9407,2.9407,2.9407,2.9407,2.9407,2.9409,2.945,2.9431,2.9451,2.9511,2.9608,2.9681,2.9681,2.9869,2.9981,2.9958,3.0003,3.0203,3.052,3.052,3.0559,3.0598,3.0598,3.0598,3.0598,3.049,3.0406,3.0343,3.0166,3.003,2.9937,2.9842,3.0827,3.2298,3.2298,3.3374,3.479,2.7625,2.7625,2.7625,2.7625,2.7625,2.7625,2.7625,2.7625,2.7625,2.7625,2.7625,2.7625,2.7625,2.7625,2.7625,2.7675,2.7905,2.8005,2.8103,2.8299,2.8348,2.8299,2.8348,2.8411,2.8411,2.909,2.9303,2.9074,2.9837,3.0267,3.0518,3.0975,3.1151,3.1112,3.1015,3.0935,3.079,3.0733,3.0609,3.0526,3.0526,3.0526,3.0526,3.0526,3.0526,3.0526,3.0526,3.0526,3.0526,3.0526,3.0526,3.0526,3.0526,3.0885,3.1414,3.164,3.2127,3.2639,3.2834,3.2916,3.2916,3.2916,3.2295,3.1581,3.1171,3.0475,2.9815,2.9387,2.9315,2.9208,2.8852,2.878,2.8766,2.8674,2.8669,2.8791,2.9197,2.9262,2.9283,2.9386,2.9407,2.9407,2.9407,2.9407,2.9407,2.9407,2.9407,2.9407,2.9407,2.9471,2.9512,2.9512,2.9662,2.975,2.9748,2.9848,3.0022,3.0196,3.0241,3.0285,3.0316,3.0316,3.0316,3.0316,3.0273,3.0222,3.0147,3.0034,2.9924,2.9805,2.9755,3.0753,3.2222,3.2279,3.3355,3.4788,2.7625,2.7625,2.7625,2.7625,2.7625,2.7625,2.7625,2.7625,2.7625,2.7625,2.7625,2.7625,2.7625,2.7625,2.7625,2.779,2.7905,2.802,2.802,2.8299,2.8429,2.8317,2.8525,2.8636,2.8621,2.9409,2.9617,2.9212,2.975,3.0225,3.0617,3.1015,3.1112,3.1015,3.0975,3.0855,3.0692,3.0692,3.0609,3.0526,3.0526,3.0526,3.0526,3.0526,3.0526,3.0526,3.0526,3.0526,3.0526,3.0526,3.0526,3.0526,3.0526,3.1004,3.1603,3.1677,3.2231,3.2802,3.2884,3.2916,3.2916,3.2916,3.2384,3.1903,3.1903,3.1171,3.0511,3.0511,3.0511,3.0315,2.9708,2.9601,2.9426,2.8971,2.8781,2.8844,2.9246,2.9181,2.9156,2.9386,2.9407,2.9407,2.9407,2.9407,2.9407,2.9407,2.9407,2.9407,2.9407,2.9407,2.9407,2.9407,2.9512,2.957,2.957,2.9734,2.9801,2.9815,2.9867,2.9931,2.9992,2.9992,2.9992,3.0007,3.0018,3.0022,2.9962,2.9956,2.9857,2.9718,2.9773,3.0734,3.2143,3.2522,3.354,3.4687,2.7625,2.7625,2.7625,2.7625,2.7625,2.7625,2.7625,2.7625,2.7625,2.7625,2.7625,2.7625,2.7625,2.7625,2.7625,2.779,2.7905,2.802,2.802,2.851,2.8826,2.8811,2.9227,2.9499,2.9633,2.9766,2.975,2.9722,3.0576,3.1055,3.1112,3.119,3.1112,3.0975,3.0952,3.0814,3.0692,3.0568,3.0526,3.0526,3.0526,3.0526,3.0526,3.0526,3.0526,3.0526,3.0526,3.0526,3.0526,3.0526,3.0526,3.0526,3.0526,3.0821,3.124,3.1603,3.202,3.2454,3.282,3.2916,3.2916,3.2916,3.2813,3.2755,3.2755,3.1581,3.0511,3.0511,3.0511,3.0475,3.0368,3.035,3.0373,3.0458,2.9954,2.9652,3.0013,2.9513,2.9156,2.9386,2.9407,2.9407,2.9407,2.9407,2.9407,2.9407,2.9407,2.9407,2.9407,2.9407,2.9407,2.9407,2.9427,2.9429,2.9429,2.945,2.947,2.947,2.949,2.9663,2.9992,2.9992,2.9992,2.9992,2.9899,2.9834,2.9817,2.9754,2.9719,2.9701,2.9701,3.0697,3.2274,3.3634,3.4222,3.4316,2.8027,2.7978,2.7894,2.766,2.7625,2.7625,2.7625,2.7625,2.7625,2.7625,2.7625,2.7625,2.7625,2.7625,2.7625,2.7675,2.779,2.7989,2.8268,2.8622,2.8935,2.9273,2.9499,2.9677,2.9793,3.0054,3.0182,3.0182,3.0617,3.0781,3.0699,3.0975,3.1032,3.0935,3.0912,3.0831,3.0692,3.0651,3.0568,3.0526,3.0526,3.0526,3.0526,3.0526,3.0526,3.0526,3.0526,3.0526,3.0526,3.0526,3.0526,3.0526,3.0526,3.0781,3.1201,3.1565,3.1985,3.2386,3.277,3.2916,3.2916,3.2916,3.2916,3.2916,3.2916,3.2331,3.1831,3.1831,3.1831,3.1689,3.1242,3.1171,3.1041,3.0682,3.0353,3.025,3.0493,3.0392,3.0221,3.0089,2.9686,2.9407,2.9407,2.9407,2.9407,2.9407,2.9407,2.9407,2.9407,2.9407,2.9407,2.9407,2.9407,2.9407,2.9407,2.9407,2.9407,2.9407,2.9407,2.9491,2.9663,2.9663,2.9663,2.9663,2.9626,2.9608,2.9589,2.9589,2.9569,2.951,2.9433,3.0381,3.1961,3.3547,3.4093,3.4018]},{"header":{"parameterUnit":"m.s-1","parameterCategory":1,"la1":30.6,"la2":28.766,"lo1":-90.7593,"lo2":-88.6598,"dy":0.0162,"dx":0.0183,"nx":116,"ny":114,"refTime":"2023-05-19T00:00:00:Z","depth":0,"parameterNumber":3,"parameterNumberName":"V-component_of_WINDS"},"data":[0.0,0.0,0.0,0.0,0.0,0.0,0.0,0.0,0.0,0.0,0.0,0.0,0.0,0.0,0.0,0.0,0.0,0.0,0.0,0.0,0.0,0.0,0.0,0.0,0.0,0.0,0.0,0.0,0.0,0.0,0.0,0.0,0.0,0.0,0.0,0.0,0.0,0.0,0.0,0.0,0.0,0.0,0.0,0.0,0.0,0.0,0.0,0.0,0.0,0.0,0.0,0.0,0.0,0.0,0.0,0.0,0.0,0.0,0.0,0.0,0.0,0.0,0.0,0.0,0.0,0.0,0.0,0.0,0.0,0.0,0.0,0.0,0.0,0.0,0.0,0.0,0.0,0.0,0.0,0.0,0.0,0.0,0.0,0.0,0.0,0.0,0.0,0.0,0.0,0.0,0.0,0.0,0.0,0.0,0.0,0.0,0.0,0.0,0.0,0.0,0.0,0.0,0.0,0.0,0.0,0.0,0.0,0.0,0.0,0.0,0.0,0.0,0.0,0.0,0.0,0.0,0.0,0.0,0.0,0.0,0.0,0.0,0.0,0.0,0.0,0.0,0.0,0.0,0.0,0.0,0.0,0.0,0.0,0.0,0.0,0.0,0.0,0.0,0.0,0.0,0.0,0.0,0.0,0.0,0.0,0.0,0.0,0.0,0.0,0.0,0.0,0.0,0.0,0.0,0.0,0.0,0.0,0.0,0.0,0.0,0.0,0.0,0.0,0.0,0.0,0.0,0.0,0.0,0.0,0.0,0.0,0.0,0.0,0.0,0.0,0.0,0.0,0.0,0.0,0.0,0.0,0.0,0.0,0.0,0.0,0.0,0.0,0.0,0.0,0.0,0.0,0.0,0.0,0.0,0.0,0.0,0.0,0.0,0.0,0.0,0.0,0.0,0.0,0.0,0.0,0.0,0.0,0.0,0.0,0.0,0.0,0.0,0.0,0.0,0.0,0.0,0.0,0.0,0.0,0.0,0.0,0.0,0.0,0.0,0.0,0.0,0.0,0.0,0.0,0.0,0.0,0.0,0.0,0.0,0.0,0.0,0.0,0.0,0.0,0.0,0.0,0.0,0.0,0.0,0.0,0.0,0.0,0.0,0.0,0.0,0.0,0.0,0.0,0.0,0.0,0.0,0.0,0.0,0.0,0.0,0.0,0.0,0.0,0.0,0.0,0.0,0.0,0.0,0.0,0.0,0.0,0.0,0.0,0.0,0.0,0.0,0.0,0.0,0.0,0.0,0.0,0.0,0.0,0.0,0.0,0.0,0.0,0.0,0.0,0.0,0.0,0.0,0.0,0.0,0.0,0.0,0.0,0.0,0.0,0.0,0.0,0.0,0.0,0.0,0.0,0.0,0.0,0.0,0.0,0.0,0.0,0.0,0.0,0.0,0.0,0.0,0.0,0.0,0.0,0.0,0.0,0.0,0.0,0.0,0.0,0.0,0.0,0.0,0.0,0.0,0.0,0.0,0.0,0.0,0.0,0.0,0.0,0.0,0.0,0.0,0.0,0.0,0.0,0.0,0.0,0.0,0.0,0.0,0.0,0.0,0.0,0.0,0.0,0.0,0.0,0.0,0.0,0.0,0.0,0.0,0.0,0.0,0.0,0.0,0.0,0.0,0.0,0.0,0.0,0.0,0.0,0.0,0.0,0.0,0.0,0.0,0.0,0.0,0.0,0.0,0.0,0.0,0.0,0.0,0.0,0.0,0.0,0.0,0.0,0.0,0.0,0.0,0.0,0.0,0.0,0.0,0.0,0.0,0.0,0.0,0.0,0.0,0.0,0.0,0.0,0.0,0.0,0.0,0.0,0.0,0.0,0.0,0.0,0.0,0.0,0.0,0.0,0.0,0.0,0.0,0.0,0.0,0.0,0.0,0.0,0.0,0.0,0.0,0.0,0.0,0.0,0.0,0.0,0.0,0.0,0.0,0.0,0.0,0.0,0.0,0.0,0.0,0.0,0.0,0.0,0.0,0.0,0.0,0.0,0.0,0.0,0.0,0.0,0.0,0.0,0.0,0.0,0.0,0.0,0.0,0.0,0.0,0.0,0.0,0.0,0.0,0.0,0.0,0.0,0.0,0.0,0.0,0.0,0.0,0.0,0.0,0.0,0.0,0.0,0.0,0.0,0.0,0.0,0.0,0.0,0.0,0.0,0.0,0.0,0.0,0.0,0.0,0.0,0.0,0.0,0.0,0.0,0.0,0.0,0.0,0.0,0.0,0.0,0.0,0.0,0.0,0.0,0.0,0.0,0.0,0.0,0.0,0.0,0.0,0.0,0.0,0.0,0.0,0.0,0.0,0.0,0.0,0.0,0.0,0.0,0.0,0.0,0.0,0.0,0.0,0.0,0.0,0.0,0.0,0.0,0.0,0.0,0.0,0.0,0.0,0.0,0.0,0.0,0.0,0.0,0.0,0.0,0.0,0.0,0.0,0.0,0.0,0.0,0.0,0.0,0.0,0.0,0.0,0.0,0.0,0.0,0.0,0.0,0.0,0.0,0.0,0.0,0.0,0.0,0.0,0.0,0.0,0.0,0.0,0.0,0.0,0.0,0.0,0.0,0.0,0.0,0.0,0.0,0.0,0.0,0.0,0.0,0.0,0.0,0.0,0.0,0.0,0.0,0.0,0.0,0.0,0.0,0.0,0.0,0.0,0.0,0.0,0.0,0.0,0.0,0.0,0.0,0.0,0.0,0.0,0.0,0.0,0.0,0.0,0.0,0.0,0.0,0.0,0.0,0.0,0.0,0.0,0.0,0.0,0.0,0.0,0.0,0.0,0.0,0.0,0.0,0.0,0.0,0.0,0.0,0.0,0.0,0.0,0.0,0.0,0.0,0.0,0.0,0.0,0.0,0.0,0.0,0.0,0.0,0.0,0.0,0.0,0.0,0.0,0.0,0.0,0.0,0.0,0.0,0.0,0.0,0.0,0.0,0.0,0.0,0.0,0.0,0.0,0.0,0.0,0.0,0.0,0.0,0.0,0.0,0.0,0.0,0.0,0.0,0.0,0.0,0.0,0.0,0.0,0.0,0.0,0.0,0.0,0.0,0.0,0.0,0.0,0.0,0.0,0.0,0.0,0.0,0.0,0.0,0.0,0.0,0.0,0.0,0.0,0.0,0.0,0.0,0.0,0.0,0.0,0.0,0.0,0.0,0.0,0.0,0.0,0.0,0.0,0.0,0.0,0.0,0.0,0.0,0.0,0.0,0.0,0.0,0.0,0.0,0.0,0.0,0.0,0.0,0.0,0.0,0.0,0.0,0.0,0.0,0.0,0.0,0.0,0.0,0.0,0.0,0.0,0.0,0.0,0.0,0.0,0.0,0.0,0.0,0.0,0.0,0.0,0.0,0.0,0.0,0.0,0.0,0.0,0.0,0.0,0.0,0.0,0.0,0.0,0.0,0.0,0.0,0.0,0.0,0.0,0.0,0.0,0.0,0.0,0.0,0.0,0.0,0.0,0.0,0.0,0.0,0.0,0.0,0.0,0.0,0.0,0.0,0.0,0.0,0.0,0.0,0.0,0.0,0.0,0.0,0.0,0.0,0.0,0.0,0.0,0.0,0.0,0.0,0.0,0.0,0.0,0.0,0.0,0.0,0.0,0.0,0.0,0.0,0.0,0.0,0.0,0.0,0.0,0.0,0.0,0.0,0.0,0.0,0.0,0.0,0.0,0.0,0.0,0.0,0.0,0.0,0.0,0.0,0.0,0.0,0.0,0.0,0.0,0.0,0.0,0.0,0.0,0.0,0.0,0.0,0.0,0.0,0.0,0.0,0.0,0.0,0.0,0.0,0.0,0.0,0.0,0.0,0.0,0.0,0.0,0.0,0.0,0.0,0.0,0.0,0.0,0.0,0.0,0.0,0.0,0.0,0.0,0.0,0.0,0.0,0.0,0.0,0.0,0.0,0.0,0.0,0.0,0.0,0.0,0.0,0.0,0.0,0.0,0.0,0.0,0.0,0.0,0.0,0.0,0.0,0.0,0.0,0.0,0.0,0.0,0.0,0.0,0.0,0.0,0.0,0.0,0.0,0.0,0.0,0.0,0.0,0.0,0.0,0.0,0.0,0.0,0.0,0.0,0.0,0.0,0.0,0.0,0.0,0.0,0.0,0.0,0.0,0.0,0.0,0.0,0.0,0.0,0.0,0.0,0.0,0.0,0.0,0.0,0.0,0.0,0.0,0.0,0.0,0.0,0.0,0.0,0.0,0.0,0.0,0.0,0.0,0.0,0.0,0.0,0.0,0.0,0.0,0.0,0.0,0.0,0.0,0.0,0.0,0.0,0.0,0.0,0.0,0.0,0.0,0.0,0.0,0.0,0.0,0.0,0.0,0.0,0.0,0.0,0.0,0.0,0.0,0.0,0.0,0.0,0.0,0.0,0.0,0.0,0.0,0.0,0.0,0.0,0.0,0.0,0.0,0.0,0.0,0.0,0.0,0.0,0.0,0.0,0.0,0.0,0.0,0.0,0.0,0.0,0.0,0.0,0.0,0.0,0.0,0.0,0.0,0.0,0.0,0.0,0.0,0.0,0.0,0.0,0.0,0.0,0.0,0.0,0.0,0.0,0.0,0.0,0.0,0.0,0.0,0.0,0.0,0.0,0.0,0.0,0.0,0.0,0.0,0.0,0.0,0.0,0.0,0.0,0.0,0.0,0.0,0.0,0.0,0.0,0.0,0.0,0.0,0.0,0.0,0.0,0.0,0.0,0.0,0.0,0.0,0.0,0.0,0.0,0.0,0.0,0.0,0.0,0.0,0.0,0.0,0.0,0.0,0.0,0.0,0.0,0.0,0.0,0.0,0.0,0.0,0.0,0.0,0.0,0.0,0.0,0.0,0.0,0.0,0.0,0.0,0.0,0.0,0.0,0.0,0.0,0.0,0.0,0.0,0.0,0.0,0.0,0.0,0.0,0.0,0.0,0.0,0.0,0.0,0.0,0.0,0.0,0.0,0.0,0.0,0.0,0.0,0.0,0.0,0.0,0.0,0.0,0.0,0.0,0.0,0.0,0.0,0.0,0.0,0.0,0.0,0.0,0.0,0.0,0.0,0.0,0.0,0.0,0.0,0.0,0.0,0.0,0.0,0.0,0.0,0.0,0.0,0.0,0.0,0.0,0.0,0.0,0.0,0.0,0.0,0.0,0.0,0.0,0.0,0.0,0.0,0.0,0.0,0.0,0.0,0.0,0.0,0.0,0.0,0.0,0.0,0.0,0.0,0.0,0.0,0.0,0.0,0.0,0.0,0.0,0.0,0.0,0.0,0.0,0.0,0.0,0.0,0.0,0.0,0.0,0.0,0.0,0.0,0.0,0.0,0.0,0.0,0.0,0.0,0.0,0.0,0.0,0.0,0.0,0.0,0.0,0.0,0.0,0.0,0.0,0.0,0.0,0.0,0.0,0.0,0.0,0.0,0.0,0.0,0.0,0.0,0.0,0.0,0.0,0.0,0.0,0.0,0.0,0.0,0.0,0.0,0.0,0.0,0.0,0.0,0.0,0.0,0.0,0.0,0.0,0.0,0.0,0.0,0.0,0.0,0.0,0.0,0.0,0.0,0.0,0.0,0.0,0.0,0.0,0.0,0.0,0.0,0.0,0.0,0.0,0.0,0.0,0.0,0.0,0.0,0.0,0.0,0.0,0.0,0.0,0.0,0.0,0.0,0.0,0.0,0.0,0.0,0.0,0.0,0.0,0.0,0.0,0.0,0.0,0.0,0.0,0.0,0.0,0.0,0.0,0.0,0.0,0.0,0.0,0.0,0.0,0.0,0.0,0.0,0.0,0.0,0.0,0.0,0.0,0.0,0.0,0.0,0.0,0.0,0.0,0.0,0.0,0.0,0.0,0.0,0.0,0.0,0.0,0.0,0.0,0.0,0.0,0.0,0.0,0.0,0.0,0.0,0.0,0.0,0.0,0.0,0.0,0.0,0.0,0.0,0.0,0.0,0.0,0.0,0.0,0.0,0.0,0.0,0.0,0.0,0.0,0.0,0.0,0.0,0.0,0.0,0.0,0.0,0.0,0.0,0.0,0.0,0.0,0.0,0.0,0.0,0.0,0.0,0.0,0.0,0.0,0.0,0.0,0.0,0.0,0.0,0.0,0.0,0.0,1.0766,0.0,0.0,0.0,0.0,0.0,0.0,0.0,0.0,0.0,0.0,0.0,0.0,0.0,0.0,0.0,0.0,0.0,0.0,0.0,0.0,0.0,0.0,0.0,0.0,0.0,0.0,0.0,0.0,0.0,0.0,0.0,0.0,0.0,0.0,0.0,0.0,0.0,0.0,0.0,1.4679,1.4609,1.4563,1.4449,1.4743,1.5464,0.0,0.0,0.0,0.0,0.0,0.0,0.0,0.0,0.0,0.0,0.0,0.0,0.0,0.0,0.0,0.0,0.0,0.0,0.0,0.0,0.0,0.0,0.0,0.0,0.0,0.0,0.0,0.0,0.0,0.0,0.0,0.0,0.0,0.0,0.0,0.0,0.0,0.0,0.0,0.0,0.0,0.0,0.0,0.0,0.0,0.0,0.0,0.0,0.0,0.0,0.0,0.0,0.0,0.0,0.0,0.0,0.0,0.0,0.0,0.0,0.0,0.0,0.0,0.0,0.0,0.0,0.0,0.0,0.0,0.0,0.0,1.0341,0.0,0.0,0.0,0.0,0.0,0.0,0.0,0.0,0.0,0.0,0.0,0.0,0.0,0.0,0.0,0.0,0.0,0.0,0.0,0.0,0.0,0.0,0.0,0.0,0.0,0.0,0.0,0.0,0.0,0.0,0.0,0.0,0.0,0.0,0.0,0.0,0.0,1.5098,1.4401,1.4287,1.4747,1.4657,1.5107,1.5919,1.6123,0.0,0.0,0.0,0.0,0.0,0.0,0.0,0.0,0.0,0.0,0.0,0.0,0.0,0.0,0.0,0.0,0.0,0.0,0.0,0.0,0.0,0.0,0.0,0.0,0.0,0.0,0.0,0.0,0.0,0.0,0.0,0.0,0.0,0.0,0.0,0.0,0.0,0.0,0.0,0.0,0.0,0.0,0.0,0.0,0.0,0.0,0.0,0.0,0.0,0.0,0.0,0.0,0.0,0.0,0.0,0.0,0.0,0.0,0.0,0.0,0.0,0.0,0.0,0.4018,0.3707,0.4129,0.631,0.729,0.7372,0.8258,0.8631,0.8843,0.0,0.0,0.0,0.0,0.0,0.0,0.0,0.0,0.0,0.0,0.0,0.0,0.0,0.0,0.0,0.0,0.0,0.0,0.0,0.0,0.0,0.0,0.0,0.0,0.0,0.0,0.0,0.0,0.0,0.0,0.0,0.0,0.0,0.0,1.569,1.5687,1.5195,1.449,1.4416,1.4845,1.444,1.4612,1.526,1.5792,1.6254,1.6666,0.0,0.0,0.0,0.0,0.0,0.0,0.0,0.0,0.0,0.0,0.0,0.0,0.0,0.0,0.0,0.0,0.0,0.0,0.0,0.0,0.0,0.0,0.0,0.0,0.0,0.0,0.0,0.0,0.0,0.0,0.0,0.0,0.0,0.0,0.0,0.0,0.0,0.0,0.0,0.0,0.0,1.0513,1.0595,0.0,0.0,0.0,0.0,0.0,0.0,0.0,0.0,0.0,0.0,0.0,0.0,0.0,0.0,0.4472,0.6784,0.8245,0.8729,0.3969,0.1465,0.1231,0.2636,0.3814,0.49,0.4991,0.0,0.7981,0.8543,0.0,0.0,0.0,0.0,0.0,0.0,0.0,0.0,0.0,0.0,0.0,0.0,0.0,0.0,0.0,0.0,0.0,0.0,0.0,0.0,0.0,0.0,0.0,0.0,0.0,0.0,0.0,0.0,0.0,0.0,0.0,1.5331,1.5677,1.5691,1.5424,1.4916,1.4422,1.4144,1.4087,1.3929,1.3937,1.421,1.4462,1.5167,1.6069,1.6409,0.0,0.0,0.0,0.0,0.0,0.0,0.0,0.0,0.0,0.0,0.0,0.0,0.0,0.0,0.0,0.0,0.0,0.0,0.0,0.0,0.0,0.0,0.0,0.0,0.0,0.0,0.0,0.0,0.0,0.0,0.0,0.0,0.0,0.0,0.0,0.0,0.0,0.0,0.0,1.1979,1.1413,1.1821,1.2242,1.2898,0.0,0.0,0.0,0.0,0.0,0.0,0.0,0.0,0.0,1.2264,0.9729,0.6406,0.2529,0.3626,0.4287,0.4486,0.2031,0.0942,0.102,0.2198,0.3059,0.3606,0.3912,0.4852,0.63,0.7771,0.8923,0.998,0.0,0.0,0.0,0.0,0.0,1.1083,0.0,0.0,0.0,0.0,0.0,0.0,0.0,0.0,0.0,0.0,0.0,0.0,0.0,0.0,0.0,1.9385,0.0,0.0,0.0,0.0,0.0,0.0,0.0,1.5753,1.6371,1.5853,1.5254,1.4554,1.4191,1.3813,1.3492,1.3492,1.3492,1.3492,1.3492,1.4175,1.5392,1.5932,1.6587,1.7313,0.0,0.0,0.0,0.0,0.0,0.0,0.0,0.0,0.0,0.0,0.0,0.0,0.0,0.0,0.0,0.0,0.0,0.0,0.0,0.0,0.0,0.0,0.0,0.0,0.0,0.0,0.0,0.0,0.0,0.0,0.0,0.0,0.0,0.0,0.0,0.0,0.0,1.2291,1.1768,1.2382,1.2277,1.2491,0.0,0.0,0.0,0.0,0.0,0.0,0.94,0.7199,0.6988,0.9336,0.9115,0.6503,0.1335,0.1335,0.11,0.0786,0.0786,0.0943,0.1335,0.212,0.2591,0.2824,0.3288,0.391,0.4836,0.6824,0.7856,0.8411,0.9974,1.0634,1.0571,1.0179,0.9965,0.9705,0.0,0.0,0.0,0.0,0.0,0.0,0.0,0.0,0.0,0.0,0.0,0.0,0.0,0.0,1.8839,1.9422,1.9335,1.8939,0.0,0.0,0.0,1.6067,1.6547,1.6897,1.713,1.6504,1.5551,1.4199,1.3724,1.355,1.3492,1.3492,1.3492,1.3492,1.3492,1.384,1.4478,1.4433,1.4898,1.565,1.5183,0.0,0.0,0.0,0.0,0.0,0.0,0.0,0.0,0.0,0.0,0.0,0.0,0.0,0.0,0.0,0.0,0.0,0.0,0.0,0.0,0.0,0.0,0.0,0.0,0.0,0.0,0.0,0.0,0.0,0.0,0.0,0.0,0.0,0.0,0.0,0.0,0.0,0.0,1.0866,0.9927,0.0,0.0,0.0,0.0,0.9285,0.9001,0.834,0.7024,0.5781,0.368,0.0705,0.1411,0.1648,0.1335,0.1335,0.1257,0.1257,0.1257,0.1257,0.1335,0.1336,0.1805,0.2511,0.2588,0.3056,0.3908,0.4836,0.6143,0.7672,0.8665,0.8985,0.9,0.9178,0.8753,0.791,0.0,0.0,0.0,0.0,0.0,0.0,0.0,0.0,0.0,0.0,0.0,0.0,0.0,1.8238,1.8698,1.9337,1.923,1.9018,1.8747,0.0,0.0,1.7379,1.725,1.7095,1.6841,1.6181,1.5553,1.4993,1.4466,1.4209,1.4209,1.4209,1.4209,1.4209,1.4209,1.4198,1.4212,1.3894,1.4287,1.5037,1.4867,1.4597,0.0,0.0,0.0,0.0,0.0,0.0,0.0,0.0,0.0,0.0,0.0,0.0,0.0,0.0,0.0,0.0,0.0,0.0,0.0,0.0,0.0,0.0,0.0,0.0,0.0,0.0,0.0,0.0,0.0,0.0,0.0,0.0,0.0,0.0,0.0,0.0,0.0,1.0962,0.98,0.0,0.946,0.886,0.8502,0.8609,0.7224,0.5234,0.2537,0.2026,0.1492,0.0864,0.11,0.1335,0.1335,0.1335,0.1335,0.1257,0.0864,0.0629,0.0628,0.0236,0.0471,0.1099,0.1099,0.1881,0.3207,0.4066,0.5002,0.6009,0.685,0.7202,0.7243,0.7294,0.7202,0.7011,0.0,0.0,0.0,0.0,0.0,0.0,0.0,0.0,0.0,0.0,0.0,1.7306,1.7958,1.8419,1.8775,1.9222,1.9152,1.9133,1.92,0.0,0.0,1.8324,1.7982,1.7368,1.6357,1.6196,1.5842,1.5127,1.4735,1.4569,1.4425,1.4425,1.4353,1.4209,1.4209,1.4209,1.4057,1.3848,1.3927,1.4321,1.4409,1.3988,1.3292,0.0,0.0,0.0,0.0,0.0,0.0,0.0,0.0,0.0,0.0,0.0,0.0,0.0,0.0,0.0,0.0,0.0,0.0,0.0,0.0,0.0,0.0,0.0,0.0,0.0,0.0,0.0,0.0,0.0,0.0,0.0,0.0,0.0,0.0,0.0,1.0197,1.0949,0.9443,0.8441,0.8699,0.7522,0.688,0.7277,0.5893,0.3765,0.1017,0.0549,0.0707,0.1257,0.1335,0.1335,0.1335,0.1335,0.1178,0.0943,0.055,0.0157,-0.0,-0.0314,-0.0314,0.0079,0.0393,0.1099,0.2272,0.3287,0.399,0.4535,0.5938,0.6567,0.6567,0.6567,0.6718,0.6945,0.0,0.0,0.0,0.0,0.0,0.0,0.0,0.0,0.0,0.0,1.7039,1.7765,1.8512,1.8881,1.9075,1.9075,1.9075,1.9201,1.9474,1.8999,0.0,1.8746,1.871,1.7835,1.5954,1.6807,1.6404,1.4713,1.4633,1.4497,1.4201,1.4129,1.392,1.3564,1.3564,1.3775,1.4129,1.4129,1.3848,1.3542,1.3769,1.3087,1.203,0.0,0.0,0.0,0.0,0.0,0.0,0.0,0.0,0.0,0.0,0.0,0.0,0.0,0.0,0.0,0.0,0.0,0.0,0.0,0.0,0.0,0.0,0.0,0.0,0.0,0.0,0.0,0.0,0.0,0.0,0.0,0.0,0.0,1.3267,1.1881,1.0842,1.0633,0.8733,0.7157,0.6318,0.5476,0.5018,0.5018,0.5026,0.4238,0.2582,0.1726,0.1257,0.1335,0.1335,0.1335,0.1335,0.1257,0.0943,0.0314,0.0236,-0.0079,-0.0628,-0.0393,-0.0314,-0.0314,0.0471,0.0864,0.1021,0.2507,0.3132,0.3365,0.5851,0.6945,0.7184,0.718,0.7334,0.7484,0.0,0.0,0.0,0.0,0.0,0.0,0.0,0.0,0.0,0.0,1.6665,1.7456,1.7776,1.8564,1.9075,1.9075,1.9075,1.9198,1.9459,0.0,0.0,1.9348,1.8771,1.8244,1.773,1.7474,1.7095,1.6603,1.6254,1.5965,1.5903,1.5497,1.5292,1.515,1.4856,1.4633,1.4489,1.4489,1.4274,1.3985,1.4593,1.3987,1.2848,0.0,0.0,0.0,0.0,0.0,0.0,0.0,0.0,0.0,0.0,0.0,0.0,0.0,0.0,0.0,0.0,0.0,0.0,0.0,0.0,0.0,0.0,0.0,0.0,0.0,0.0,0.0,0.0,0.0,0.0,0.0,0.0,1.261,1.1878,1.0396,0.9342,0.925,0.7651,0.6468,0.624,0.5476,0.5093,0.5246,0.5254,0.4389,0.2347,0.1331,0.0941,0.1257,0.1335,0.1335,0.1335,0.0786,0.055,0.0471,-0.0393,-0.0864,-0.0864,-0.1257,-0.1178,-0.0707,-0.0471,0.0236,0.1257,0.2272,0.3051,0.3752,0.5309,0.6012,0.6089,0.671,0.7099,0.7334,0.0,0.0,0.0,0.0,0.0,0.0,0.0,0.0,0.0,0.0,1.6703,1.7444,1.7906,1.8638,1.9075,1.9075,1.9075,1.9147,1.9291,0.0,1.9412,1.9213,1.9006,1.8585,1.7965,1.7852,1.7647,1.7373,1.7097,1.6742,1.6324,1.6061,1.5647,1.5292,1.507,1.4919,1.4848,1.4633,1.4561,1.4625,1.5062,1.4489,1.3414,1.3824,1.2856,1.1362,1.2402,1.1992,1.1128,1.1935,0.0,0.0,0.0,0.0,0.0,0.0,0.0,0.0,0.0,0.0,0.0,0.0,0.0,0.0,0.0,0.0,0.0,0.0,0.0,0.0,0.0,0.0,0.0,0.0,1.3022,1.2263,1.1166,1.0013,0.9084,0.878,0.7855,0.7011,0.6402,0.5941,0.5634,0.5401,0.5485,0.4779,0.3052,0.2115,0.149,0.1335,0.1335,0.1335,0.1335,0.0628,0.0236,0.0236,-0.0786,-0.1335,-0.1335,-0.165,-0.1572,0.0,-0.0786,-0.0,0.1099,0.1803,0.2584,0.0,0.0,0.0,0.0,0.0,0.7253,0.7411,0.0,0.0,0.0,0.0,0.0,0.0,0.0,0.0,0.0,0.0,0.0,1.7606,1.8496,1.8902,1.9075,1.9075,1.9156,1.9125,0.0,1.9156,1.9072,1.8712,1.9165,1.8816,1.7638,1.8134,1.8134,1.7579,1.752,1.7097,1.6254,1.6184,1.5692,1.4776,1.4776,1.4919,1.5133,1.4776,1.4848,1.5204,1.5204,1.4662,1.3832,1.3902,1.3384,1.2598,1.2656,1.2071,1.1369,1.2029,0.0,0.0,0.0,0.0,0.0,0.0,0.0,0.0,0.0,0.0,0.0,0.0,0.0,0.0,0.0,0.0,0.0,0.0,0.0,0.0,0.0,0.0,0.0,0.0,1.2938,1.2224,1.1186,1.0443,0.9765,0.8927,0.878,0.8246,0.7019,0.6714,0.6409,0.5941,0.587,0.5404,0.4467,0.0,0.0,0.0,0.0,0.1335,0.1335,0.055,0.0079,-0.0314,-0.1021,-0.1493,-0.1808,-0.165,-0.1572,-0.1493,-0.0786,-0.0,0.0628,0.1255,0.2037,0.2978,0.5231,0.6163,0.6472,0.7249,0.7484,0.0,0.0,0.0,0.0,0.0,0.0,0.0,0.0,0.0,0.0,1.6187,1.6817,1.7445,1.8287,1.8784,1.9075,1.9075,1.9297,1.9324,1.9014,1.8596,1.8442,1.8712,1.8776,1.8816,1.8787,1.8875,1.8875,1.8798,1.8327,1.8056,1.7852,1.7373,1.6603,1.5762,1.5762,1.5338,1.4705,1.4991,1.5133,1.5204,1.5204,1.4879,1.4474,1.5122,1.4882,1.4128,1.4198,1.3862,1.3552,1.3954,1.412,1.413,1.4072,1.3967,0.0,0.0,0.0,0.0,0.0,0.0,0.0,0.0,0.0,0.0,0.0,0.0,0.0,0.0,0.0,0.0,0.0,0.0,0.0,1.4007,1.3157,1.2526,1.2305,1.1484,1.0588,0.9765,0.9231,0.8846,0.8542,0.7476,0.7092,0.7774,0.663,0.5857,0.5844,0.445,0.0,0.2276,0.1649,0.1335,0.1335,0.0157,-0.0314,-0.0079,0.0,0.0,-0.1415,-0.1415,-0.1336,-0.1335,-0.1178,-0.0471,0.0628,0.0707,0.2271,0.4535,0.5079,0.6086,0.7249,0.7407,0.7484,0.7633,0.0,0.0,0.0,0.0,0.0,0.0,0.0,0.0,0.0,0.0,1.6396,1.7005,1.7857,1.8322,1.8668,1.8944,1.8726,1.8681,1.8926,1.8317,1.8246,1.8846,1.8898,1.8947,1.9131,1.9075,1.9075,1.9075,1.8808,1.8539,1.8269,1.7998,1.7304,1.6324,1.6603,1.6123,1.5221,1.5338,1.5196,1.4919,1.4919,1.4776,1.4641,1.5078,1.4856,1.4346,1.4346,1.4137,1.3825,1.4001,1.4566,1.5152,1.5018,1.5287,1.5533,0.0,0.0,0.0,0.0,0.0,0.0,0.0,0.0,0.0,0.0,0.0,0.0,0.0,0.0,1.5944,1.507,0.0,1.4387,1.3876,1.3536,1.3251,1.2959,1.2291,1.1484,1.0588,1.0062,0.9604,0.9296,0.8309,0.7927,0.8542,0.7015,0.6089,0.6224,0.4681,0.3365,0.2511,0.1728,0.1335,0.1415,0.0157,-0.0236,0.0157,-0.1178,-0.1572,-0.1335,-0.1335,-0.1335,-0.1257,-0.0943,-0.0236,0.0707,0.1724,0.3285,0.5002,0.5467,0.6398,0.7484,0.7484,0.7787,0.8169,0.0,0.0,0.0,0.0,0.0,0.0,0.0,0.0,0.0,0.0,1.6107,1.6643,1.7467,1.7733,1.8103,0.0,1.8047,1.7902,1.8689,1.8062,1.7998,1.8834,1.8931,1.9008,1.9075,1.9075,1.9075,1.9075,1.9075,1.8875,1.8472,1.8472,1.7784,1.6673,1.7166,1.676,1.5655,1.5621,1.5275,1.4864,1.4784,1.4713,1.4713,1.4569,1.4418,1.4274,1.4129,1.392,1.3637,1.3702,1.4474,1.5525,1.5816,1.6633,1.7353,1.665,1.6377,0.0,0.0,0.0,0.0,0.0,0.0,0.0,0.0,1.7288,1.717,1.6509,1.6333,1.5988,1.4811,1.4488,1.4234,1.3678,1.392,1.3977,1.3528,1.3098,1.2519,1.1558,1.0887,1.0363,0.99,0.8988,0.8689,0.9155,0.7403,0.6405,0.6689,0.4991,0.3677,0.2744,0.1961,0.157,0.1415,0.0314,-0.0157,0.0079,-0.1021,-0.1493,-0.1335,-0.1335,-0.1257,-0.11,-0.0236,0.0314,0.0942,0.3129,0.4377,0.5079,0.6056,0.6893,0.766,0.766,0.8036,0.8713,0.0,0.0,0.0,0.0,0.0,0.0,0.0,0.0,0.0,0.0,0.0,0.0,0.0,0.0,0.0,0.0,1.7778,1.7533,1.8259,1.7509,1.7392,1.8104,1.8269,1.8596,1.9075,1.9075,1.9075,1.9075,1.9075,1.9075,1.9008,1.9008,1.824,1.6872,1.7235,1.6603,1.5275,1.5647,1.5726,1.5655,1.5284,1.5133,1.5062,1.4418,1.4561,1.4982,1.4346,1.4057,1.4057,1.4402,1.4601,1.4958,1.6298,1.6835,1.6692,1.5272,1.5754,1.6787,1.7068,1.8856,2.0393,1.9275,1.8487,1.7845,0.0,1.6792,1.6446,1.5872,1.5324,1.4784,1.46,1.407,1.3685,1.3977,1.4057,1.4201,1.4418,1.4122,1.3535,1.282,1.1558,1.0738,1.0663,0.9453,0.9301,1.0732,0.8008,0.6949,0.8313,0.6157,0.4457,0.3677,0.2974,0.2037,0.0707,0.0236,-0.0157,-0.0471,-0.1257,-0.1493,-0.1335,-0.1335,-0.0943,-0.0314,0.0863,0.1411,0.1646,0.3908,0.4927,0.5148,0.6554,0.7546,0.8208,0.8208,0.8277,0.8636,0.0,0.0,0.0,0.0,0.0,0.0,0.0,0.0,0.0,0.0,0.0,0.0,0.0,0.0,0.0,1.7622,1.7386,1.7484,1.81,1.7739,1.7744,1.8432,1.8549,1.8674,1.8942,1.9075,1.9075,1.9075,1.9075,1.9075,1.9065,1.8808,1.7978,1.6932,1.7226,1.6603,1.5204,1.57,1.5709,1.5426,1.5275,1.5062,1.4848,1.4489,1.4489,1.4378,1.2699,1.2049,0.0,1.2257,1.2522,1.3175,1.5494,1.5618,1.4728,1.3884,1.3949,1.4597,1.6036,1.7991,1.9394,1.866,1.8249,1.7945,1.761,1.7427,1.7197,1.6513,1.6228,1.5807,1.5117,1.476,1.4625,1.4418,1.4808,1.509,1.4952,1.48,1.4336,1.3346,1.2291,1.1484,1.1037,0.9604,0.9382,1.0962,0.8542,0.7484,0.8627,0.6769,0.5148,0.383,0.313,0.235,0.1336,0.055,0.0157,0.0079,-0.0943,-0.1178,-0.0707,-0.11,-0.0707,0.0314,0.1176,0.2115,0.2973,0.4377,0.5312,0.5838,0.7281,0.7956,0.8136,0.8136,0.8784,0.9768,0.0,0.0,0.0,0.0,0.0,0.0,0.0,0.0,0.0,0.0,0.0,0.0,0.0,0.0,1.7338,1.7112,1.7152,1.7438,1.8074,1.7926,1.8113,1.8633,1.8741,1.8741,1.8607,1.8875,1.8875,1.8596,1.8875,1.8865,1.8596,1.8337,1.7716,1.6802,1.695,1.6324,1.5204,1.548,1.5417,1.5062,1.5062,1.4848,1.4569,1.4497,1.433,1.3894,1.2094,1.1365,1.1119,1.0118,1.0756,1.2424,1.4463,1.418,1.3005,1.2439,1.249,1.3168,1.5103,1.7103,1.8599,1.8289,1.8113,1.8008,1.8008,1.8008,1.793,1.7432,1.7217,1.6932,1.5965,1.5604,1.5426,1.5185,1.5511,1.5748,1.5538,1.5503,1.5014,1.3645,1.3025,1.2218,1.1186,0.983,0.9609,1.1037,0.9074,0.8093,0.8775,0.7383,0.5918,0.4375,0.3675,0.2898,0.2041,0.1099,0.0628,0.055,-0.0314,-0.055,-0.0079,-0.0392,0.0,0.0942,0.1802,0.2817,0.3908,0.4921,0.5752,0.6536,0.7716,0.8356,0.8629,0.8563,0.946,1.0545,0.0,0.0,0.0,0.0,0.0,0.0,0.0,0.0,0.0,0.0,0.0,0.0,0.0,0.0,1.6761,1.7365,1.7202,1.7373,1.8051,1.8017,1.8092,1.8297,1.8607,1.8539,1.8008,1.8539,1.8327,1.7442,1.8327,1.8327,1.7451,1.7794,1.752,1.6603,1.6184,1.5762,1.5204,1.4776,1.4641,1.4641,1.4641,1.4641,1.4569,1.4274,1.4196,1.423,1.3637,1.3415,1.2806,0.8725,1.0119,1.3444,1.3546,1.2996,1.2121,1.1015,1.2018,1.3663,1.4637,1.6979,1.8996,1.8723,1.8329,1.8008,1.8008,1.8144,1.8269,1.8269,1.7765,1.7404,1.7335,1.6367,1.5723,1.6451,1.6108,1.5905,1.6336,1.6336,1.5601,1.3717,1.3462,1.2872,0.0,1.0368,1.0218,1.1037,0.9604,0.8775,0.9003,0.8241,0.7088,0.5622,0.4921,0.3984,0.2503,0.188,0.1255,0.0628,0.055,0.055,0.0628,0.1255,0.1568,0.1646,0.3129,0.3752,0.3908,0.5541,0.6449,0.702,0.7727,0.885,1.0152,0.9958,1.0165,1.0565,0.0,0.0,0.0,0.0,0.0,0.0,0.0,0.0,0.0,0.0,0.0,0.0,0.0,0.0,0.0,0.0,1.81,1.8766,1.9215,1.8755,1.8596,1.8818,1.761,1.7207,1.7784,1.7833,1.7842,1.7803,1.8144,1.7852,1.7079,1.6811,1.6254,1.5471,1.5196,1.4991,1.4776,1.4919,1.5141,1.5371,1.5371,1.5078,1.4585,1.4639,1.4275,1.3762,0.0,1.1565,0.8399,0.4463,0.4032,0.5372,0.7578,0.8069,0.8025,0.9086,1.1094,1.332,1.5083,1.6663,1.7851,1.8161,1.8093,1.8008,1.8144,1.8269,1.8337,1.8405,1.8532,1.8428,1.8026,1.7424,1.6939,1.6751,1.6422,1.6122,1.6019,1.6182,1.5601,1.3717,1.3535,0.0,0.0,0.0,0.0,1.1037,1.0137,0.9614,0.976,0.8998,0.7918,0.6451,0.5848,0.4691,0.3132,0.2662,0.2036,0.1255,0.1255,0.1333,0.1488,0.2582,0.2817,0.2506,0.3988,0.4921,0.5464,0.6619,0.7358,0.7992,0.9074,0.9759,1.0239,1.0765,1.1778,1.2789,0.0,0.0,0.0,0.0,0.0,0.0,0.0,0.0,0.0,0.0,0.0,0.0,0.0,0.0,0.0,0.0,0.0,1.9239,1.9546,1.9117,1.8946,1.9229,1.8143,1.7859,1.849,1.8312,1.8197,1.8207,1.7958,1.751,1.6673,1.6184,1.5621,1.4982,1.4705,1.4497,1.4418,1.4705,1.4848,1.5015,1.4992,1.4656,1.4237,1.4421,1.4067,0.0,1.1516,0.7829,0.3539,0.1096,0.2539,0.5411,0.5982,0.6984,0.8035,0.8831,1.1107,1.3819,1.5752,1.6845,1.7523,1.7872,1.8008,1.8076,1.8269,1.8337,1.8414,1.8549,1.8952,1.9113,1.8659,1.8255,1.7971,1.7886,1.7309,1.6823,1.6595,1.6543,1.5749,1.3732,1.3535,1.2872,0.0,0.0,0.0,1.1037,1.0588,1.0293,1.0293,0.9528,0.8609,0.7524,0.6542,0.547,0.438,0.383,0.3363,0.2817,0.2817,0.2893,0.3047,0.3828,0.3988,0.3677,0.5229,0.6157,0.6773,0.7769,0.8527,0.9057,0.9898,1.039,1.0742,1.193,1.3186,1.4011,0.0,0.0,0.0,0.0,0.0,0.0,0.0,0.0,0.0,0.0,0.0,0.0,0.0,0.0,0.0,0.0,0.0,0.0,1.9252,1.9097,1.9153,1.9409,1.9883,2.0011,1.9887,1.9715,1.9247,1.8573,1.7949,1.7161,1.6201,1.5843,1.5413,1.4925,1.4506,1.4148,1.3852,1.3867,1.3665,1.3411,1.3417,1.3312,1.3245,1.3518,1.3586,1.2858,0.7882,0.2985,-0.1049,-0.0819,0.5576,1.2655,0.8595,0.9513,1.184,1.017,1.215,1.518,1.657,1.7485,1.8008,1.8008,1.8008,1.8076,1.8269,1.8414,1.8549,1.8741,1.9061,1.9364,1.9356,1.885,1.8729,1.951,1.8538,1.7656,1.7757,1.7234,1.598,1.3755,1.3535,1.2872,1.126,1.1111,0.0,1.1111,0.0,1.0962,1.0588,0.983,0.9226,0.8851,0.7165,0.6318,0.624,0.5389,0.5004,0.5082,0.5004,0.5079,0.5157,0.5157,0.5157,0.5312,0.6923,0.7609,0.774,0.9043,0.9839,1.0251,1.0321,1.0811,1.1751,1.3515,1.4391,1.4482,0.0,0.0,0.0,0.0,0.0,0.0,0.0,0.0,0.0,0.0,0.0,0.0,0.0,0.0,0.0,0.0,0.0,0.0,1.9961,1.9617,1.9469,1.946,1.8251,1.807,1.9209,1.8861,1.8778,1.9026,1.8247,1.6821,1.4801,1.4296,1.2968,1.0893,1.1185,1.1032,1.0453,1.0492,1.1134,1.2051,1.1983,1.087,0.9766,1.3715,1.4508,1.2835,0.7845,0.2967,-0.0648,0.3343,0.7495,1.0608,0.8339,0.938,1.1553,1.2065,1.3914,1.6013,1.734,1.7852,1.8008,1.8212,1.8202,1.8269,1.8607,1.8674,1.8808,1.9008,1.9408,1.9829,2.015,1.9463,1.8884,1.9069,1.7849,1.6768,1.6366,1.616,1.5419,1.3702,1.3535,1.2945,1.1484,1.1335,0.0,0.0,1.1409,1.1335,1.1409,1.0732,1.0432,1.0507,0.8917,0.7778,0.7157,0.5696,0.5312,0.5854,0.5312,0.5619,0.685,0.685,0.7222,0.7821,0.8822,0.919,0.9038,1.0014,1.0685,1.1129,1.1744,1.2575,1.3615,1.4544,1.5822,1.6917,0.0,0.0,0.0,0.0,0.0,0.0,0.0,0.0,0.0,0.0,0.0,0.0,0.0,0.0,0.0,0.0,0.0,0.0,0.0,1.9606,1.9405,1.9418,1.8469,1.8425,1.9534,1.8979,1.9053,1.9837,1.8342,1.6788,1.5187,1.4056,1.2289,1.0128,1.0128,0.9702,0.8997,0.965,1.0325,0.0,0.0,1.15,1.0251,0.9271,0.8322,0.7145,0.4013,0.2047,0.1699,0.6083,0.8619,0.9831,0.914,1.0419,1.2249,1.2409,1.4101,1.6109,1.7239,1.7725,1.8076,1.8269,1.8269,1.8422,1.874,1.883,1.8898,1.92,1.9516,1.9912,2.0308,1.9772,1.9392,1.9576,1.8242,1.7147,1.6874,1.6394,1.5538,1.4122,1.3673,1.3237,1.2505,1.2137,1.199,0.0,1.1774,1.1632,1.1855,1.1186,1.0887,1.1111,0.99,0.8993,0.8528,0.7306,0.7003,0.7842,0.7375,0.7604,0.8528,0.8528,0.8822,0.9266,0.0,1.0323,1.0527,1.1211,1.1833,1.2436,1.3059,1.3645,1.4308,1.5514,1.6723,1.79,0.0,0.0,0.0,0.0,0.0,0.0,0.0,0.0,0.0,0.0,0.0,0.0,0.0,0.0,0.0,0.0,0.0,0.0,0.0,0.0,1.9192,1.9214,1.9402,1.9698,2.0127,1.9522,1.9585,2.0304,1.8079,1.6595,1.5679,1.3745,1.1871,1.0065,0.9445,0.861,0.7716,0.8976,0.9227,0.891,1.101,1.1801,1.0881,0.0,0.0,-0.0076,-0.0851,0.1153,0.46,0.807,0.969,1.0366,1.0683,1.2051,1.3339,1.2374,1.3776,1.5886,1.6802,1.751,1.8076,1.8269,1.8337,1.8419,1.8732,1.8807,1.8984,1.9474,1.9665,1.9893,2.0345,2.01,2.0012,2.0375,1.9076,1.7972,1.7882,1.6973,1.5922,1.4784,1.4106,1.3745,1.3738,1.3222,1.2931,1.3084,1.2358,1.1929,1.2003,1.1335,1.1037,1.1111,1.0426,1.0045,0.9895,0.9226,0.9226,0.9895,0.9895,0.997,1.0045,1.0045,1.0121,1.026,0.0,0.0,1.1938,1.2528,1.3238,1.388,1.4179,1.4462,1.4742,1.6345,1.7425,1.8247,0.0,0.0,0.0,0.0,0.0,0.0,0.0,0.0,0.0,0.0,1.5604,1.6915,0.0,0.0,0.0,0.0,0.0,0.0,0.0,0.0,0.0,1.8731,1.8853,1.9042,1.9202,1.9325,1.914,1.8608,1.6944,1.4739,1.2057,1.0166,0.7797,0.5209,0.5059,0.4113,0.2573,0.2766,0.2303,0.1541,0.2877,0.2982,0.2184,0.0586,0.0,0.0,-0.0149,0.1633,0.5004,1.0741,1.2764,1.2868,1.2947,1.3215,1.3688,1.4648,1.5317,1.6026,1.7442,1.7862,1.8076,1.8414,1.8482,1.8562,1.8945,1.903,1.9182,1.976,2.02,2.0662,2.1404,2.116,2.07,2.0247,1.9015,1.788,1.6982,1.6439,1.5848,1.4974,1.476,1.4537,1.4235,1.4083,0.0,0.0,0.0,1.2806,1.2077,1.2003,1.1781,1.1111,1.0956,1.0576,0.9895,0.9744,0.9744,0.9895,0.9895,1.0271,1.0881,1.0881,1.1254,1.1922,0.0,0.0,1.2817,1.3608,1.434,1.5036,1.5095,1.566,1.6522,1.7453,1.822,1.8834,0.0,0.0,0.0,0.0,0.0,0.0,0.0,0.8178,0.947,1.173,1.3032,1.4729,1.7246,1.8068,0.0,0.0,0.0,0.0,0.0,0.0,0.0,0.0,0.0,0.0,1.849,1.8808,1.8989,1.8993,0.0,1.5059,1.4309,1.0463,0.6716,0.3133,0.2932,0.1934,0.0402,-0.0136,-0.0683,-0.1095,-0.0903,-0.0489,0.0,0.0,0.0,0.0,0.0,0.0875,0.313,1.0911,1.3494,1.3469,1.347,1.3492,1.3637,1.4338,1.5108,1.5886,1.6594,1.7442,1.8202,1.8414,1.8549,1.869,1.8992,1.9199,1.946,2.0104,2.0152,2.0437,2.1524,2.0932,2.028,2.0323,1.9351,1.8334,1.7617,1.7008,1.6464,1.5974,1.533,1.5046,1.5455,1.5171,1.5029,1.518,0.0,1.4106,1.2879,1.2445,1.215,1.1706,1.1335,1.1105,1.1174,1.0726,1.0726,1.1168,1.1607,1.1977,1.2358,1.2718,1.315,1.352,1.378,0.0,1.4162,1.4574,1.5197,1.5842,1.6038,1.645,1.6968,1.7696,1.8172,1.8499,0.0,0.0,0.0,0.0,0.0,0.0,0.0,0.4326,0.5798,0.8672,1.027,1.242,1.5831,1.7205,1.7935,0.0,0.0,0.0,0.0,0.0,0.0,0.0,0.0,0.0,0.0,0.0,0.0,1.8545,1.5688,0.0,0.0,0.0,0.0,0.0,0.1395,0.0399,-0.0861,-0.167,-0.2211,0.0,0.0,-0.2017,0.0,0.0,0.0,0.0,0.0,0.0,0.1066,0.829,1.0849,1.1217,1.2161,1.2804,1.3317,1.3382,1.4435,1.5573,1.586,1.7079,1.8337,1.8482,1.8684,1.8827,1.8995,1.9313,1.9771,2.0374,2.0201,2.0329,2.1568,2.0669,1.9995,2.0616,1.9775,1.8973,1.8554,1.7787,1.7182,1.6959,1.5974,1.5683,1.6612,1.6105,0.0,1.6044,0.0,0.0,1.36,1.2739,1.2305,1.2305,1.1706,1.1632,1.2298,1.1706,1.1706,1.2305,1.2952,1.3317,1.3535,1.403,1.4348,1.4474,1.434,0.0,0.0,1.541,1.5869,1.6477,1.6986,1.7176,1.7245,1.7774,1.8104,1.824,0.0,0.0,0.0,0.0,0.0,0.0,0.0,0.3009,0.4137,0.5555,0.851,1.1205,1.3186,1.5224,1.6727,0.0,0.0,0.0,0.0,0.0,0.0,0.0,0.0,0.0,0.0,0.0,0.0,1.4907,1.3182,0.0,0.0,0.0,0.0,0.0,0.0,-0.1649,-0.232,-0.2715,0.0,0.0,0.0,0.0,0.0,0.0,0.0,0.0,0.0,0.0,0.014,0.1314,0.2342,0.3811,0.7827,1.0655,1.2692,1.3016,1.3978,1.5172,1.6417,1.7501,1.8337,1.8482,1.8684,1.8892,1.921,1.9538,1.9996,2.0755,2.0799,2.0994,2.1884,2.1302,2.0758,2.1081,2.0122,1.9253,1.8951,1.833,1.7642,1.7189,1.689,1.676,1.683,1.6682,1.6612,1.676,0.0,0.0,1.36,1.2739,1.2305,1.2305,1.2224,1.2224,1.2305,1.2224,1.2224,1.2305,1.2372,1.2806,1.3528,1.3162,1.3452,1.4055,0.0,0.0,0.0,1.59,1.6455,1.6922,1.7619,1.7901,1.7901,1.7969,1.8375,1.8844,0.0,0.0,0.0,0.0,0.0,0.0,-0.2928,-0.1874,-0.033,0.1834,0.4696,0.7779,1.1045,1.2809,1.4631,0.0,0.0,0.0,0.0,0.0,0.0,0.0,0.0,0.0,0.0,0.0,1.7934,1.739,1.2232,0.0,0.0,0.0,0.0,0.0,0.0,-0.3378,-0.3471,-0.3445,0.0,0.0,0.0,0.0,0.0,0.0,0.0,0.0,0.0,0.0,0.0753,0.129,0.2935,0.5105,0.6747,0.8983,1.1178,1.2011,1.3376,1.4838,1.5913,1.7285,1.8405,1.8482,1.8741,1.9023,1.9127,1.9644,2.0149,2.0325,2.057,2.0942,2.1625,2.1124,2.0775,2.1336,2.0957,2.0482,1.9994,1.9532,1.8839,1.792,1.7569,1.7235,1.6751,0.0,1.683,0.0,0.0,0.0,1.4895,1.4106,1.3665,1.3665,1.3665,1.3665,1.3665,1.3244,1.3025,1.3025,1.3025,1.3288,1.3807,1.4164,1.4527,1.5045,0.0,0.0,0.0,1.6722,1.7243,1.7807,1.8398,1.8576,1.8633,1.91,1.9166,1.9044,0.0,0.0,0.0,0.0,0.0,-0.5803,-0.6484,-0.566,-0.4085,-0.1699,0.0935,0.4062,0.8093,1.0172,1.2377,1.5245,0.0,0.0,0.0,0.0,0.0,0.0,0.0,0.0,0.0,0.0,1.6615,1.5953,1.0399,0.6328,0.0,0.0,-0.2296,-0.413,0.0,0.0,0.0,0.0,0.0,0.0,0.0,0.0,0.0,0.0,0.0,0.0,0.0,0.0,0.0,0.0,0.0,0.6101,0.6129,0.7612,0.9614,1.1121,1.288,1.4637,1.5678,1.7217,1.8482,1.8549,1.8772,1.904,1.9253,1.9808,2.0293,2.0109,2.0332,2.0692,2.1091,2.0661,2.0452,2.1153,2.1385,2.1236,2.0727,2.0529,2.0,1.8751,1.8395,1.7888,1.6961,1.6748,1.676,0.0,0.0,0.0,0.0,1.5613,1.5037,1.4601,1.4601,1.4601,1.4601,1.4099,1.3818,1.3818,1.372,1.3909,1.4368,1.4706,1.5055,1.5505,0.0,0.0,0.0,1.6772,1.7278,1.7877,1.8581,1.8984,1.9175,1.9695,1.9652,1.9375,0.0,0.0,0.0,0.0,0.0,0.0,-0.7768,-0.7335,-0.6387,-0.4766,-0.2373,0.0504,0.4079,0.7246,1.0041,1.2244,0.0,0.0,0.0,0.0,0.0,0.0,0.0,0.0,0.0,0.0,1.252,0.7941,0.7087,0.4631,0.0459,-0.2195,-0.3249,-0.2887,0.0,0.0,0.0,0.0,0.0,0.0,0.0,0.0,0.0,0.0,0.0,0.0,0.0,0.0,0.0,0.0,0.0,0.0,0.0,0.6588,0.8184,1.0412,1.2602,1.4654,1.618,1.751,1.8549,1.8751,1.8778,1.8994,1.9748,2.0125,2.0408,2.0475,2.0337,2.0243,2.04,1.9982,1.9792,2.0415,2.1056,2.1289,2.0762,2.1036,2.0831,1.9609,1.9565,1.8985,1.7556,1.6701,0.0,0.0,0.0,0.0,0.0,1.6908,1.6184,1.4673,1.4601,1.4601,1.4601,1.4601,1.4601,1.4601,1.4198,1.4377,1.5189,1.4289,1.4336,0.0,0.0,0.0,0.0,1.575,1.6247,1.6772,1.8057,1.891,1.9271,1.9334,1.9628,2.0107,0.0,0.0,0.0,0.0,0.0,0.0,0.0,-0.8183,-0.7466,-0.6889,-0.4417,-0.1693,0.0848,0.3993,0.7267,1.0532,0.0,0.0,0.0,0.0,0.0,0.0,0.0,0.0,0.0,0.0,0.0,1.0343,0.6379,0.4085,0.3338,-0.1211,-0.3183,-0.282,-0.3848,-0.4156,0.0,0.0,0.0,0.0,0.0,0.0,0.0,0.0,0.0,0.0,0.0,0.0,0.0,0.0,0.0,0.0,0.0,0.0,0.0,1.0413,1.2034,1.3623,1.4772,1.6017,1.7049,1.7224,1.7796,1.8486,1.9144,1.9703,2.0054,1.9932,2.0048,2.0089,1.9768,1.9893,2.0362,2.1268,2.1582,2.1749,2.1734,2.1617,2.096,1.9571,1.8753,1.8012,0.0,0.0,0.0,0.0,0.0,0.0,0.0,1.6682,1.6533,1.6184,1.6184,1.6184,1.6184,1.5683,1.5275,1.5032,1.4287,1.4109,1.4289,1.4043,0.0,0.0,0.0,0.0,0.0,1.6347,1.7098,1.7684,1.8866,1.946,1.9546,1.9546,1.9912,2.033,0.0,0.0,0.0,0.0,0.0,0.0,0.0,-0.8874,-0.8332,-0.8022,-0.6286,-0.4206,-0.2021,0.0862,0.4055,0.7628,0.0,0.0,0.0,0.0,0.0,0.0,0.0,0.0,0.0,0.9756,0.8977,0.8153,0.4471,0.2707,0.266,-0.1568,-0.3283,-0.2824,-0.3567,-0.3776,0.0,0.0,0.0,0.0,0.0,0.0,-0.3226,0.0,0.0,0.0,0.0,0.0,0.0,0.0,0.0,0.0,0.0,0.0,0.0,0.0,1.1611,1.2857,1.4171,1.5311,1.6266,1.6854,1.7641,1.8405,1.9028,1.9572,1.9882,1.9507,1.9666,1.9698,1.9151,1.9544,2.0104,2.0562,2.1374,2.1844,2.1661,2.1703,2.1272,1.9941,1.8697,0.0,0.0,0.0,0.0,0.0,0.0,0.0,0.0,1.6542,1.6682,1.676,1.683,1.6908,1.6908,1.626,1.5859,1.563,1.4781,1.4391,1.4381,1.4179,0.0,0.0,0.0,0.0,0.0,1.6058,1.6805,1.7474,1.8369,1.9033,1.939,1.939,1.9711,2.0171,0.0,0.0,0.0,0.0,0.0,0.0,0.0,0.0,-0.8947,-0.8231,-0.7726,-0.663,-0.4333,-0.1973,0.0739,0.3937,0.0,0.0,0.0,0.0,0.0,0.0,0.0,0.0,0.0,0.7521,0.5575,0.2651,0.1907,0.0791,-0.0553,-0.2659,-0.3294,-0.2653,-0.3081,-0.3308,0.0,0.0,0.0,0.0,0.0,0.0,0.0,0.0,0.0,0.0,0.0,0.0,0.0,0.0,0.0,0.0,0.0,0.0,0.0,0.0,0.0,0.0,0.0,1.5148,1.6093,1.7248,1.7991,1.859,1.9364,1.9767,0.0,1.939,1.9225,1.907,1.8576,1.8901,1.9165,1.8846,2.0575,2.1672,2.0912,2.1522,2.1651,2.0488,1.925,0.0,1.8793,0.0,0.0,0.0,0.0,0.0,0.0,1.6473,1.6603,1.6673,1.6802,1.6862,1.6862,1.6505,1.6285,1.6221,1.546,1.5084,1.5047,1.468,0.0,0.0,0.0,0.0,0.0,1.5186,1.5748,1.6312,1.6922,1.7835,1.8771,1.8839,1.9172,1.97,0.0,0.0,0.0,0.0,0.0,0.0,0.0,0.0,0.0,0.0,-0.675,-0.5762,-0.4362,-0.2771,-0.0607,0.0,0.0,0.0,0.0,0.0,0.0,0.0,0.0,0.0,0.0,0.5399,0.4212,0.3156,0.2214,0.12,0.0123,-0.0698,-0.1089,-0.1145,-0.2299,0.0,0.0,0.0,0.0,0.0,0.0,0.0,0.0,0.0,0.0,0.0,-0.1951,-0.0605,0.0,0.0,0.0,0.0,0.0,0.0,0.0,0.0,1.1007,1.1797,1.2541,0.0,1.5024,1.5957,1.7241,1.8554,0.0,1.9499,1.9394,1.9889,1.9183,1.8394,1.8149,1.8498,1.8995,1.953,2.0721,2.1583,2.1758,2.1767,2.1392,2.0314,1.9921,1.9576,1.9222,0.0,0.0,0.0,0.0,0.0,0.0,1.6412,1.6473,1.7028,1.6528,1.6306,1.6459,1.6367,1.601,1.5386,1.5194,1.4937,1.4643,1.4552,0.0,0.0,0.0,0.0,1.5186,1.5352,1.5468,1.569,1.6754,1.739,1.7668,1.8146,1.8644,1.9091,0.0,0.0,0.0,0.0,0.0,0.0,0.0,0.0,0.0,0.0,0.0,0.0,0.0,0.0,0.0,0.0,0.0,0.0,0.0,0.0,0.0,0.0,0.0,0.0,0.5233,0.4216,0.3289,0.246,0.1736,0.101,0.0242,0.0,-0.0193,-0.0451,-0.1709,0.0,0.0,0.0,0.0,0.0,-0.2626,0.0,0.0,0.0,0.0,0.0,-0.0875,0.0672,0.0,0.4076,0.5044,0.6111,0.0,0.0,0.0,0.0,1.0997,1.1696,1.2311,1.3571,1.4908,1.5894,1.7371,1.8722,1.9231,1.9212,1.9115,1.9182,1.8604,1.8029,1.8002,1.8535,1.9045,1.9239,2.0604,2.176,2.2065,2.1649,2.1129,2.0587,2.0291,1.9966,0.0,0.0,0.0,0.0,0.0,0.0,0.0,1.6691,1.6609,1.6896,1.6471,1.6494,1.6968,1.6132,1.566,1.5506,1.5032,1.4828,1.4902,1.4902,0.0,0.0,0.0,0.0,1.5796,1.5796,1.5796,1.5911,1.6866,1.7202,1.7257,1.7909,1.8256,1.8586,0.0,0.0,0.0,0.0,0.0,0.0,0.0,0.0,0.0,0.0,0.0,0.0,0.0,0.0,0.0,0.0,0.0,0.0,0.0,0.0,0.0,0.0,0.0,0.444,0.4142,0.3445,0.2623,0.1567,0.1106,0.0653,0.0178,0.0126,-0.0065,-0.0323,-0.1284,-0.1676,0.0,0.0,0.0,0.0,-0.2283,0.0,0.0,0.0,0.0,0.0,0.0,0.0,0.0,0.4399,0.5527,0.6832,0.8393,0.0,0.0,0.0,0.0,0.0,1.2725,1.4032,1.5444,1.647,1.7807,1.8896,1.8947,1.9028,1.8937,1.8344,1.8031,1.7923,1.8113,1.8692,1.9087,1.9001,2.0775,2.214,2.2079,2.1522,2.1186,2.1209,2.0741,0.0,0.0,0.0,0.0,0.0,0.0,0.0,0.0,1.712,1.6856,1.6779,1.6496,1.6814,1.7802,1.6061,1.5425,1.5817,1.4962,1.4793,1.5245,1.5352,1.5748,0.0,0.0,0.0,1.6415,1.6358,1.6312,1.6358,1.6978,1.7202,1.7257,1.7909,1.8084,1.8164,0.0,0.0,0.0,0.0,0.0,0.0,0.0,0.0,0.0,0.0,0.0,0.0,0.0,0.0,0.0,0.0,0.0,0.0,0.0,0.0,0.0,0.0,0.368,0.3572,0.2794,0.2516,0.2184,0.174,0.1252,0.0982,0.0922,0.0326,-0.0397,-0.1097,-0.1447,-0.1464,-0.1294,0.0,0.0,0.0,0.0,0.0,0.0,0.0,0.0,0.0,0.0,0.0,0.0,0.5333,0.5981,0.636,0.8217,0.0,0.0,0.0,0.0,0.0,1.3246,1.5021,1.6614,1.6731,1.7788,1.9012,1.9661,1.9075,1.8596,1.9243,1.8476,1.7974,1.872,1.8598,1.8989,2.0909,2.2206,2.2824,0.0,0.0,2.2565,2.2027,0.0,0.0,0.0,0.0,0.0,0.0,0.0,0.0,0.0,0.0,1.7025,1.7419,1.6379,1.6485,1.7889,1.6305,1.5406,1.5183,1.4712,1.4575,1.4684,1.5186,1.5748,0.0,0.0,1.6585,1.7034,1.6528,1.6312,1.6358,1.6978,1.7202,1.7257,1.7909,1.8084,1.8164,0.0,0.0,0.0,0.0,0.0,0.0,0.0,0.0,0.0,0.0,0.0,0.0,0.0,0.0,0.0,0.0,0.0,0.0,0.0,0.0,0.0,0.224,0.2796,0.2742,0.2018,0.2128,0.1849,0.1178,0.1078,0.0679,0.0,-0.0394,-0.0863,-0.1292,-0.1274,-0.1234,-0.1238,-0.1182,-0.1191,-0.1207,0.0,0.0,0.0,0.0,0.0,0.0,0.0,0.0,0.0,0.0,0.6288,0.7079,0.849,0.0,0.0,0.0,0.0,0.0,1.3426,1.492,1.6272,1.6769,1.7989,1.9156,1.9377,1.8999,1.8615,1.8729,1.8216,1.8022,1.8852,1.9159,2.0038,2.214,2.218,2.2061,2.2563,2.248,2.2447,0.0,0.0,0.0,0.0,0.0,0.0,0.0,0.0,0.0,0.0,0.0,1.7203,1.7046,1.6321,1.6238,1.6827,1.6293,1.6065,1.6208,1.5352,1.5186,1.5468,1.5748,1.6197,1.681,0.0,1.7446,1.7667,1.739,1.7101,1.6866,1.7446,1.749,1.7257,1.7909,1.8084,1.8118,0.0,0.0,0.0,0.0,0.0,0.0,0.0,0.0,0.0,0.0,0.0,0.0,0.0,0.0,0.0,0.0,0.0,0.0,0.0,0.0,0.2352,0.2015,0.224,0.2184,0.1684,0.1962,0.1681,0.0785,0.0951,0.0369,-0.0688,-0.0988,-0.1133,-0.1239,-0.1102,-0.1071,-0.1207,-0.0982,-0.0918,-0.1029,0.0,0.0,0.0,0.0,0.0,0.0,0.0,0.0,0.0,0.0,0.0,0.0,0.0,0.0,0.0,1.0793,1.1754,1.2609,1.3627,1.474,1.5836,1.686,1.8025,1.8951,1.8988,1.8874,1.8629,1.8359,1.8191,1.8348,1.9042,2.0145,2.1262,2.235,2.1947,2.1927,2.2959,2.2513,0.0,0.0,0.0,0.0,0.0,0.0,0.0,0.0,0.0,0.0,0.0,0.0,1.7189,1.6688,1.6387,1.6216,1.6228,1.6436,1.6708,1.6978,1.5853,1.5633,1.6083,1.6187,1.6528,1.7034,1.7799,1.8084,1.8084,1.8084,1.7843,1.7435,1.7909,1.7799,1.7435,1.7788,1.7975,1.8084,0.0,0.0,0.0,0.0,0.0,0.0,0.0,0.0,0.0,0.0,0.0,0.0,0.0,0.0,0.0,0.0,0.0,0.0,0.0,0.0,0.1902,0.2015,0.2015,0.2015,0.1959,0.185,0.1685,0.1459,0.1105,0.0548,-0.0193,-0.0798,-0.1077,-0.1138,-0.1045,-0.1031,-0.1025,-0.0625,-0.0689,-0.1027,-0.1032,0.0,0.0,0.0,0.0,0.0,0.0,0.0,0.0,0.0,0.0,0.0,0.0,0.0,0.9316,1.0744,1.1783,1.2657,1.3826,1.5001,1.6104,1.7126,1.7557,1.8003,1.8971,1.8767,1.8544,1.9013,1.9143,1.9275,1.9584,2.1303,2.2286,2.0913,2.2463,2.3703,2.3173,0.0,0.0,0.0,0.0,0.0,0.0,0.0,0.0,0.0,0.0,0.0,0.0,0.0,0.0,1.6987,1.6585,1.6633,1.7211,1.7211,1.6909,1.6358,1.5575,1.5294,1.5468,1.5901,1.6187,1.6425,1.7567,1.8084,1.8084,1.8084,1.8084,1.803,1.8084,1.8084,1.7963,1.7435,1.7611,1.8084,0.0,0.0,0.0,0.0,0.0,0.0,0.0,0.0,0.0,0.0,0.0,0.0,0.0,0.0,0.0,0.0,0.0,0.0,0.0,0.0,0.1457,0.1345,0.1682,0.1905,0.2015,0.1847,0.1682,0.1515,0.145,0.1025,0.0251,-0.0259,-0.0721,-0.1113,-0.1057,-0.0919,-0.0709,-0.0521,-0.0455,-0.0388,-0.0581,-0.0723,0.0,0.0,0.0,0.0,0.0,0.0,0.0,0.0,0.6887,0.7354,0.8362,0.9093,0.9865,1.1166,1.2209,1.3102,1.3978,1.4974,1.5992,1.684,1.7521,1.8213,1.9217,1.9304,1.9236,1.9645,1.9651,1.9708,2.0105,2.1761,2.2647,2.1504,2.2521,2.3365,0.0,0.0,0.0,0.0,0.0,0.0,0.0,0.0,0.0,0.0,0.0,0.0,0.0,0.0,0.0,1.6632,1.6467,1.6498,1.6715,1.6941,1.6864,1.6627,1.6482,1.6358,1.6255,1.6641,1.68,1.6922,1.7733,1.8084,1.8084,1.8084,1.8084,1.8084,1.8084,1.8084,1.8084,1.7843,1.7909,1.8084,0.0,0.0,0.0,0.0,0.0,0.0,0.0,0.0,0.0,0.0,0.0,0.0,0.0,0.0,0.0,0.0,0.0,0.0,0.0,0.028,0.0954,0.0842,0.1347,0.174,0.1961,0.1793,0.1737,0.1738,0.1798,0.143,0.067,0.0126,-0.0384,-0.0903,-0.1253,-0.1124,-0.0523,-0.0401,-0.0199,-0.0,-0.0261,-0.0198,0.0,0.0,0.0,0.0,0.0,0.0,0.0,0.0,0.6986,0.7408,0.8514,0.9392,1.0312,1.1466,1.2653,1.369,1.4289,1.5103,1.6005,1.7105,1.7675,1.8205,1.9328,1.9539,1.9468,1.9705,1.9792,2.0058,2.0768,2.1916,2.2533,0.0,2.2513,2.3078,0.0,0.0,0.0,0.0,0.0,0.0,0.0,0.0,0.0,0.0,0.0,0.0,0.0,0.0,0.0,0.0,1.6384,1.6431,1.6545,1.6705,1.6818,1.6818,1.7179,1.7157,1.6821,1.6922,1.7034,1.7257,1.7854,1.8084,1.8084,1.8084,1.8084,1.8084,1.7909,1.7909,1.8084,1.7909,1.7963,1.8084,0.0,0.0,0.0,0.0,0.0,0.0,0.0,0.0,0.0,0.0,0.0,0.0,0.0,0.0,0.0,0.0,0.0,0.0,-0.1118,-0.0168,0.0505,0.0673,0.1066,0.1459,0.1797,0.1685,0.1796,0.2184,0.1909,0.1588,0.1061,0.0304,-0.0188,-0.0452,-0.168,-0.1576,-0.0472,-0.0134,0.0,0.0,0.0,0.0464,0.1095,0.0,0.0,0.0,0.0,0.0,0.0,0.0,0.7228,0.7676,0.8666,0.9547,1.0415,1.1466,1.301,1.4483,1.4872,1.5465,1.6284,1.7959,1.8024,1.7931,1.9308,1.9341,1.9142,1.9142,1.9621,2.0387,2.1567,2.1937,2.195,2.1801,2.2513,0.0,0.0,0.0,0.0,0.0,0.0,0.0,0.0,0.0,0.0,0.0,0.0,0.0,0.0,0.0,0.0,0.0,1.6384,1.6545,1.6807,1.6818,1.6818,1.6818,1.7379,1.7357,1.6765,1.6595,1.6765,1.7257,1.7843,1.8084,1.8084,1.8084,1.8084,1.803,1.7435,1.7556,1.803,1.7435,1.7611,1.803,0.0,0.0,0.0,0.0,0.0,0.0,0.0,0.0,0.0,0.0,0.0,0.0,0.0,0.0,0.0,0.0,0.0,0.0,-0.1457,-0.0449,0.0168,0.0224,0.0898,0.1403,0.1629,0.1794,0.1905,0.1908,0.1813,0.1709,0.1425,0.0648,0.0,-0.0424,-0.114,-0.1558,-0.157,0.06,0.1272,0.0729,0.0193,0.0452,0.1119,0.0,0.0,0.0,0.0,0.0,0.0,0.0,0.0,0.0,0.8981,0.9909,1.072,1.195,1.2968,1.3768,1.4181,1.5289,1.6475,1.7073,1.7927,1.8776,1.9149,1.9715,2.0215,2.0484,2.1493,2.2151,2.1255,2.1993,0.0,2.1929,0.0,0.0,0.0,0.0,0.0,0.0,0.0,0.0,0.0,0.0,0.0,0.0,0.0,0.0,0.0,0.0,0.0,0.0,1.6384,1.6431,1.6545,1.6545,1.6545,1.6545,1.6715,1.6818,1.6797,1.7346,1.7579,1.7579,1.792,1.8084,1.8084,1.8084,1.8084,1.8084,1.7909,1.7963,1.8084,1.7909,1.7854,1.7822,0.0,0.0,0.0,0.0,0.0,0.0,0.0,0.0,0.0,0.0,0.0,0.0,0.0,0.0,0.0,0.0,0.0,0.0,0.0,0.0,-0.0168,-0.0168,0.0729,0.1347,0.1572,0.1738,0.1738,0.1628,0.1741,0.1741,0.1685,0.0744,0.0176,-0.012,-0.0874,-0.135,-0.1512,0.0067,0.1003,0.1255,0.084,0.0837,0.1098,0.0,0.0,0.0,0.0,0.0,0.0,0.0,0.0,0.0,0.9287,1.032,1.1276,1.2647,1.3757,1.4625,1.5205,1.6231,1.7221,1.7578,1.8166,1.8814,1.9378,1.977,2.015,2.0613,2.1439,2.1872,2.1045,2.1704,0.0,0.0,0.0,0.0,0.0,0.0,0.0,0.0,0.0,0.0,0.0,0.0,0.0,0.0,0.0,0.0,0.0,0.0,0.0,0.0,1.6384,1.6384,1.6384,1.6384,1.6384,1.6384,1.6488,1.6602,1.6648,1.7312,1.7534,1.7534,1.781,1.7975,1.8084,1.8084,1.8084,1.8084,1.8084,1.7963,1.7733,1.7865,1.77,1.7357,0.0,0.0,0.0,0.0,0.0,0.0,0.0,0.0,0.0,0.0,0.0,0.0,0.0,0.0,0.0,0.0,0.0,0.0,0.0,0.0,-0.0449,-0.0393,0.0561,0.129,0.1572,0.1628,0.1515,0.1347,0.1628,0.1741,0.1685,0.0673,0.0232,0.0306,-0.0801,-0.1083,-0.0736,-0.1141,-0.0199,0.1495,0.1527,0.1364,0.1177,0.1717,0.0,0.0,0.0,0.0,0.0,0.0,0.0,0.0,0.9599,1.072,1.1858,1.3351,1.4859,1.6253,1.7072,1.7656,1.8217,1.8799,1.8584,1.8489,1.9717,1.9518,1.9264,1.9977,2.0172,2.0355,2.0933,2.106,2.1123,0.0,0.0,0.0,0.0,0.0,0.0,0.0,0.0,0.0,0.0,0.0,0.0,0.0,0.0,0.0,0.0,0.0,0.0,0.0,1.6384,1.6384,1.6384,1.6384,1.6384,0.0,1.6648,1.6648,1.6431,1.6705,1.6976,1.7256,1.7545,1.7822,1.8096,1.8084,1.8084,1.8084,1.803,1.7678,1.7213,1.7468,1.7179,1.6662,0.0,0.0,0.0,0.0,0.0,0.0,0.0,0.0,0.0,0.0,0.0,0.0,0.0,0.0,0.0,0.0,0.0,0.0,0.0,0.0,-0.0617,-0.028,0.0729,0.1347,0.1572,0.1685,0.1685,0.1515,0.1628,0.1459,0.1066,0.0505,0.0113,-0.0115,-0.0785,-0.0996,-0.0884,-0.0462,0.0067,0.0598,0.1216,0.1584,0.1775,0.2003,0.2257,0.0,0.0,0.0,0.0,0.0,0.0,0.0,0.9599,1.0661,1.1651,1.2669,1.3854,1.5006,1.5535,1.6632,1.7698,1.8072,1.851,1.8958,1.9222,1.9198,1.9264,1.9977,2.0549,2.0741,2.0355,2.0741,2.125,0.0,0.0,0.0,0.0,0.0,0.0,0.0,0.0,0.0,0.0,0.0,0.0,0.0,0.0,0.0,0.0,0.0,0.0,1.6431,1.6384,1.6384,1.6384,1.6384,1.6384,0.0,1.6431,1.6431,1.6441,1.692,1.7145,1.7267,1.7601,1.7711,1.781,1.803,1.8084,1.803,1.7468,1.7179,1.7,1.6425,1.5968,1.569,0.0,0.0,0.0,0.0,0.0,0.0,0.0,0.0,0.0,0.0,0.0,0.0,0.0,0.0,0.0,0.0,0.0,0.0,0.0,0.0,0.0,0.0505,0.0954,0.1347,0.1572,0.1515,0.1347,0.1178,0.1178,0.1178,0.1234,0.0449,0.0057,-0.0058,-0.0774,-0.1044,-0.1011,-0.0706,-0.0391,-0.0066,0.0503,0.0988,0.1414,0.1987,0.2296,0.2523,0.3538,0.0,0.0,0.0,0.0,0.0,0.0,0.0,1.1663,1.2935,1.3893,1.48,1.5961,1.6946,1.7771,1.8311,1.8788,1.9075,1.9075,1.9075,1.9198,1.9528,1.9911,2.0042,1.9715,1.9911,0.0,0.0,0.0,0.0,0.0,0.0,0.0,0.0,0.0,0.0,0.0,0.0,0.0,0.0,0.0,0.0,0.0,1.8267,1.7722,1.6786,1.6534,1.6384,1.6384,1.6384,1.6384,1.6384,1.6384,1.6384,1.6431,1.6705,1.6931,1.7043,1.7211,1.7312,1.7479,1.759,1.7523,1.729,1.6888,1.6425,1.5958,1.568,1.5342,1.5001,0.0,0.0,0.0,0.0,0.0,0.0,0.0,0.0,0.0,0.0,0.0,0.0,0.0,0.0,0.0,0.0,0.0,0.0,0.0,0.0,0.0,0.0,0.129,0.1346,0.1684,0.1346,0.1066,0.0785,0.0729,0.0954,0.1403,0.0393,-0.0057,-0.0,-0.0823,-0.1096,-0.1024,-0.1124,-0.1005,-0.0644,-0.0311,0.0241,0.1,0.1871,0.2237,0.2464,0.3683,0.4398,0.5007,0.6367,0.0,0.0,0.0,0.0,1.1573,1.3161,1.4057,1.4918,1.6787,1.7657,1.8143,1.8889,1.9075,1.9075,1.9075,1.9075,1.9075,1.9075,1.9075,1.9075,1.9075,0.0,0.0,0.0,0.0,0.0,0.0,0.0,0.0,0.0,0.0,0.0,0.0,0.0,0.0,0.0,0.0,0.0,1.904,1.8429,1.7809,1.7202,1.6694,1.6384,1.6384,1.6384,1.6384,1.6384,1.6384,1.6384,1.6384,1.6384,1.6545,1.6705,1.6761,1.692,1.7134,1.7078,1.6842,1.6492,1.6255,1.5671,1.4904,1.505,1.4765,1.435,0.0,0.0,0.0,0.0,0.0,0.0,0.0,0.0,0.0,0.0,-0.3239,0.0,0.0,0.0,0.0,0.0,0.0,0.0,0.0,0.0,0.0,0.1903,0.1794,0.1794,0.1959,0.1682,0.1347,0.1066,0.0954,0.0842,0.0729,0.0056,-0.045,-0.0735,-0.0873,-0.0962,-0.0994,-0.1052,-0.1195,-0.1286,-0.0972,0.0177,0.1759,0.1823,0.2193,0.2745,0.3574,0.407,0.4508,0.5996,0.6966,0.0,0.0,0.0,1.0939,1.209,1.3269,1.4508,1.6203,1.776,1.892,1.9044,1.9075,1.9075,1.9075,1.9075,1.9075,1.9075,1.9075,1.9075,1.9075,0.0,0.0,0.0,0.0,0.0,0.0,0.0,0.0,0.0,0.0,0.0,0.0,0.0,0.0,0.0,0.0,0.0,1.904,1.8429,1.7809,1.7202,1.6694,1.6384,1.6384,1.6384,1.6384,1.6384,1.6384,1.6384,1.6384,1.6384,1.6441,1.6488,1.6705,1.6807,1.6864,1.6673,1.6549,1.6368,1.5371,1.4845,1.4669,1.3974,1.3683,1.3631,0.0,0.0,0.0,0.0,0.0,0.0,0.0,0.0,0.0,0.0,0.0,-0.2238,0.0,0.0,0.0,0.0,0.0,0.0,0.0,0.0,0.0,0.235,0.1873,0.1745,0.2072,0.1472,0.1036,0.0817,0.0444,0.0056,-0.0224,-0.0505,-0.0449,-0.0224,-0.0854,-0.0935,-0.0661,-0.0768,-0.0836,-0.0857,-0.0701,0.0293,0.1621,0.1941,0.2463,0.3121,0.3516,0.3965,0.4512,0.5618,0.6588,0.7545,0.8659,0.0,0.0,0.0,1.2516,1.3669,1.5757,1.7688,1.9075,1.9075,1.9075,1.9075,1.9075,1.9075,1.9075,1.9075,1.9075,1.9075,0.0,0.0,0.0,0.0,0.0,0.0,0.0,0.0,0.0,0.0,0.0,0.0,0.0,0.0,0.0,0.0,0.0,1.9239,1.8987,1.8429,1.7984,1.7699,1.6864,1.6384,1.6384,1.6384,1.6384,1.6384,1.6384,1.6384,1.6384,1.6384,1.6384,1.6384,1.6545,1.6602,1.6534,1.6181,1.5874,1.5517,1.4756,1.4282,1.3974,1.3623,1.3511,1.3511,0.0,0.0,0.0,0.0,0.0,0.0,0.0,0.0,0.0,0.0,0.0,0.0,0.0,0.0,0.0,0.0,0.0,0.0,0.0,0.0,0.0,0.2652,0.1945,0.1713,0.2054,0.1285,0.0749,0.0432,-0.0,-0.0505,-0.1064,-0.0953,-0.0561,0.0056,-0.0673,-0.08,-0.0529,-0.0626,-0.0629,-0.053,0.0116,0.0945,0.1781,0.2443,0.303,0.3437,0.3526,0.3957,0.4509,0.5207,0.6105,0.7176,0.833,0.9273,0.0,0.0,0.0,1.3416,1.531,1.7111,1.8508,1.8671,1.8788,1.8851,1.9013,1.9065,1.9075,0.0,1.9008,0.0,0.0,0.0,0.0,0.0,0.0,0.0,0.0,0.0,0.0,0.0,0.0,0.0,0.0,0.0,0.0,0.0,0.0,1.8762,1.8762,1.8201,1.7863,1.7863,1.6909,1.6384,1.6384,1.6384,1.6384,1.6384,1.6259,1.6259,1.6384,1.6259,1.6316,1.6384,1.6384,1.6316,1.6202,1.5672,1.5196,1.4656,1.4181,1.3821,1.3511,1.3511,1.3511,1.3511,0.0,0.0,0.0,0.0,0.0,0.0,0.0,0.0,0.0,0.0,0.0,0.0,0.0,-0.185,-0.1291,-0.0954,0.0,0.0,0.0,0.0,0.0,0.2507,0.2188,0.0,0.1903,0.1355,0.0757,0.0056,-0.0,-0.0504,-0.1454,-0.1064,-0.0898,-0.0785,-0.028,-0.0343,-0.0882,-0.0854,-0.0858,-0.0709,0.1456,0.2398,0.2544,0.3666,0.4008,0.3848,0.3571,0.3801,0.4309,0.478,0.5449,0.6322,0.7853,0.8764,0.951,0.0,0.0,0.0,1.4649,1.5653,1.6832,1.7585,1.7843,1.8124,1.868,1.8942,1.9075,1.8875,1.8808,0.0,0.0,0.0,0.0,0.0,0.0,0.0,0.0,0.0,0.0,0.0,0.0,0.0,0.0,0.0,0.0,0.0,0.0,1.8147,1.8147,1.7589,1.7257,1.7257,1.6694,1.6384,1.6384,1.6384,1.6384,1.6374,1.5972,1.5972,1.6374,1.5972,1.5972,1.6384,1.6384,1.6144,1.5672,1.5137,1.4656,1.4189,1.3692,1.3511,1.3511,1.3511,1.3511,1.3511,0.0,0.0,0.0,0.0,0.0,0.0,0.0,0.0,0.0,0.0,0.0,0.0,0.0,-0.1569,-0.089,-0.0381,0.0257,0.0,0.0,0.0,0.0,0.1798,0.1661,0.1567,0.1574,0.1088,0.0628,0.0217,-0.0722,-0.1122,-0.112,-0.1909,-0.1852,-0.1064,-0.0336,-0.0113,-0.0342,-0.0733,-0.0452,0.0287,0.0302,0.1326,0.2948,0.4225,0.4691,0.4574,0.4397,0.4135,0.3981,0.4545,0.5125,0.5873,0.6886,0.7913,0.8942,1.0364,1.2026,1.3584,1.4058,1.5034,1.608,1.6719,1.7234,1.774,1.8017,1.853,1.8875,1.8808,1.8808,0.0,0.0,0.0,0.0,0.0,0.0,0.0,0.0,0.0,0.0,0.0,0.0,0.0,0.0,0.0,0.0,0.0,0.0,0.0,1.7534,1.7313,1.7202,1.7202,1.6694,1.6384,1.6384,1.6384,1.6259,1.5972,1.5788,1.5798,1.5972,1.5798,1.5972,1.6374,1.6087,1.5856,1.5672,1.5128,1.4597,1.413,1.3692,1.3511,1.3511,1.3511,1.3511,1.345,0.0,0.0,0.0,0.0,0.0,0.0,0.0,0.0,0.0,0.0,0.0,0.0,0.0,0.0,-0.1081,-0.0258,0.0197,0.0479,0.063,0.0767,0.0915,0.1137,0.0782,0.0593,0.0667,0.0411,0.0157,-0.0163,-0.111,-0.1515,-0.1457,-0.2359,-0.2469,-0.1902,-0.1288,-0.0896,-0.0728,-0.1121,-0.0728,0.0169,-0.0246,0.0711,0.2533,0.3742,0.4525,0.4994,0.4879,0.4492,0.41,0.4143,0.4549,0.5304,0.6266,0.7454,0.8732,0.9806,1.1124,1.2316,1.2828,1.3825,1.484,1.5426,1.6124,1.6726,1.7081,1.7664,1.8025,1.8055,1.8114,0.0,0.0,0.0,0.0,0.0,0.0,0.0,0.0,0.0,0.0,0.0,0.0,0.0,0.0,0.0,0.0,0.0,0.0,0.0,1.6944,1.6944,1.6944,1.6944,1.6591,1.6384,1.6384,1.6384,1.6259,1.5914,1.5488,1.5488,1.5846,1.5362,1.5478,1.5884,1.5594,1.542,1.5381,1.4893,1.43,1.3769,1.3321,1.3139,1.3147,1.3025,1.3086,1.3086,0.0,0.0,0.0,0.0,0.0,0.0,0.0,0.0,0.0,-0.3638,0.0,0.0,0.0,0.0,0.0,-0.067,-0.0333,-0.0,0.0449,0.0464,0.0523,0.0666,0.0,0.0,0.0,-0.0586,-0.0705,-0.1066,-0.1122,-0.1569,-0.2465,-0.224,-0.2521,-0.3312,-0.3144,-0.2747,-0.2127,-0.2127,-0.179,-0.1131,-0.0064,0.0726,0.124,0.2107,0.3402,0.49,0.4959,0.487,0.4557,0.356,0.368,0.4614,0.601,0.7531,0.8823,0.9347,1.021,1.0914,0.0,0.0,0.0,1.3753,1.443,1.5127,1.5932,1.6316,1.65,1.6542,1.6862,0.0,0.0,0.0,0.0,0.0,0.0,0.0,0.0,0.0,0.0,0.0,0.0,0.0,0.0,0.0,0.0,0.0,0.0,1.6374,1.6384,1.6384,1.6384,1.6374,1.6384,1.6384,1.6384,1.6374,1.6374,1.6316,1.5059,1.5059,1.5999,1.4746,1.4442,1.4845,1.4904,1.4864,1.4834,1.4359,1.3709,1.292,1.2581,1.2458,1.2421,1.2104,1.2174,1.2413,0.0,0.0,0.0,0.0,0.0,0.0,0.0,0.0,-0.4618,0.0,0.0,0.0,-0.2817,-0.2456,-0.1951,-0.1335,-0.0834,-0.0498,-0.0358,-0.0136,-0.0046,-0.0095,-0.0336,-0.0499,-0.0585,-0.0533,-0.0542,-0.0617,-0.1176,-0.1567,-0.1846,-0.2296,-0.291,-0.3522,-0.3137,-0.3081,-0.3294,-0.2742,-0.2183,-0.1641,-0.1797,-0.1337,-0.0604,0.0373,0.1006,0.17,0.4132,0.4189,0.3123,0.279,0.3171,0.3979,0.5243,0.6399,0.7433,0.77,0.8376,0.9207,0.9835,0.0,0.0,0.0,0.0,0.0,0.0,0.0,1.6249,1.5973,0.0,0.0,0.0,0.0,0.0,0.0,0.0,0.0,0.0,0.0,0.0,0.0,0.0,0.0,0.0,0.0,0.0,0.0,1.6249,1.6249,1.6374,1.6384,1.6316,1.6181,1.6316,1.6259,1.6029,1.6134,1.57,1.4805,1.4451,1.4213,1.4094,1.4154,1.4213,1.4264,1.4323,1.4154,1.3743,1.3571,1.3017,1.2151,1.202,1.1772,1.1461,1.1779,1.1648,1.1399,0.0,0.0,0.0,0.0,0.0,0.0,-0.6202,-0.5592,-0.5143,0.0,0.0,0.0,-0.3308,-0.2613,-0.2086,-0.1855,-0.1384,-0.1036,-0.0989,-0.0848,-0.0809,-0.0828,-0.0842,-0.0918,-0.1011,-0.1242,-0.1318,-0.1288,-0.2068,-0.2458,0.0,0.0,-0.3574,-0.3959,-0.3688,-0.3799,-0.4132,-0.3633,-0.3019,-0.2377,-0.2953,-0.2667,-0.1935,-0.2229,-0.1695,-0.0461,0.1231,0.2132,0.2326,0.1123,0.1605,0.2967,0.4508,0.5449,0.6136,0.6632,0.7385,0.8066,0.8639,0.9318,1.0049,1.0797,0.0,0.0,1.3309,1.4112,1.4771,0.0,0.0,0.0,0.0,0.0,0.0,0.0,0.0,0.0,0.0,0.0,0.0,0.0,0.0,0.0,0.0,0.0,0.0,1.6087,1.6077,1.6077,1.6212,1.6212,1.6144,1.6009,1.6144,1.6087,1.5914,1.5961,1.5526,1.4501,1.4136,1.3786,1.3494,1.3485,1.3425,1.3364,1.3485,1.3,1.2282,1.2282,1.1965,1.1538,1.1212,1.0829,1.0577,1.0766,1.0703,1.0584,0.0,0.0,0.0,-0.7874,-0.749,-0.7115,-0.637,-0.5897,-0.5549,0.0,-0.5148,-0.4714,-0.3937,-0.2908,-0.2243,-0.2222,-0.1866,-0.1616,-0.1514,-0.1614,-0.1668,-0.1573,-0.1728,-0.1868,-0.1876,-0.2318,-0.2577,0.0,0.0,0.0,0.0,0.0,0.0,0.0,-0.4519,-0.4574,-0.4743,-0.4629,-0.4092,-0.3313,-0.3788,-0.3515,-0.3103,-0.4916,-0.4176,-0.2194,-0.2651,-0.0844,0.1327,-0.1007,-0.0437,0.0,0.3584,0.4326,0.4689,0.5795,0.6618,0.7231,0.7444,0.8271,0.9169,0.9429,1.0246,0.0,1.2078,1.2474,1.2875,0.0,0.0,0.0,0.0,0.0,0.0,0.0,0.0,0.0,0.0,0.0,0.0,0.0,0.0,0.0,0.0,1.5478,1.5614,1.5498,1.5614,1.573,1.5798,1.5788,1.5788,1.5798,1.5856,1.5856,1.574,1.5856,1.5478,1.461,1.3957,1.3597,1.3468,1.281,1.2451,1.2389,1.2451,1.1841,1.0807,1.0744,1.0863,1.0982,1.0212,0.9894,0.9831,0.9582,0.9646,0.9767,0.0,0.0,-0.9752,-0.9384,-0.8889,-0.8338,-0.7847,-0.7228,-0.653,-0.5632,-0.4809,-0.4118,-0.3562,-0.3051,-0.2686,-0.2469,-0.2017,-0.1918,-0.2267,-0.2216,-0.2295,-0.2676,-0.275,-0.2746,-0.2824,-0.2954,-0.3077,0.0,0.0,0.0,0.0,0.0,-0.4294,-0.4787,-0.4401,-0.4622,-0.5171,-0.5014,-0.4826,-0.4546,-0.4234,-0.4319,-0.4717,-0.5336,-0.5223,-0.467,-0.452,-0.4064,-0.3426,-0.2539,-0.1814,-0.0843,0.0,0.0,0.228,0.3846,0.4676,0.5272,0.5958,0.6794,0.7646,0.8712,0.9183,0.0,1.0614,1.1501,1.2118,0.0,1.2728,0.0,0.0,0.0,0.0,0.0,0.0,0.0,0.0,0.0,0.0,0.0,0.0,0.0,0.0,1.3974,1.4043,1.4332,1.4332,1.4569,1.5099,1.5099,1.505,1.4951,1.5556,1.5556,1.4775,1.543,1.4815,1.2984,1.3373,1.3017,1.2042,1.2336,1.2212,1.1802,1.2274,1.1841,1.0744,1.0345,0.9964,0.9652,0.9524,0.9145,0.8829,0.921,0.9081,0.8829,-1.1632,-1.1221,-1.0751,-1.0204,-0.961,-0.9056,-0.8509,-0.8049,-0.7524,-0.6817,-0.5677,-0.4778,-0.4398,-0.3797,-0.3337,-0.3076,-0.2814,-0.2709,-0.2709,-0.2709,-0.2784,-0.3049,-0.3051,-0.3075,-0.3074,-0.3352,-0.3522,0.0,0.0,0.0,0.0,0.0,-0.5322,-0.6283,-0.5361,-0.5437,-0.6217,-0.5916,-0.5715,-0.5596,-0.5264,-0.5391,-0.5827,-0.637,-0.6641,-0.6714,-0.6486,-0.6025,-0.5231,-0.4109,-0.3263,0.0,-0.0953,-0.0134,0.0524,0.0,0.2864,0.3493,0.4692,0.5542,0.0,0.7337,0.0,0.0,0.0,1.0338,1.0897,1.1293,1.2056,1.2432,1.1846,0.0,0.0,0.0,0.0,0.0,0.0,0.0,0.0,0.0,0.0,0.0,0.0,1.3606,1.3614,1.3734,1.3734,1.3855,1.4213,1.4213,1.4332,1.4588,1.501,1.4951,1.4469,1.5186,1.451,1.2512,1.3199,1.2842,1.1622,1.1919,1.1856,1.1498,1.1787,1.1288,1.0288,1.0028,0.9524,0.8894,0.8894,0.877,0.8517,0.8835,0.8705,0.8517,-1.3224,-1.253,-1.1866,-1.1004,-1.0375,-0.9784,-0.906,-0.8692,-0.8342,-0.7835,-0.6836,-0.5936,-0.544,-0.496,-0.4475,-0.4032,-0.4032,-0.3848,-0.338,-0.3436,-0.3439,-0.3386,-0.3477,-0.3474,-0.3495,-0.3974,-0.4294,-0.4408,0.0,0.0,0.0,0.0,-0.6393,-0.7353,-0.6619,-0.6591,-0.6993,-0.6981,-0.6802,-0.6599,-0.6564,-0.6527,-0.6568,-0.7289,-0.7706,-0.7903,-0.7829,-0.7169,-0.6083,-0.5493,-0.4691,-0.3745,-0.2516,-0.1826,0.0,0.0,0.0,0.0,0.0,0.0,0.0,0.0,0.0,0.7432,0.0,0.0,0.0,1.0657,1.124,1.1428,1.1168,1.1217,0.0,0.0,0.0,0.0,0.0,0.0,0.0,0.0,0.0,0.0,0.0,1.3243,1.3304,1.3321,1.3208,1.3208,1.3321,1.3321,1.3623,1.4291,1.4291,1.4291,1.4231,1.4756,1.4085,1.2397,1.2948,1.265,1.1685,1.156,1.1435,1.1303,1.1178,1.0598,0.9709,0.9582,0.9011,0.8317,0.8447,0.8517,0.8517,0.8517,0.8452,0.8247,-1.3992,-1.3356,-1.2927,-1.2598,-1.1751,-1.0918,-1.0277,-0.9509,-0.8632,-0.7522,-0.7312,-0.6936,-0.5857,-0.646,-0.6506,-0.5453,-0.5672,-0.56,-0.5059,-0.4934,-0.4765,-0.4548,-0.4759,-0.486,-0.4887,-0.5425,-0.5782,-0.5782,0.0,0.0,0.0,0.0,-0.6564,-0.6248,-0.7578,-0.7478,-0.6433,-0.8226,-0.8493,-0.7782,-0.8186,-0.7572,0.0,-0.7398,-0.7432,-0.7105,-0.7806,-0.7774,-0.7186,0.0,-0.5996,-0.5345,0.0,-0.3088,-0.2765,-0.0901,0.0,0.0,0.0,0.0,0.0,0.0,0.5487,0.0,0.0,0.0,0.8249,0.881,0.0,0.9918,1.0108,0.0,0.0,0.0,0.0,0.0,0.0,0.0,0.0,0.0,0.0,0.0,0.0,0.0,1.2042,1.2573,1.2104,1.2042,1.2573,1.2634,1.2948,1.3563,1.3623,1.3502,1.3373,1.3425,1.3009,1.2042,1.2143,1.2089,1.1926,1.149,1.1303,1.124,1.0661,1.0085,0.9454,0.8683,0.8107,0.7657,0.8252,0.8517,0.8517,0.8517,0.8117,0.7591,-1.5119,-1.4351,-1.3814,-1.3453,-1.2857,-1.211,-1.1328,-1.0449,-0.9562,-0.8751,-0.835,-0.7821,-0.6879,-0.6857,-0.676,-0.624,-0.6342,-0.6369,-0.6171,-0.5947,-0.5829,-0.5665,-0.5545,-0.5542,-0.5621,-0.5881,-0.6055,-0.6218,-0.6327,0.0,0.0,0.0,0.0,-0.7903,-0.8439,-0.864,-0.858,-0.9381,-0.9467,0.0,0.0,-0.8591,0.0,-0.8734,-0.903,-0.9038,-0.9381,-0.8993,-0.8358,0.0,-0.7191,0.0,0.0,0.0,0.0,-0.2861,0.0,0.0,0.0,0.0,0.0,0.0,0.0,0.0,0.5517,0.0,0.695,0.0,0.0,0.0,0.0,0.0,0.0,0.0,0.9056,0.0,0.0,0.0,0.0,0.0,0.0,0.0,0.0,0.0,0.0,0.0,0.0,1.1677,1.1981,1.1981,1.2282,1.2887,1.2826,1.2757,1.2696,1.2948,1.252,1.149,1.1841,1.1841,1.149,1.1247,1.1122,1.0989,1.0281,0.9709,0.9139,0.8366,0.7847,0.7521,0.7787,0.8052,0.8182,0.7987,0.7722,0.7396,-1.6182,-1.5389,-1.4663,-1.4143,-1.3684,-1.3064,-1.2061,-1.1233,-1.0565,-1.0038,-0.9553,-0.8903,-0.8075,-0.8155,-0.8122,-0.7704,-0.8221,-0.8432,0.0,-0.7654,-0.7357,-0.718,-0.6577,-0.6377,-0.6708,-0.6653,-0.6701,-0.6864,-0.6918,0.0,0.0,0.0,0.0,-0.8769,-0.9009,-0.9358,-0.97,-1.0187,-1.0305,-1.0239,-0.9982,-0.9696,-0.9533,-0.9723,-1.0176,-1.0663,-1.0663,-1.0132,-0.9357,-0.9234,-0.8289,0.0,-0.7497,0.0,-0.5567,0.0,0.0,0.0,-0.1612,0.0,0.0,0.0,0.0,0.0,0.0,0.0,0.0,0.0,0.0,0.0,0.0,0.0,0.8571,0.856,0.0,0.8588,0.0,0.0,0.0,0.0,0.0,0.0,0.0,0.0,0.0,0.0,0.0,0.0,1.131,1.1435,1.1794,1.232,1.2089,1.2027,1.2143,1.2336,1.1973,1.1178,1.1476,1.1476,1.1185,1.1059,1.0933,1.0737,0.9901,0.9262,0.8818,0.7917,0.7396,0.7199,0.7129,0.726,0.7456,0.7326,0.7064,0.6666,-1.6993,-1.6299,-1.5522,-1.4789,-1.4165,-1.342,-1.2365,-1.1814,-1.1446,-1.1019,-1.0839,-1.0315,-0.9253,-1.1124,-1.1816,-1.0425,-1.2115,-1.2674,-1.1344,-1.0417,-0.9762,-0.9243,-0.7962,-0.7641,-0.8492,-0.8257,-0.8103,-0.8025,-0.8256,-0.8162,0.0,0.0,0.0,-0.762,-0.923,-0.9376,-0.8462,-1.0515,-1.1266,-1.1125,-1.1089,-1.1143,-1.1169,0.0,-1.0312,-1.1111,-1.1111,0.0,0.0,-0.9734,-0.9233,0.0,0.0,0.0,0.0,0.0,0.0,0.0,0.0,0.0,0.0,-0.0183,0.0,0.0,0.0,0.0,0.4438,0.0,0.0,0.0,0.7047,0.7021,0.7144,0.7653,0.7856,0.0,0.0,0.0,0.0,0.0,0.0,0.0,0.0,0.0,0.0,0.0,0.0,0.0,1.0548,1.1052,1.1538,1.2012,1.1421,1.1358,1.1834,1.117,1.1052,1.1483,1.0933,1.0933,1.1483,1.0989,1.0807,1.0737,0.9314,0.8737,0.8608,0.7064,0.642,0.6416,0.621,0.6141,0.621,0.6609,0.6079,0.5017,-1.7325,-1.698,-1.6587,-1.5864,-1.5299,-1.4582,-1.3532,-1.2725,0.0,0.0,-1.2488,0.0,0.0,-1.2515,-1.227,0.0,0.0,-1.2743,-1.2579,-1.1479,-1.1047,-1.1482,-0.9593,-0.8878,-0.9646,-0.9118,-0.8786,-0.856,-0.862,-0.8626,-0.8639,-0.8692,-0.8586,-0.84,-0.9855,-1.0359,-1.0239,-1.1155,-1.2061,-1.2799,0.0,-1.1879,-1.1288,0.0,0.0,-1.1335,-1.1335,-1.1111,0.0,-1.0607,-1.0068,-0.9422,-0.9569,-0.8822,-0.7879,-0.8032,-0.7513,0.0,0.0,0.0,-0.4973,-0.2801,0.0,0.0,0.0,0.0,0.0,0.0,0.0,0.0,0.0,0.6386,0.6644,0.7202,0.7246,0.7378,0.0,0.0,0.0,0.0,0.0,0.0,0.0,0.0,0.0,0.0,0.0,0.0,0.0,1.0338,1.0724,1.1358,1.1052,1.0989,1.117,1.0807,1.0744,1.087,1.0555,1.0561,1.087,1.0618,1.0295,0.9901,0.8935,0.8291,0.7842,0.6806,0.642,0.635,0.5947,0.5547,0.5279,0.5411,0.5213,0.4613,-1.772,-1.7437,-1.7074,-1.6403,-1.5932,-1.5369,0.0,0.0,0.0,0.0,-1.4501,0.0,-1.4949,0.0,-1.4092,0.0,-1.4214,-1.4361,-1.4597,-1.3318,-1.2867,-1.3533,-1.1539,-1.0815,-1.1621,-1.0682,-1.008,-0.9782,-0.9567,-0.9362,-0.9211,-0.9159,-0.9159,-0.918,-1.0019,-1.0785,-1.145,-1.1781,-1.2767,0.0,0.0,-1.2963,0.0,0.0,-1.2138,-1.178,0.0,-1.2278,-1.2124,-1.2124,-1.1675,-1.1224,-1.1316,-1.0481,-0.9421,-0.9443,-0.9011,-0.8427,-0.801,-0.7543,0.0,-0.4829,-0.3538,0.0,-0.0127,0.0,0.0,0.0,0.0,0.0,0.0,0.5262,0.5968,0.5875,0.6401,0.6954,0.0,0.7616,0.0,0.0,0.0,0.0,0.0,0.0,0.0,0.9095,0.9202,0.0,0.0,0.0,1.0091,1.0548,1.0681,1.0744,1.0744,1.0624,1.0624,1.0624,1.0371,1.0371,1.0498,1.0301,0.9849,0.9256,0.8613,0.7902,0.726,0.6609,0.635,0.6284,0.5547,0.508,0.4749,0.4619,0.4082,0.3211,-1.8271,-1.7768,-1.7072,-1.6469,-1.6144,0.0,0.0,0.0,-1.6373,0.0,-1.6715,-1.6567,-1.6477,-1.707,-1.7223,-1.6675,-1.7292,-1.7569,-1.7217,-1.5961,0.0,-1.5394,-1.3811,-1.3292,-1.4227,-1.2857,-1.1958,-1.1664,-1.0997,-1.0333,-0.9688,-0.9524,-0.9577,-0.9851,-0.9911,-1.0753,-1.2058,-1.2258,-1.3313,-1.4903,-1.4903,-1.4235,-1.3361,-1.4083,0.0,-1.265,-1.3675,-1.4011,-1.4004,-1.4004,-1.4004,-1.3867,-1.315,-1.2785,-1.2492,-1.17,-1.1335,-1.0956,-0.997,-0.9421,-0.8503,-0.6129,0.0,0.0,0.0,0.0,-0.0202,0.0,0.0,0.0,0.0,0.0,0.5086,0.3953,0.5319,0.6804,0.7503,0.7498,0.7545,0.0,0.0,0.0,0.0,0.9329,0.9238,0.784,0.8918,0.9166,0.0,0.0,0.0,0.9518,1.0168,1.0561,1.0624,1.0624,1.0624,1.0624,1.0371,1.0301,1.0301,1.011,0.9588,0.8924,0.8285,0.7572,0.6793,0.6342,0.621,0.6079,0.5147,0.4749,0.4616,0.4092,0.2684,0.1076,-1.8907,-1.8401,-1.7798,0.0,-1.756,-1.789,0.0,0.0,0.0,0.0,-1.8962,-1.8726,-1.9596,-1.9017,-1.8553,-1.8354,-1.8302,0.0,0.0,0.0,0.0,-1.7067,-1.53,-1.4402,-1.4707,-1.3841,-1.2992,-1.2158,-1.1744,-1.1224,-1.0607,-1.0366,-1.0277,-1.0409,-1.077,-1.1579,-1.2671,-1.2821,-1.3581,-1.4752,-1.533,-1.4952,0.0,0.0,-1.5096,-1.4539,-1.4324,-1.4155,-1.4004,-1.4004,-1.4004,-1.3939,-1.3795,-1.365,-1.3578,-1.3091,-1.2572,-1.2057,-1.1545,-1.0564,-0.9422,-0.8193,-0.6647,-0.5051,0.0,0.0,0.0,0.0,0.0,0.0,0.0,0.0,0.0,0.4216,0.5144,0.5941,0.6263,0.6268,0.0,0.6858,0.0,0.0,0.0,0.844,0.82,0.78,0.7726,0.7671,0.0,0.0,0.0,0.9448,0.9716,1.004,1.0561,1.0624,1.0624,1.0624,1.0238,1.018,1.0301,0.9989,0.9268,0.8221,0.8091,0.7316,0.6148,0.602,0.6083,0.6079,0.5087,0.3951,0.2882,0.2683,0.2014,0.1008,-1.914,-1.9012,-1.8723,-1.8221,0.0,0.0,-1.9179,-1.9105,0.0,-2.1076,-2.0641,0.0,-2.1181,-2.0484,-1.9901,-1.9704,-1.9309,0.0,-1.8844,0.0,0.0,-1.8037,-1.6757,-1.6067,-1.6145,-1.53,-1.4333,-1.3202,-1.276,-1.2151,-1.1316,-1.1222,-1.1253,-1.1461,-1.1847,-1.2597,-1.3667,-1.423,-1.453,-1.4746,-1.5834,0.0,0.0,-1.5896,-1.6191,-1.5954,-1.5598,-1.5384,-1.5242,-1.5242,-1.5242,-1.5234,-1.4879,-1.4736,-1.4522,-1.4027,-1.3513,-1.307,-1.2579,-1.1842,-1.0947,-0.9846,-0.8612,-0.7372,-0.5795,-0.496,-0.4049,0.0,0.0,0.0,0.0,0.0,0.0,0.3795,0.4535,0.5117,0.5449,0.0,0.0,0.0,0.6104,0.0,0.0,0.7602,0.7527,0.7715,0.7634,0.0,0.0,0.0,0.0,0.9286,0.9458,0.9779,1.0434,1.0498,1.0301,1.0047,0.9722,0.9466,0.9262,0.9011,0.8291,0.7307,0.7307,0.6662,0.569,0.5756,0.5686,0.5418,0.4489,0.3351,0.2147,0.1812,0.1276,0.0538,-1.9141,-1.9542,-1.9672,0.0,0.0,0.0,0.0,-1.9952,0.0,-2.1873,0.0,-2.2013,-2.1951,-2.1651,-2.1336,-2.0944,0.0,-1.9966,-1.9694,-1.9166,-1.8834,-1.8767,-1.8297,-1.8037,-1.7969,-1.6957,-1.579,-1.4519,-1.3916,-1.3021,-1.193,-1.2112,-1.2351,-1.2697,-1.2954,-1.3699,-1.4768,-1.5835,-1.5792,-1.5163,-1.6408,-1.6542,-1.6044,-1.6691,-1.6978,-1.6978,-1.6978,-1.6908,-1.6908,-1.6908,-1.6908,-1.676,-1.6123,-1.5824,-1.5534,-1.4807,-1.4378,-1.4083,-1.3368,-1.3011,-1.2565,-1.1156,-1.064,-0.9948,-0.7732,-0.7049,-0.6601,-0.5473,-0.3373,0.0,0.0,0.0,0.0,0.2808,0.3411,0.0,0.0,0.0,0.0,0.0,0.0,0.0,0.0,0.0,0.7136,0.7488,0.7912,0.0,0.0,0.0,0.0,0.0,0.9075,0.0,1.0174,0.0,0.9786,0.9274,0.8947,0.8554,0.7962,0.7772,0.7186,0.64,0.633,0.5877,0.5226,0.5286,0.4885,0.4289,0.3687,0.2817,0.1879,0.1276,0.0538,-0.0269,-1.8983,-1.9571,-1.9846,0.0,0.0,-2.1681,-2.2095,-2.3482,-2.4281,-2.3877,-2.3807,-2.3695,-2.3339,-2.2967,-2.2725,-2.2665,-2.199,0.0,0.0,0.0,0.0,-2.0009,-1.9868,-1.9607,-1.9201,-1.8485,-1.7357,0.0,0.0,-1.4156,-1.2985,-1.273,-1.2967,-1.3671,-1.3591,-1.4359,-1.5787,-1.6149,0.0,-1.6789,-1.6872,-1.6899,-1.6959,-1.7097,-1.7245,-1.7392,-1.7392,-1.7185,-1.6908,-1.6908,-1.6908,-1.6908,-1.676,-1.6691,-1.6551,-1.6123,-1.5613,-1.5171,-1.4681,-1.3738,-1.2865,-1.2565,-1.1452,-1.0409,-0.9948,-0.8974,-0.7757,-0.6678,-0.5736,-0.4548,-0.2892,0.0,0.0,0.0,0.0,0.0,0.0,0.0,0.0,0.0,0.0,0.348,0.0,0.0,0.0,0.0,0.0,0.0,0.0,0.0,0.0,0.0,0.0,0.0,0.0,0.0,0.0,0.9274,0.8361,0.7837,0.7767,0.7512,0.7055,0.6396,0.5727,0.5137,0.4422,0.3885,0.3418,0.3019,0.3015,0.2078,0.0806,0.0672,-0.0067,-0.0941,-1.9347,-1.9762,-2.0161,0.0,0.0,0.0,0.0,-2.4843,0.0,-2.4624,-2.4279,-2.3989,-2.3636,-2.3458,-2.3207,-2.2786,-2.2372,-2.2002,-2.1588,-2.1348,-2.1083,-2.0805,-2.0473,-2.0204,-1.9933,-1.8957,-1.778,-1.6327,0.0,-1.5023,-1.379,-1.4077,-1.4518,-1.4933,-1.5109,-1.5251,0.0,0.0,0.0,-1.68,-1.7101,-1.7254,-1.7392,-1.7392,-1.7392,-1.747,-1.747,-1.7401,-1.7185,-1.7185,-1.7185,-1.7185,-1.7185,-1.7185,-1.7185,-1.6978,-1.676,-1.6324,-1.5338,-1.4617,-1.389,-1.3098,-1.2211,-1.1391,-1.0565,-0.9739,-0.8756,-0.7306,-0.6384,-0.5437,-0.3844,-0.2431,0.0,0.0,0.0,0.0,0.0,0.0,0.1244,0.0,0.0,0.0,0.0,0.0,0.0,0.0,0.0,0.0,0.0,0.0,0.0,0.0,0.0,0.0,0.0,0.0,0.0,0.7972,0.7451,0.6994,0.6597,0.6531,0.6272,0.5815,0.5077,0.4613,0.422,0.3082,0.2683,0.2619,0.1945,0.1342,0.0739,-0.0067,-0.0671,-0.1076,-2.0376,-2.074,0.0,0.0,-2.3002,0.0,-2.439,-2.5517,-2.6068,-2.5077,-2.4553,-2.4221,-2.406,-2.393,-2.3577,-2.2859,-2.2738,-2.231,-2.16,-2.1474,-2.1423,-2.1423,-2.0933,-2.0719,-2.0719,-1.9617,-1.8402,0.0,0.0,0.0,-1.4827,-1.5471,-1.5852,0.0,0.0,0.0,0.0,0.0,-1.6826,-1.6719,-1.7269,-1.7539,-1.7529,-1.7529,-1.7598,-1.7608,-1.7608,-1.7608,-1.7608,-1.7608,-1.7539,-1.747,-1.747,-1.747,-1.747,-1.747,-1.747,-1.7254,-1.6053,-1.5488,-1.4911,-1.3695,-1.3039,-1.2298,-1.1093,-1.0415,-0.9593,-0.8161,-0.693,-0.5848,-0.4993,-0.3993,0.0,0.0,0.0,0.0,0.0,0.0,0.0,0.0,0.0,0.0,0.2531,0.0,0.0,0.0,0.0,0.0,0.0,0.0,0.0,0.0,0.0,0.6924,0.7507,0.0,0.706,0.0,0.6544,0.6148,0.555,0.555,0.5488,0.5359,0.4422,0.3885,0.3551,0.2347,0.208,0.2217,0.1075,0.0739,0.0806,-0.0469,-0.1006,-0.1144,0.0,0.0,0.0,0.0,0.0,0.0,-2.5306,-2.6093,-2.65,-2.5893,-2.5522,-2.5369,-2.5313,-2.5075,-2.465,-2.4176,-2.3754,-2.3292,-2.2775,-2.2359,-2.2135,-2.2135,-2.2061,-2.1987,-2.1987,-2.1262,-2.0347,0.0,0.0,-1.7499,0.0,0.0,0.0,0.0,0.0,0.0,0.0,-1.6883,-1.713,-1.759,-1.751,-1.7598,-1.7706,-1.7706,-1.7784,-1.794,-1.794,-1.794,-1.794,-1.794,-1.7745,-1.747,-1.747,-1.747,-1.747,-1.747,-1.747,-1.747,-1.7323,-1.6263,-1.5204,-1.4982,-1.3905,-1.282,-1.2673,-1.1465,-1.0415,-1.0265,-0.8376,-0.6703,-0.6388,-0.5654,-0.4845,0.0,0.0,0.0,0.0,0.0,-0.2336,-0.1463,0.0,0.0,0.0,0.181,0.0,0.0,0.0,0.0,0.0,0.0,0.0,0.4869,0.0,0.6071,0.6785,0.6013,0.0,0.6719,0.5881,0.5495,0.5428,0.5428,0.5425,0.5296,0.3885,0.2547,0.1411,0.1277,0.121,0.121,0.1076,0.0874,0.047,-0.0269,-0.0806,-0.1147,0.0,0.0,0.0,0.0,0.0,0.0,0.0,-2.6553,-2.6727,-2.6447,-2.6165,-2.5839,-2.555,-2.5383,-2.5018,-2.435,-2.3872,-2.3412,-2.2909,-2.2432,-2.2197,-2.2197,-2.2197,-2.2197,-2.2197,-2.1463,-2.0717,0.0,0.0,0.0,0.0,0.0,0.0,0.0,0.0,-1.7012,-1.711,-1.7446,-1.7649,-1.7862,-1.7803,-1.7803,-1.7862,-1.7862,-1.793,-1.8008,-1.8008,-1.8008,-1.8008,-1.8008,-1.794,-1.7803,-1.7803,-1.7803,-1.7803,-1.7803,-1.7803,-1.7598,-1.6673,-1.5965,-1.5259,-1.4418,-1.363,-1.2966,-1.2432,-1.1768,-1.095,-0.997,-0.8618,-0.7561,-0.7476,-0.6806,-0.6194,0.0,0.0,0.0,0.0,0.0,0.0,-0.295,0.0,-0.2128,0.0,0.0,0.0,0.0,0.0,0.0,0.0,0.0,0.0,0.5153,0.0,0.5627,0.5947,0.5557,0.5488,0.5741,0.5488,0.5359,0.5223,0.5359,0.4891,0.402,0.3015,0.2013,0.1076,0.1076,0.1076,0.1076,0.0605,0.0605,0.0672,-0.0939,-0.1344,-0.1218,-2.4655,0.0,-2.4307,0.0,-2.535,-2.5553,-2.6634,-2.6779,-2.6779,-2.6779,-2.6592,-2.6258,-2.5798,-2.5647,-2.5244,-2.4408,-2.393,-2.3458,-2.2787,-2.2432,-2.2197,-2.2197,-2.2197,0.0,-2.2197,-2.1663,-2.1214,-2.0865,-1.986,0.0,0.0,0.0,0.0,0.0,-1.765,-1.7609,-1.7369,-1.7813,-1.8008,-1.8008,-1.8008,-1.8008,-1.8008,-1.8008,-1.8008,-1.8008,-1.8008,-1.8008,-1.8008,-1.8076,-1.8076,-1.8076,-1.8008,-1.8008,-1.8008,-1.8008,-1.7872,-1.7442,-1.6376,-1.5737,-1.5108,-1.4049,-1.3557,-1.3119,-1.2579,-1.2144,-1.1403,-0.983,-0.878,-0.8178,-0.825,-0.7592,-0.7021,-0.6817,0.0,0.0,0.0,0.0,0.0,-0.4025,-0.3692,-0.3193,-0.2471,-0.1361,0.0,0.0,0.0,0.0,0.0,0.0,0.0,0.0,0.0,0.0,0.0,0.5302,0.5233,0.5096,0.5163,0.516,0.5087,0.509,0.442,0.3149,0.2414,0.1745,0.1076,0.1076,0.1076,0.1076,0.0538,0.0538,0.0538,-0.1208,-0.1688,-0.1575,-2.6841,-2.6736,-2.6736,-2.6765,-2.6765,-2.6765,-2.6779,-2.6779,-2.6779,-2.6779,-2.6779,-2.6659,-2.6351,-2.6042,-2.5439,-2.4408,-2.4092,-2.3564,-2.2482,-2.2309,-2.2197,0.0,0.0,-2.2197,-2.2197,-2.2197,-2.2185,-2.2185,0.0,0.0,-2.0014,0.0,-1.7476,-1.7965,-1.7399,-1.7464,-1.8008,-1.8008,-1.8008,-1.8008,-1.8008,-1.8008,-1.8008,-1.8008,-1.8008,-1.8008,-1.8008,-1.8008,-1.8008,-1.8212,-1.8269,-1.8269,-1.8076,-1.8008,-1.8008,-1.8008,-1.7501,-1.6941,-1.6862,-1.5807,-1.4601,-1.4601,-1.4049,-1.3492,-1.3492,-1.29,-1.1855,-1.0218,-0.9084,-0.8479,-0.8627,-0.8001,-0.738,-0.7078,0.0,0.0,0.0,0.0,0.0,-0.4625,-0.3489,-0.3021,-0.3689,0.0,0.0,0.0,0.0,0.0,0.0,0.0,0.0,0.0603,0.4033,0.0,0.5396,0.5122,0.4986,0.4982,0.4837,0.4894,0.5087,0.4553,0.3885,0.3149,0.2414,0.1745,0.1076,0.1076,0.1076,0.1076,0.1076,0.0672,-0.0067,-0.0807,-0.1641,-0.2315,-2.7196,-2.6989,-2.6779,-2.6779,-2.6779,-2.6779,-2.6779,-2.6779,-2.6779,-2.6779,-2.6779,-2.6779,-2.6659,-2.6365,-2.5974,0.0,-2.5021,-2.4425,0.0,-2.3148,-2.275,-2.2185,-2.2197,-2.2197,-2.2197,-2.2197,-2.2197,-2.2197,0.0,0.0,0.0,-1.8269,-1.782,-1.7994,-1.7793,-1.7813,-1.8008,-1.8008,-1.8008,-1.8008,-1.8008,-1.8008,-1.8008,-1.8008,-1.8008,-1.8008,-1.8144,-1.8202,-1.8212,-1.8405,-1.8414,-1.8414,-1.8347,-1.8347,-1.8347,-1.8347,-1.7716,-1.6932,-1.6428,-1.5446,-1.4466,-1.3985,-1.371,-1.3492,-1.3492,-1.29,-1.2003,-1.0962,-1.0067,-0.9271,-0.8599,-0.8201,-0.7826,-0.7614,-0.7037,0.0,0.0,0.0,0.0,-0.4954,-0.4292,-0.3894,0.0,-0.3151,0.0,0.0,0.0,0.0,0.0,0.0,0.0,0.0,0.2009,0.0,0.3553,0.3487,0.3892,0.4779,0.4773,0.484,0.5043,0.4303,0.356,0.2683,0.1813,0.1276,0.1076,0.1076,0.1076,0.1076,0.1076,0.0672,-0.0067,-0.0807,-0.1641,-0.2387,-2.7144,-2.6989,-2.6779,-2.6779,-2.6779,-2.6779,-2.6779,-2.6779,-2.6779,-2.6779,-2.6779,-2.6779,-2.6779,-2.6592,0.0,-2.5948,-2.5591,-2.4937,-2.3975,-2.3551,-2.298,-2.2309,-2.2247,-2.2197,-2.2197,0.0,0.0,-2.2197,-2.1272,-2.0216,-1.9062,-1.8359,-1.8002,-1.8008,-1.8008,-1.8008,-1.8008,-1.8008,-1.8008,-1.8008,-1.8008,-1.8008,-1.8008,-1.8008,-1.8008,-1.8008,-1.8212,-1.8269,-1.8337,-1.8539,-1.8607,-1.8617,-1.8684,-1.8741,-1.8684,-1.8549,-1.791,-1.706,-1.6289,-1.5455,-1.4617,-1.3855,-1.3645,-1.3499,-1.3119,-1.2452,-1.1706,-1.1186,-1.0212,-0.9316,-0.8945,-0.8437,-0.8014,-0.781,-0.7332,-0.6999,-0.6999,0.0,0.0,0.0,0.0,0.0,0.0,-0.3825,0.0,0.0,0.0,0.0,0.0,0.0,0.0,0.1946,0.0671,0.0,0.1677,0.1658,0.2642,0.4578,0.459,0.4564,0.4496,0.3624,0.2911,0.2312,0.1471,0.1076,0.1076,0.1076,0.1076,0.1076,0.1076,0.047,-0.047,-0.0941,-0.1789,-0.2848,-2.6779,-2.6779,0.0,0.0,-2.6779,0.0,-2.6779,-2.6779,-2.6779,-2.6779,-2.6779,-2.6779,-2.6779,-2.6779,-2.6568,-2.5948,0.0,0.0,0.0,-2.3551,-2.3027,-2.242,-2.2309,0.0,-2.2197,-2.2197,-2.2197,-2.2197,-2.0816,-1.977,-1.9044,-1.8337,-1.8008,-1.8008,-1.8008,-1.8008,-1.8008,-1.8008,-1.8008,-1.8008,-1.8008,-1.8008,-1.8008,-1.8008,-1.8008,-1.8076,-1.8269,-1.8337,-1.8405,-1.8741,-1.8808,-1.8875,-1.9075,-1.9075,-1.9008,-1.8684,-1.7978,-1.7267,-1.6507,-1.5754,-1.4991,-1.4072,-1.379,-1.3564,-1.2599,-1.1781,-1.1186,-1.1111,-0.982,-0.8915,-0.9426,-0.8694,-0.799,-0.7792,-0.7588,-0.7521,-0.7521,0.0,0.0,0.0,0.0,0.0,0.0,-0.43,-0.43,0.0,0.0,0.0,0.0,0.0,0.047,0.0,0.0,0.0,0.0,0.0,0.1352,0.4068,0.4261,0.4133,0.3816,0.2605,0.1996,0.1996,0.1394,0.1076,0.1076,0.1076,0.1076,0.1076,0.1008,0.0134,-0.1142,-0.1143,-0.2158,-0.357,0.0,0.0,-2.6779,-2.6779,-2.6779,-2.6779,-2.6779,-2.6779,-2.6779,-2.6779,-2.6779,-2.6779,-2.6779,-2.6779,-2.6568,-2.5948,-2.5839,-2.5467,-2.4526,-2.3949,-2.328,-2.242,-2.2359,-2.2309,-2.2197,-2.2197,-2.2197,-2.2197,-2.0816,-2.0031,-1.9835,-1.8596,-1.8008,-1.8008,-1.8008,-1.8008,-1.8008,-1.8008,-1.8008,-1.8008,-1.8008,-1.8008,-1.8008,-1.8008,-1.8076,-1.8279,-1.8414,-1.8549,-1.8741,-1.8942,-1.9008,-1.9075,-1.9065,-1.9075,-1.9065,-1.9008,-1.8317,-1.7491,-1.6706,-1.5886,-1.4991,-1.4209,-1.3928,-1.3717,-1.3346,-1.2599,-1.1855,-1.126,-1.0205,-0.9202,-0.8546,-0.8125,-0.7782,-0.7636,-0.7555,-0.7521,-0.7521,-0.7068,0.0,0.0,-0.5683,-0.502,-0.4891,-0.4564,-0.43,0.0,0.0,0.0,0.0,0.0,0.1478,0.0067,0.0,0.0,0.0,0.0,0.0319,0.1058,0.3285,0.4273,0.4089,0.2165,0.1291,0.1357,0.1196,0.1076,0.1076,0.1076,0.1076,0.1008,0.0336,-0.047,-0.1341,-0.1879,-0.278,-0.3783,-2.6779,-2.6779,-2.6779,-2.6779,-2.6779,-2.6779,-2.6779,-2.6779,-2.6779,-2.6779,-2.6779,-2.6779,-2.6779,-2.6779,-2.6568,-2.5948,-2.5893,-2.5481,-2.4483,-2.4021,-2.3458,-2.2653,-2.2482,-2.2359,-2.2309,-2.2247,-2.2197,-2.2197,-2.1083,-2.042,-2.0107,-1.8988,-1.8259,-1.8008,-1.8008,-1.8008,-1.8008,-1.8008,-1.8008,-1.8008,-1.8008,-1.8008,-1.8008,-1.8008,-1.8144,-1.8337,-1.8482,-1.8607,-1.8808,-1.9008,-1.9075,-1.9075,-1.9075,-1.9075,-1.9075,-1.9075,-1.8731,-1.8172,-1.7472,-1.6645,-1.5683,-1.4561,-1.4,-1.3645,-1.32,-1.2673,-1.2077,-1.126,-1.0307,-0.9408,-0.8755,-0.8191,-0.7707,-0.7559,-0.7521,-0.7521,-0.7521,-0.726,0.0,-0.6741,-0.5951,-0.5355,-0.5153,-0.4628,-0.43,-0.43,0.0,0.0,-0.4239,-0.1874,-0.0335,-0.0,0.0,0.0,0.0,0.0,0.0,0.0,0.1595,0.2684,0.3271,0.1373,0.0702,0.1035,0.1065,0.1078,0.1077,0.1076,0.0874,0.0538,-0.0067,-0.094,-0.188,-0.2449,-0.3367,-0.4437,-2.6832,-2.6779,-2.6779,-2.6779,-2.6779,-2.6779,-2.6779,-2.6779,-2.6779,-2.6779,-2.6779,-2.6779,-2.6779,-2.6727,-2.6447,-2.5839,-2.566,-2.5203,-2.4189,-2.3872,-2.3471,-2.2909,-2.2604,-2.242,-2.242,-2.2247,-2.2197,-2.2197,-2.1463,-2.0741,-2.0096,-1.9375,-1.8654,-1.8008,-1.8008,-1.8008,-1.8008,-1.8008,-1.8008,-1.8008,-1.8008,-1.8008,-1.8008,-1.8008,-1.8134,-1.8337,-1.8482,-1.8674,-1.8875,-1.9075,-1.9075,-1.9075,-1.9075,-1.9075,-1.9075,-1.9075,-1.8998,-1.8787,-1.8037,-1.7207,-1.6237,-1.4776,-1.4145,-1.3717,-1.2966,-1.2599,-1.2144,-1.1428,-1.0323,-0.9504,-0.927,-0.8417,-0.7669,-0.7555,-0.7521,-0.7521,-0.7521,0.0,-0.7326,-0.6872,-0.635,-0.5822,-0.5289,-0.4761,-0.4367,-0.43,-0.43,0.0,0.0,-0.43,-0.3149,-0.0668,-0.0196,0.0,0.0,0.0,0.0,0.0,0.0,0.063,0.1825,0.055,0.0315,0.0841,0.0999,0.1079,0.1079,0.0942,0.0538,-0.0067,-0.0537,-0.141,-0.2557,-0.2973,-0.3902,-0.5171,-2.6832,-2.6779,-2.6779,-2.6779,-2.6779,-2.6779,-2.6779,-2.6779,-2.6779,-2.6779,-2.6779,-2.6779,-2.6779,-2.634,-2.577,-2.5189,-2.4681,-2.4292,-2.4131,-2.3543,-2.3138,-2.2909,-2.2739,-2.2555,-2.242,-2.2247,-2.2197,-2.2197,-2.1463,-2.0741,-2.0096,-1.9375,-1.8654,-1.8008,-1.8008,-1.8008,-1.8008,-1.8008,-1.8008,-1.8008,-1.8008,-1.8008,-1.8008,-1.8202,-1.8337,-1.8482,-1.8674,-1.8875,-1.9075,-1.9075,-1.9075,-1.9075,-1.9075,-1.9075,-1.9075,-1.9075,-1.8654,-1.8037,-1.7276,-1.6035,-1.4848,-1.4497,-1.4353,-1.4209,-1.3912,-1.3178,-1.2451,-1.2056,-1.0562,-0.926,-0.8953,-0.8117,-0.7564,-0.7526,-0.7521,-0.7521,-0.7521,0.0,-0.7456,-0.7391,-0.6872,-0.6346,-0.5822,-0.5289,-0.4761,-0.4367,-0.43,-0.43,-0.43,-0.43,-0.4056,-0.3508,-0.1225,0.0,0.0,0.0,0.0,0.0,0.0,0.0117,0.0354,0.0125,0.0064,0.0194,0.0599,0.0877,0.1011,0.0269,-0.0134,-0.0403,-0.1944,-0.2746,-0.3025,-0.3737,-0.455,-0.5318,-2.6832,-2.6779,-2.6779,-2.6779,-2.6779,-2.6779,-2.6779,-2.6779,-2.6674,-2.634,-2.634,-2.6218,-2.5865,-2.5591,-2.5189,-2.4567,-2.4234,-2.3956,-2.3603,-2.3245,-2.3078,-2.3017,-2.28,-2.2555,-2.2309,-2.2247,-2.2197,-2.2197,-2.1862,-2.1135,-2.0096,-1.977,-1.9054,-1.8008,-1.8008,-1.8008,-1.8008,-1.8008,-1.8008,-1.8008,-1.8008,-1.8076,-1.8144,-1.8269,-1.8472,-1.8674,-1.8741,-1.8942,-1.9075,-1.9075,-1.9075,-1.9075,-1.9075,-1.9075,-1.9075,-1.9075,-1.8586,-1.7765,-1.6594,-1.5754,-1.5133,-1.4641,-1.4425,-1.4361,-1.4281,-1.384,-1.3165,-1.2423,-1.1274,-1.0093,-0.9164,-0.8332,-0.7787,-0.7787,-0.7787,0.0,0.0,-0.8052,-0.8052,-0.8052,-0.7587,-0.7125,-0.6863,-0.6075,-0.5415,-0.5153,-0.4758,-0.4431,-0.4431,-0.4303,-0.4151,-0.4102,-0.1421,0.0,0.0,0.0,0.0,0.0,0.0,0.0,0.0,0.0,0.0,0.0,0.0201,0.0135,-0.0067,-0.0269,-0.0806,-0.1544,-0.2482,-0.3084,-0.3572,-0.4566,-0.5315,-0.5902,-2.6674,-2.6674,-2.6779,-2.6779,-2.6779,-2.6727,-2.6621,-2.6621,-2.6394,-2.577,-2.5715,-2.5536,-2.5077,-2.4851,-2.4624,-2.4118,-2.3956,-2.3662,-2.3138,-2.3078,-2.3078,-2.3078,-2.286,-2.2555,-2.2247,-2.2185,-2.2197,-2.2197,-2.2197,-2.1537,-2.0355,-2.0161,-1.9441,-1.8202,-1.8076,-1.8008,-1.8008,-1.8008,-1.8008,-1.8008,-1.8076,-1.8134,-1.8337,-1.8405,-1.8607,-1.8808,-1.8875,-1.8942,-1.9075,-1.9075,-1.9075,-1.9075,-1.9075,-1.9075,-1.9075,-1.9075,-1.8452,-1.7482,-1.6385,-1.5762,-1.5338,-1.4776,-1.4497,-1.4433,-1.4433,-1.4212,-1.3772,-1.281,-1.1937,-1.0946,-0.9608,-0.8816,-0.8242,-0.8117,0.0,0.0,0.0,-0.8517,-0.8517,-0.8517,-0.8112,-0.7842,-0.7707,-0.6728,-0.6005,-0.5939,-0.5153,-0.4628,-0.4628,-0.4375,-0.4179,-0.4036,-0.1653,-0.0287,-0.0,0.0,0.0,0.0,0.0,0.0,-0.0,-0.0715,-0.099,-0.1011,-0.0673,-0.0875,-0.1412,-0.1141,-0.161,-0.2549,-0.2954,-0.3424,-0.4053,-0.5191,-0.5868,-0.6417,-2.6111,-2.6394,-2.6779,-2.6779,-2.6779,-2.6621,-2.6056,-2.5948,-2.577,-2.5133,-2.5077,-2.5077,-2.5007,-2.4509,-2.4118,-2.4131,-2.3543,-2.3125,-2.3078,-2.3078,-2.3078,-2.3078,-2.286,-2.2616,-2.242,-2.2247,-2.2197,-2.2197,-2.2197,-2.18,-2.0996,-2.0355,-1.9704,-1.8911,-1.8269,-1.8008,-1.8008,-1.8008,-1.8008,-1.8008,-1.8202,-1.8269,-1.8337,-1.8674,-1.8808,-1.8808,-1.9008,-1.9075,-1.9075,-1.9075,-1.9075,-1.9075,-1.9075,-1.9075,-1.9075,-1.9075,-1.8104,-1.6932,-1.6862,-1.5754,-1.4633,-1.4641,-1.4569,-1.4569,-1.4569,-1.4167,-1.37,-1.339,-1.2351,-1.1228,-1.0353,-0.9664,-0.9017,-0.8511,0.0,0.0,-0.8517,-0.8517,-0.8517,-0.8517,-0.8447,-0.8247,-0.7772,-0.706,-0.6404,-0.5939,-0.5223,-0.4764,-0.4764,-0.4634,-0.4323,-0.3845,-0.24,-0.1122,-0.0,0.0,0.0,0.0,0.0,0.0,-0.0065,-0.279,-0.3981,-0.3919,-0.2824,-0.235,-0.2417,-0.2681,-0.288,-0.3015,-0.3894,-0.4233,-0.4395,-0.5265,-0.5943,-0.6569,-2.5425,-2.5536,-2.5687,-2.5687,-2.5687,-2.5591,-2.537,-2.537,-2.5133,-2.4509,-2.4452,-2.4279,-2.3884,-2.359,-2.3484,-2.3484,-2.3258,-2.3078,-2.3078,-2.3017,-2.2969,-2.2848,-2.2739,-2.2555,-2.2309,-2.2247,-2.2197,-2.2197,-2.2197,-2.1788,-2.106,-2.0869,-2.0085,-1.8977,-1.8721,-1.8395,-1.8008,-1.8008,-1.8008,-1.8008,-1.8202,-1.8347,-1.8482,-1.8674,-1.8875,-1.9008,-1.9075,-1.9075,-1.9075,-1.9075,-1.9075,-1.9075,-1.9075,-1.9075,-1.9075,-1.9075,-1.8037,-1.6932,-1.6932,-1.5754,-1.4569,-1.4569,-1.4569,-1.4569,-1.4569,-1.4292,-1.3876,-1.3605,-1.2717,-1.1797,-1.108,-1.0212,-0.9524,-0.9332,0.0,-0.8894,-0.9092,-0.9092,-0.9092,-0.9092,-0.9092,-0.9028,-0.8823,-0.8236,-0.7512,-0.6859,-0.6075,-0.5422,-0.5024,-0.4637,-0.432,-0.3943,-0.3372,-0.2884,-0.2431,-0.1694,-0.1318,-0.1307,-0.1273,-0.1299,-0.1322,-0.2409,-0.3435,-0.4252,-0.3837,-0.3498,-0.3362,-0.3496,-0.3558,-0.3689,-0.4356,-0.4622,-0.4788,-0.6176,-0.6726,-0.6993,-2.4794,-2.4851,-2.5007,-2.5007,-2.5007,-2.4951,-2.4738,-2.4738,-2.4509,-2.3884,-2.378,-2.3603,-2.3125,-2.3078,-2.3078,-2.3078,-2.3078,-2.3078,-2.3017,-2.2909,-2.28,-2.269,-2.2616,-2.2494,-2.2247,-2.2185,-2.2197,-2.2197,-2.1987,-2.1726,-2.1463,-2.0741,-2.002,-1.9309,-1.8844,-1.8462,-1.8076,-1.8076,-1.8144,-1.8144,-1.8405,-1.8539,-1.8617,-1.8808,-1.9008,-1.9075,-1.9075,-1.9075,-1.9075,-1.9075,-1.9075,-1.9075,-1.9075,-1.9075,-1.9075,-1.9075,-1.8037,-1.6932,-1.6932,-1.5754,-1.4569,-1.4569,-1.4569,-1.4537,-1.4498,-1.4196,-1.3846,-1.3505,-1.2897,-1.2198,-1.1575,-1.0787,-1.0161,-0.997,-0.953,-0.9215,-0.9484,-0.9484,-0.9484,-0.9484,-0.9484,-0.9484,-0.9484,-0.8888,-0.8296,-0.7777,-0.6793,-0.5855,-0.5153,-0.4742,-0.4466,-0.4234,-0.4074,-0.4044,-0.4071,-0.3153,-0.2722,-0.2766,-0.2792,-0.2768,-0.282,-0.2818,-0.336,-0.4311,-0.4311,-0.4175,-0.4038,-0.4038,-0.4167,-0.4359,-0.4752,-0.5043,-0.5379,-0.676,-0.7263,-0.7351,-2.4234,-2.4567,-2.5007,-2.5007,-2.5007,-2.4794,-2.4176,-2.4073,-2.3826,-2.3198,-2.3078,-2.3078,-2.3078,-2.3078,-2.3078,-2.3078,-2.3078,-2.3017,-2.2909,-2.28,-2.269,-2.269,-2.2494,-2.242,-2.242,-2.2247,-2.2197,-2.2197,-2.1463,-2.1463,-2.2123,-2.0031,-1.9375,-2.0042,-1.8596,-1.8144,-1.8269,-1.8269,-1.8405,-1.8549,-1.8741,-1.8808,-1.8808,-1.9008,-1.9075,-1.9075,-1.9075,-1.9075,-1.9075,-1.9075,-1.9075,-1.9075,-1.9075,-1.9075,-1.9075,-1.9065,-1.8037,-1.6932,-1.6862,-1.5754,-1.4569,-1.4569,-1.4569,-1.4474,-1.4188,-1.3839,-1.3489,-1.3155,-1.2806,-1.2436,-1.1926,-1.1365,-1.0863,-1.0364,-0.9862,-0.9484,-0.9484,-0.9484,-0.9484,-0.9484,-0.9484,-0.9484,-0.9484,-0.8888,-0.849,-0.849,-0.7181,-0.5998,-0.5138,-0.5011,-0.4822,-0.4738,-0.4369,-0.425,-0.4379,-0.4193,-0.4196,-0.433,-0.4323,-0.4314,-0.4314,-0.4306,-0.43,-0.43,-0.43,-0.43,-0.43,-0.43,-0.4628,-0.5087,-0.5087,-0.5578,-0.6283,-0.702,-0.7415,-0.7747,-2.3484,-2.3531,-2.3649,-2.3649,-2.3649,-2.359,-2.3424,-2.3424,-2.3318,-2.3138,-2.3078,-2.3078,-2.3078,-2.3078,-2.3078,-2.3078,-2.3078,-2.3017,-2.28,-2.2616,-2.2432,-2.2383,-2.2359,-2.2359,-2.2247,-2.2185,-2.2197,-2.2197,-2.1463,-2.1198,-2.14,-2.0291,-1.9639,-1.9309,-1.8911,-1.8529,-1.8269,-1.8269,-1.8405,-1.8549,-1.8741,-1.8808,-1.8808,-1.9008,-1.9075,-1.9075,-1.9075,-1.9075,-1.9075,-1.9075,-1.9075,-1.9075,-1.9075,-1.9075,-1.8998,-1.8452,-1.7619,-1.6793,-1.6245,-1.5409,-1.4569,-1.4569,-1.4569,-1.4474,-1.4188,-1.3839,-1.3489,-1.3155,-1.2806,-1.256,-1.2375,-1.1926,-1.1365,-1.0863,-1.0364,-0.9926,-0.9548,-0.9484,-0.9484,-0.9484,-0.9484,-0.9484,-0.9484,-0.935,-0.9017,-0.8554,-0.7642,-0.697,-0.658,-0.6065,-0.5667,-0.5564,-0.4913,-0.4599,-0.4572,-0.4226,-0.4164,-0.4317,-0.4289,-0.4306,-0.4306,-0.4303,-0.43,-0.43,-0.43,-0.4498,-0.4891,-0.509,-0.5422,-0.5756,-0.6597,-0.7047,-0.7245,-0.7934,-0.8356,-0.8567,-2.3138,-2.3078,-2.3078,-2.3078,-2.3078,-2.3078,-2.3078,-2.3078,-2.3078,-2.3078,-2.3078,-2.3078,-2.3078,-2.3078,-2.3078,-2.3078,-2.3017,-2.2848,-2.2678,-2.2432,-2.2309,-2.2309,-2.2309,-2.2309,-2.2197,-2.2197,-2.2061,-2.1788,-2.1071,-2.0677,-2.0677,-1.9704,-1.9253,-1.911,-1.8844,-1.8664,-1.8472,-1.8472,-1.8607,-1.8741,-1.8875,-1.8942,-1.8942,-1.9065,-1.9075,-1.9075,-1.9075,-1.9075,-1.9075,-1.9075,-1.9075,-1.9075,-1.9075,-1.8931,-1.8586,-1.8104,-1.7276,-1.6385,-1.5903,-1.5196,-1.4569,-1.4569,-1.4538,-1.4339,-1.3982,-1.3632,-1.329,-1.2949,-1.271,-1.2621,-1.2621,-1.2182,-1.1615,-1.1115,-1.0618,-1.0117,-0.9548,-0.9484,-0.9484,-0.9484,-0.9484,-0.9484,-0.9484,-0.9484,-0.9221,-0.8554,-0.8096,-0.7653,-0.7267,-0.6863,-0.6546,-0.6497,-0.5698,-0.5289,-0.5219,-0.468,-0.4358,-0.43,-0.43,-0.43,-0.43,-0.43,-0.43,-0.43,-0.43,-0.4498,-0.4824,-0.5219,-0.5683,-0.6145,-0.6994,-0.7564,-0.8048,-0.8464,-0.8774,-0.8906,-2.3078,-2.3078,-2.3078,-2.3078,-2.3078,-2.3078,-2.3078,-2.3078,-2.3078,-2.3078,-2.3078,-2.3078,-2.3078,-2.3078,-2.3078,-2.3078,-2.2848,-2.269,-2.2678,-2.2383,-2.2247,-2.2359,-2.2247,-2.2197,-2.2197,-2.2123,-2.1788,-2.1123,-2.0355,-2.0031,-1.9966,-1.8596,-1.8395,-1.9177,-1.8596,-1.8472,-1.8741,-1.8808,-1.8942,-1.9075,-1.9075,-1.9075,-1.9075,-1.9075,-1.9075,-1.9075,-1.9075,-1.9075,-1.9075,-1.9075,-1.9075,-1.9075,-1.9075,-1.8586,-1.7969,-1.7901,-1.6932,-1.5762,-1.5692,-1.5133,-1.4569,-1.4569,-1.4379,-1.4021,-1.3664,-1.333,-1.2989,-1.2701,-1.2621,-1.2621,-1.2621,-1.2182,-1.1677,-1.1108,-1.0611,-1.018,-0.9612,-0.9484,-0.9484,-0.9484,-0.9484,-0.9484,-0.9484,-0.9484,-0.9215,-0.8619,-0.8619,-0.8296,-0.7647,-0.7517,-0.7517,-0.7517,-0.6666,-0.6207,-0.6207,-0.5418,-0.4764,-0.43,-0.43,-0.43,-0.43,-0.43,-0.43,-0.43,-0.4367,-0.4367,-0.4498,-0.5024,-0.5745,-0.6531,-0.6736,-0.7581,-0.8584,-0.8654,-0.8714,-0.878,-2.3078,-2.3078,-2.3078,-2.3078,-2.3078,-2.3078,-2.3078,-2.3078,-2.3078,-2.3078,-2.3078,-2.3078,-2.3078,-2.3078,-2.3078,-2.3078,-2.2848,-2.2616,-2.2482,-2.2309,-2.2197,-2.2247,-2.2185,-2.2197,-2.2197,-2.1651,-2.1262,-2.1123,-1.9824,-1.9243,-1.9243,-1.8395,-1.8076,-1.8269,-1.8269,-1.8414,-1.8549,-1.8741,-1.8942,-1.9075,-1.9075,-1.9075,-1.9075,-1.9075,-1.9075,-1.9075,-1.9075,-1.9075,-1.9075,-1.9075,-1.9075,-1.9075,-1.9075,-1.8586,-1.7901,-1.7276,-1.6524,-1.5692,-1.5062,-1.4705,-1.4569,-1.4569,-1.4379,-1.4021,-1.3664,-1.333,-1.2989,-1.2701,-1.2621,-1.2621,-1.2621,-1.2498,-1.212,-1.1178,-1.0926,-1.0548,-0.9606,-0.9484,-0.9484,-0.9484,-0.9484,-0.9484,-0.9484,-0.9484,-0.9414,-0.9285,-0.928,-0.9215,-0.9022,-0.856,-0.8231,-0.8231,-0.7517,-0.706,-0.6985,-0.6789,-0.5939,-0.4561,-0.4561,-0.4431,-0.43,-0.43,-0.43,-0.43,-0.4761,-0.5156,-0.5624,-0.6412,-0.6933,-0.7326,-0.7857,-0.8332,-0.8654,-0.8654,-0.8865,-0.9241,-2.3078,-2.3078,-2.3078,-2.3078,-2.3078,-2.3078,-2.3078,-2.3078,-2.3078,-2.3078,-2.3078,-2.3078,-2.3078,-2.3078,-2.3078,-2.3017,-2.28,-2.2678,-2.2555,-2.2309,-2.2247,-2.2309,-2.2247,-2.2197,-2.2197,-2.1135,-2.0805,-2.1123,-2.0031,-1.9375,-1.8977,-1.8337,-1.8076,-1.8144,-1.8269,-1.8405,-1.8684,-1.8741,-1.8942,-1.9075,-1.9075,-1.9075,-1.9075,-1.9075,-1.9075,-1.9075,-1.9075,-1.9075,-1.9075,-1.9075,-1.9075,-1.9075,-1.9075,-1.8375,-1.7413,-1.7001,-1.6105,-1.5133,-1.4705,-1.4569,-1.4569,-1.4569,-1.4379,-1.4061,-1.3878,-1.3568,-1.3275,-1.3084,-1.3052,-1.3004,-1.2846,-1.2814,-1.2508,-1.1512,-1.1365,-1.1052,-1.0053,-0.9862,-0.9798,-0.9548,-0.9484,-0.9484,-0.9484,-0.9484,-0.9484,-0.9484,-0.9484,-0.9484,-0.9484,-0.9151,-0.8952,-0.8952,-0.8296,-0.7902,-0.7832,-0.7442,-0.6793,-0.587,-0.5741,-0.5613,-0.555,-0.555,-0.555,-0.555,-0.5679,-0.5943,-0.6408,-0.7003,-0.7461,-0.7847,-0.8182,-0.8529,-0.886,-0.8725,-0.8937,-0.9322,-2.3078,-2.3078,-2.3078,-2.3078,-2.3078,-2.3078,-2.3078,-2.3078,-2.3078,-2.3078,-2.3078,-2.3078,-2.3078,-2.3078,-2.3078,-2.2909,-2.28,-2.269,-2.269,-2.2309,-2.2111,-2.2223,-2.1987,-2.1874,-2.1862,-2.0688,-2.0355,-2.0933,-2.0161,-1.9441,-1.8854,-1.8269,-1.8144,-1.8269,-1.8337,-1.8539,-1.8808,-1.8808,-1.8942,-1.9075,-1.9075,-1.9075,-1.9075,-1.9075,-1.9075,-1.9075,-1.9075,-1.9075,-1.9075,-1.9075,-1.9075,-1.9075,-1.9075,-1.8172,-1.707,-1.6932,-1.5895,-1.4776,-1.4641,-1.4569,-1.4569,-1.4569,-1.4418,-1.4204,-1.4204,-1.3878,-1.3584,-1.3584,-1.3584,-1.3497,-1.3227,-1.3179,-1.2948,-1.2074,-1.1921,-1.1508,-1.05,-1.0334,-1.011,-0.9548,-0.9484,-0.9484,-0.9484,-0.9484,-0.9484,-0.9484,-0.9484,-0.9484,-0.9484,-0.9484,-0.9484,-0.9484,-0.8952,-0.8689,-0.8689,-0.8037,-0.7707,-0.7572,-0.7447,-0.7186,-0.6924,-0.6924,-0.6924,-0.6859,-0.6724,-0.6793,-0.7055,-0.733,-0.7722,-0.8242,-0.8117,-0.8523,-0.9141,-0.9019,-0.9223,-0.962,-2.3078,-2.3078,-2.3078,-2.3078,-2.3078,-2.3078,-2.3078,-2.3078,-2.3078,-2.3078,-2.3078,-2.3078,-2.3078,-2.3078,-2.3078,-2.2909,-2.28,-2.269,-2.269,-2.1975,-2.1526,-2.1514,-2.0944,-2.056,-2.0366,-2.0172,-2.0161,-2.0237,-1.8921,-1.8202,-1.8144,-1.8008,-1.8144,-1.8337,-1.8414,-1.8607,-1.8808,-1.9008,-1.9075,-1.9075,-1.9075,-1.9075,-1.9075,-1.9075,-1.9075,-1.9075,-1.9075,-1.9075,-1.9075,-1.9075,-1.9075,-1.9075,-1.9075,-1.8519,-1.7765,-1.707,-1.6315,-1.548,-1.4784,-1.4569,-1.4569,-1.4569,-1.4609,-1.4498,-1.4498,-1.4061,-1.3584,-1.3584,-1.3584,-1.3568,-1.3521,-1.3513,-1.3365,-1.2772,-1.2407,-1.1905,-1.085,-1.0451,-1.011,-0.9548,-0.9484,-0.9484,-0.9484,-0.9484,-0.9484,-0.9484,-0.9484,-0.9484,-0.9484,-0.9484,-0.9484,-0.9484,-0.942,-0.935,-0.935,-0.9285,-0.9221,-0.9221,-0.9157,-0.8366,-0.6924,-0.6924,-0.6924,-0.6924,-0.7316,-0.7577,-0.7642,-0.8112,-0.8382,-0.8447,-0.8447,-0.873,-0.9254,-0.9963,-1.0381,-1.0738,-2.2494,-2.2555,-2.2689,-2.3005,-2.3078,-2.3078,-2.3078,-2.3078,-2.3078,-2.3078,-2.3078,-2.3078,-2.3078,-2.3078,-2.3078,-2.3017,-2.2909,-2.2665,-2.2285,-2.1765,-2.1313,-2.088,-2.056,-2.0302,-2.0096,-1.9704,-1.9507,-1.9507,-1.8854,-1.8586,-1.8721,-1.8337,-1.8279,-1.8405,-1.8482,-1.8617,-1.8808,-1.8875,-1.9008,-1.9075,-1.9075,-1.9075,-1.9075,-1.9075,-1.9075,-1.9075,-1.9075,-1.9075,-1.9075,-1.9075,-1.9075,-1.9075,-1.9075,-1.8586,-1.7833,-1.7139,-1.6385,-1.5621,-1.4848,-1.4569,-1.4569,-1.4569,-1.4569,-1.4569,-1.4569,-1.4395,-1.4172,-1.4172,-1.4172,-1.4109,-1.391,-1.3878,-1.3739,-1.3341,-1.3119,-1.2763,-1.2011,-1.1514,-1.085,-0.9849,-0.9574,-0.9484,-0.9484,-0.9484,-0.9484,-0.9484,-0.9484,-0.9484,-0.9484,-0.9484,-0.9484,-0.9484,-0.9484,-0.9484,-0.9484,-0.9484,-0.9484,-0.9484,-0.9484,-0.9087,-0.8366,-0.8366,-0.8366,-0.8366,-0.8425,-0.856,-0.8694,-0.8765,-0.8899,-0.9092,-0.921,-0.9579,-1.0154,-1.09,-1.1242,-1.1465]}]]